Date StartTime U_cm/s V_cm/s W_cm/s Ustd_cm/s Vstd_cm/s Wstd_cm/s Uvar_(cm/s)^2 Vvar_(cm/s)^2 Wvar_(cm/s)^2 KE_(m/s)^2 TurbulentKE_(m/s)^2 HorizWindSpeed_cm/s FrictionSpeec_cm/s DragCoef SpeedOfSound_m/s SonicTemperature_C Pressure_mb 
04/12/2013  00:00:00       50.688       21.809        5.428       13.070       12.976        9.016      170.821      168.384       81.286        0.175        0.021       55.181        3.727        0.005      337.092        8.832      859.308
04/12/2013  00:01:00       69.255       34.542        7.472       18.016       12.643       15.213      324.578      159.844      231.441        0.338        0.036       77.391        5.449        0.005      337.064        8.785      859.310
04/12/2013  00:02:00       53.648       28.590        5.637       27.882       15.140        8.600      777.429      229.218       73.959        0.240        0.054       60.791        6.303        0.011      337.053        8.766      859.314
04/12/2013  00:03:00       60.053       39.121        4.949       26.779       13.169       10.921      717.141      173.417      119.267        0.309        0.050       71.671        9.807        0.019      337.231        9.067      859.316
04/12/2013  00:04:00       53.957       20.086        3.101       17.894       23.743       13.878      320.200      563.724      192.592        0.220        0.054       57.575        8.952        0.024      337.071        8.796      859.314
04/12/2013  00:05:00       69.930       40.941        7.568       19.381       15.748       11.977      375.608      247.995      143.444        0.370        0.038       81.033        5.831        0.005      337.108        8.859      859.305
04/12/2013  00:06:00       71.558       41.941       24.183       18.079        9.665       12.865      326.848       93.412      165.511        0.402        0.029       82.943        7.302        0.008      337.226        9.056      859.289
04/12/2013  00:07:00       69.605       38.074       23.564       12.762        8.688       11.628      162.856       75.488      135.213        0.361        0.019       79.338        7.412        0.009      337.332        9.233      859.285
04/12/2013  00:08:00       51.568       37.972       21.123       12.841        8.823       10.518      164.888       77.845      110.634        0.245        0.018       64.040        4.785        0.006      337.333        9.236      859.300
04/12/2013  00:09:00       33.551       33.230       19.755       14.525       10.850        7.067      210.979      117.717       49.941        0.150        0.019       47.222        6.368        0.018      337.308        9.195      859.310
04/12/2013  00:10:00       39.334       35.399       -0.619       25.850       18.413       15.270      668.221      339.021      233.188        0.202        0.062       52.918       10.288        0.038      337.303        9.186      859.319
04/12/2013  00:11:00       35.736       30.892        4.869       18.998       20.238       15.119      360.940      409.566      228.599        0.163        0.050       47.237       13.488        0.082      337.331        9.230      859.333
04/12/2013  00:12:00       24.673       46.717       -6.866       16.001       16.917       10.841      256.025      286.196      117.534        0.175        0.033       52.832       11.036        0.044      337.260        9.115      859.353
04/12/2013  00:13:00       24.200       53.728       -6.080       15.962       17.956       10.436      254.778      322.414      108.912        0.210        0.034       58.926        6.645        0.013      337.254        9.106      859.360
04/12/2013  00:14:00       23.419       24.454        1.285       13.619       18.136       11.827      185.476      328.904      139.884        0.090        0.033       33.859        6.149        0.033      337.216        9.045      859.374
04/12/2013  00:15:00       22.847       10.949       -1.126       10.252       12.136        8.793      105.101      147.291       77.319        0.049        0.016       25.335        7.473        0.087      337.250        9.099      859.383
04/12/2013  00:16:00       42.038       12.714        4.725        9.419        9.619        9.006       88.721       92.530       81.104        0.111        0.013       43.919        4.527        0.011      337.250        9.096      859.390
04/12/2013  00:17:00       46.954       11.684        0.047       10.632       12.348        8.394      113.044      152.468       70.452        0.134        0.017       48.386        6.137        0.016      337.340        9.248      859.378
04/12/2013  00:18:00       56.294       26.657        7.770       28.427       20.615       12.469      808.080      424.989      155.468        0.266        0.069       62.286        7.707        0.015      337.359        9.279      859.375
04/12/2013  00:19:00       34.180       -2.590        6.788       24.321       30.722       15.770      591.529      943.861      248.688        0.150        0.089       34.278       20.400        0.354      337.452        9.435      859.368
04/12/2013  00:20:00       10.745       44.105       -7.890       12.301       12.964        6.396      151.317      168.056       40.915        0.124        0.018       45.395        5.889        0.017      337.395        9.339      859.350
04/12/2013  00:21:00        0.709       34.660      -11.639       19.152       26.112       12.973      366.797      681.850      168.302        0.128        0.061       34.667       10.718        0.096      337.557        9.612      859.340
04/12/2013  00:22:00      -16.768       -6.123       -1.103       10.502       15.029       10.785      110.298      225.874      116.322        0.039        0.023       17.851        7.378        0.171      337.366        9.292      859.338
04/12/2013  00:23:00      -31.706       -8.017       -4.311       17.227        9.554        8.124      296.778       91.272       65.999        0.077        0.023       32.704        8.271        0.064      337.340        9.247      859.342
04/12/2013  00:24:00      -68.607       11.636      -10.031       11.847       15.254        8.820      140.355      232.674       77.796        0.270        0.023       69.586        3.687        0.003      337.226        9.055      859.355
04/12/2013  00:25:00      -25.838       -6.264       -5.824       13.649       12.281        6.991      186.300      150.832       48.868        0.056        0.019       26.586        4.832        0.033      337.227        9.061      859.386
04/12/2013  00:26:00      -20.088       -5.603       -9.528       13.629        8.488        9.288      185.755       72.053       86.265        0.043        0.017       20.855       10.260        0.242      337.237        9.075      859.406
04/12/2013  00:27:00       -2.127       46.226       -9.825       28.886       27.213       12.885      834.412      740.538      166.032        0.199        0.087       46.275       10.925        0.056      337.562        9.619      859.415
04/12/2013  00:28:00       -2.527       33.334        0.271       14.419       17.656        9.450      207.917      311.731       89.302        0.086        0.030       33.429        9.175        0.075      337.584        9.657      859.414
04/12/2013  00:29:00       14.426       61.200       -3.938       22.759       33.328       18.285      517.965     1110.741      334.325        0.297        0.098       62.877       18.751        0.089      337.629        9.732      859.418
04/12/2013  00:30:00       15.240       73.346       -6.450       17.050       17.339       12.439      290.688      300.654      154.725        0.320        0.037       74.912        7.683        0.011      337.600        9.684      859.421
04/12/2013  00:31:00        6.048       89.051       -9.851       22.841       28.091       11.910      521.716      789.077      141.839        0.476        0.073       89.256       12.922        0.021      337.744        9.926      859.422
04/12/2013  00:32:00       12.047       76.578       -9.918       21.456       22.781       11.179      460.366      518.997      124.971        0.361        0.055       77.520       11.434        0.022      337.706        9.861      859.435
04/12/2013  00:33:00      -18.056       37.333      -11.133       28.387       35.996       14.555      805.804     1295.714      211.854        0.208        0.116       41.470       11.375        0.075      337.648        9.765      859.462
04/12/2013  00:34:00      -49.164      -22.641      -10.081       19.246       11.501        8.709      370.415      132.279       75.853        0.180        0.029       54.127        5.065        0.009      337.342        9.251      859.475
04/12/2013  00:35:00      -68.050      -14.614      -10.014       15.680       15.833       10.503      245.874      250.689      110.321        0.278        0.030       69.601        8.560        0.015      337.116        8.872      859.479
04/12/2013  00:36:00      -75.243       -8.645      -11.123       21.573       24.904       11.925      465.408      620.192      142.195        0.354        0.061       75.738        5.846        0.006      337.041        8.746      859.482
04/12/2013  00:37:00      -38.977      -13.756       -7.813       17.693       18.700       11.157      313.029      349.692      124.473        0.128        0.039       41.333        4.850        0.014      337.118        8.876      859.485
04/12/2013  00:38:00      -25.796       -8.271       -7.574       17.631        8.488        7.944      310.847       72.045       63.102        0.062        0.022       27.089        7.395        0.075      337.141        8.913      859.490
04/12/2013  00:39:00      -33.125      -10.971       -7.315       12.523        7.942        9.040      156.826       63.077       81.714        0.079        0.015       34.894        3.880        0.012      337.119        8.878      859.491
04/12/2013  00:40:00      -25.899      -20.531      -12.203       17.023       10.888        9.692      289.775      118.554       93.927        0.087        0.025       33.050        4.866        0.022      337.207        9.027      859.488
04/12/2013  00:41:00        3.542      -23.607       -3.441       12.727       10.724       13.962      161.971      115.015      194.931        0.053        0.024       23.871        8.698        0.133      337.205        9.022      859.476
04/12/2013  00:42:00      -27.226      -30.102       -5.382       30.039       16.425       11.826      902.361      269.773      139.844        0.149        0.066       40.588       13.934        0.118      337.166        8.957      859.463
04/12/2013  00:43:00      -47.950      -29.214       -0.919       24.376       19.561       14.956      594.166      382.635      223.693        0.218        0.060       56.149       14.146        0.063      337.110        8.865      859.449
04/12/2013  00:44:00      -29.743      -28.986        4.841       30.623       16.195       12.239      937.748      262.276      149.793        0.155        0.067       41.531       13.801        0.110      337.104        8.853      859.434
04/12/2013  00:45:00      -49.500      -37.946        2.213       28.968       23.524       17.596      839.131      553.361      309.636        0.280        0.085       62.371       16.957        0.074      337.151        8.932      859.409
04/12/2013  00:46:00      -30.327      -25.737        6.435       30.050       20.830       18.328      903.004      433.896      335.903        0.165        0.084       39.776       18.236        0.210      337.144        8.921      859.385
04/12/2013  00:47:00      -54.591      -32.820        2.539       27.147       16.635       19.251      736.980      276.724      370.617        0.272        0.069       63.697       18.407        0.084      337.083        8.818      859.364
04/12/2013  00:48:00      -62.608      -30.808       -7.769       16.404       12.052        9.347      269.082      145.260       87.369        0.272        0.025       69.777        3.047        0.002      337.103        8.850      859.349
04/12/2013  00:49:00      -97.801      -23.858       -9.218       13.622       18.369       11.030      185.569      337.413      121.664        0.543        0.032      100.669        5.813        0.003      337.077        8.807      859.344
04/12/2013  00:50:00      -92.853      -20.170       -6.254       19.684       16.082       13.947      387.445      258.619      194.519        0.495        0.042       95.019        9.755        0.011      337.058        8.774      859.342
04/12/2013  00:51:00     -107.783       -2.896      -10.949       27.958       18.363       17.172      781.657      337.186      294.891        0.658        0.071      107.822       11.639        0.012      337.023        8.716      859.341
04/12/2013  00:52:00      -91.374       -8.009       -7.099       17.499       16.521       11.358      306.209      272.957      129.003        0.459        0.035       91.725        7.611        0.007      337.065        8.788      859.331
04/12/2013  00:53:00      -97.761      -18.829      -13.703       38.376       19.728       10.883     1472.743      389.179      118.439        0.604        0.099       99.558        6.446        0.004      336.967        8.623      859.316
04/12/2013  00:54:00     -110.902      -23.352      -10.374       31.027       23.999       15.855      962.682      575.944      251.387        0.737        0.090      113.334       14.821        0.017      336.918        8.540      859.306
04/12/2013  00:55:00     -122.442      -24.004      -13.476       17.693       24.229       14.139      313.031      587.027      199.909        0.842        0.055      124.772       12.106        0.009      336.894        8.500      859.288
04/12/2013  00:56:00     -152.364      -22.291      -20.245       42.927       26.984       20.597     1842.770      728.118      424.239        1.356        0.150      153.986       20.253        0.017      336.864        8.450      859.274
04/12/2013  00:57:00     -141.124       19.204      -17.513       27.041       34.150       19.735      731.199     1166.213      389.451        1.144        0.114      142.425       19.162        0.018      336.829        8.395      859.253
04/12/2013  00:58:00     -107.048      -38.914      -11.632       47.028       43.908       26.986     2211.674     1927.927      728.224        0.899        0.243      113.901       13.552        0.014      336.885        8.486      859.234
04/12/2013  00:59:00     -193.673       15.378      -26.080       37.388       35.337       24.041     1397.890     1248.701      577.969        2.082        0.161      194.283       21.076        0.012      336.712        8.196      859.225
04/12/2013  01:00:00     -110.424        0.238       -1.026       52.419       38.872       29.556     2747.791     1511.040      873.555        0.866        0.257      110.424       29.528        0.072      336.584        7.984      859.227
04/12/2013  01:01:00     -132.599        9.734       -9.457       44.799       38.573       31.961     2006.975     1487.884     1021.483        1.114        0.226      132.956       20.489        0.024      336.625        8.054      859.225
04/12/2013  01:02:00     -142.895       26.816      -16.068       49.140       38.616       26.530     2414.704     1491.217      703.823        1.300        0.230      145.390       22.386        0.024      336.594        8.002      859.220
04/12/2013  01:03:00     -191.418       23.659      -20.614       59.651       39.162       26.035     3558.188     1533.634      677.811        2.170        0.288      192.875       23.091        0.014      336.469        7.789      859.216
04/12/2013  01:04:00     -148.991        1.764      -15.187       47.719       45.210       26.835     2277.113     2043.958      720.129        1.374        0.252      149.001       24.606        0.027      336.415        7.700      859.221
04/12/2013  01:05:00     -155.948       32.535      -26.083       55.261       55.784       28.674     3053.776     3111.897      822.195        1.652        0.349      159.306       26.736        0.028      336.502        7.845      859.215
04/12/2013  01:06:00     -116.679       -5.330       -2.780       66.135       43.070       28.830     4373.822     1855.005      831.165        1.035        0.353      116.801       29.831        0.065      336.353        7.596      859.211
04/12/2013  01:07:00     -105.736      -24.882       -0.218       57.353       50.336       28.920     3289.350     2533.726      836.341        0.923        0.333      108.624       29.532        0.074      336.365        7.618      859.201
04/12/2013  01:08:00     -105.979      -25.769      -14.572       35.478       33.914       24.223     1258.724     1150.137      586.745        0.755        0.150      109.067       14.005        0.016      336.449        7.759      859.202
04/12/2013  01:09:00     -101.508       17.961      -14.814       34.656       37.938       28.214     1201.070     1439.287      796.041        0.714        0.172      103.085       18.364        0.032      336.458        7.773      859.200
04/12/2013  01:10:00     -100.413       -3.628      -19.963       52.865       43.000       25.613     2794.739     1848.973      656.034        0.790        0.265      100.478       18.060        0.032      336.393        7.663      859.198
04/12/2013  01:11:00     -115.914       -1.087      -22.761       56.091       45.146       28.061     3146.210     2038.142      787.419        0.996        0.299      115.919       17.264        0.022      336.413        7.698      859.210
04/12/2013  01:12:00     -125.868      -10.603      -22.635       43.618       61.825       29.843     1902.506     3822.291      890.608        1.154        0.331      126.314       24.537        0.038      336.441        7.743      859.206
04/12/2013  01:13:00      -95.470       11.457       -4.595       45.721       35.813       25.848     2090.419     1282.601      668.106        0.665        0.202       96.155       17.326        0.032      336.387        7.654      859.196
04/12/2013  01:14:00     -102.473      -44.432        3.339       43.787       42.675       27.638     1917.268     1821.150      763.884        0.849        0.225      111.691       21.876        0.038      336.264        7.449      859.196
04/12/2013  01:15:00     -149.217      -71.195      -15.022       44.372       40.329       27.925     1968.872     1626.407      779.788        1.597        0.219      165.331       22.449        0.018      336.256        7.435      859.165
04/12/2013  01:16:00     -179.766      -53.412      -14.058       39.141       46.556       25.469     1532.032     2167.418      648.667        1.986        0.217      187.533       18.736        0.010      336.231        7.392      859.150
04/12/2013  01:17:00     -193.753      -36.993       -9.497       43.589       43.109       31.340     1899.966     1858.406      982.191        2.187        0.237      197.253       26.516        0.018      336.210        7.356      859.127
04/12/2013  01:18:00     -120.853      -46.852       -7.760       46.160       42.265       29.317     2130.763     1786.332      859.489        1.082        0.239      129.617       19.351        0.022      336.244        7.414      859.107
04/12/2013  01:19:00     -107.007      -42.774       -6.778       72.567       35.626       33.326     5265.941     1269.244     1110.655        1.048        0.382      115.240       38.050        0.109      336.190        7.324      859.099
04/12/2013  01:20:00      -56.662      -36.633       -7.783       57.509       28.601       27.408     3307.302      818.027      751.190        0.474        0.244       67.473       26.617        0.156      336.193        7.331      859.089
04/12/2013  01:21:00      -28.349      -26.310      -14.736       54.656       25.563       20.800     2987.265      653.491      432.643        0.289        0.204       38.677        6.119        0.025      336.222        7.378      859.079
04/12/2013  01:22:00      -35.995      -10.683      -10.214       35.119       22.942       16.929     1233.354      526.327      286.594        0.178        0.102       37.547       15.059        0.161      336.130        7.224      859.091
04/12/2013  01:23:00      -81.243      -38.733       -3.703       36.960       22.517       13.001     1366.018      506.998      169.024        0.508        0.102       90.004       11.250        0.016      336.119        7.207      859.090
04/12/2013  01:24:00      -72.426      -29.709       -1.567       24.564       18.369       17.121      603.378      337.404      293.126        0.368        0.062       78.282       15.296        0.038      336.035        7.066      859.093
04/12/2013  01:25:00      -53.395      -42.306       -6.163       26.940       16.323       11.747      725.788      266.426      137.998        0.290        0.057       68.124       12.722        0.035      336.125        7.216      859.097
04/12/2013  01:26:00      -29.296      -31.280       -5.263       11.666       18.738        9.694      136.102      351.128       93.973        0.122        0.029       42.857        9.027        0.044      336.179        7.307      859.099
04/12/2013  01:27:00      -28.181       -1.971       -3.710        9.507       10.239        9.734       90.385      104.832       94.748        0.055        0.014       28.250        6.476        0.053      336.193        7.330      859.109
04/12/2013  01:28:00      -38.663      -15.912       -5.399       15.979       11.593        9.099      255.339      134.400       82.800        0.112        0.024       41.810        3.609        0.007      336.223        7.382      859.100
04/12/2013  01:29:00      -68.158      -22.596       -7.806       11.881       16.005       10.487      141.165      256.173      109.978        0.286        0.025       71.806        6.631        0.009      336.246        7.419      859.088
04/12/2013  01:30:00      -68.836      -19.914       -8.661       10.163       13.768        9.048      103.282      189.563       81.872        0.279        0.019       71.659        4.335        0.004      336.280        7.474      859.096
04/12/2013  01:31:00      -68.191      -14.777      -10.690       17.305        9.306        9.945      299.476       86.603       98.897        0.273        0.024       69.774        4.284        0.004      336.251        7.427      859.103
04/12/2013  01:32:00      -34.520       -7.087       -3.413       10.804        9.985        9.084      116.716       99.695       82.521        0.078        0.015       35.240        4.044        0.013      336.261        7.442      859.120
04/12/2013  01:33:00      -42.430       -9.421       -4.285        8.478       11.830        6.185       71.882      139.959       38.249        0.108        0.013       43.463        5.214        0.014      336.254        7.434      859.139
04/12/2013  01:34:00      -57.008        2.087       -4.791       12.573       12.757        7.040      158.076      162.754       49.559        0.182        0.019       57.047        6.142        0.012      336.233        7.398      859.139
04/12/2013  01:35:00      -57.872      -11.139       -5.554       20.715       14.839        9.478      429.131      220.197       89.831        0.212        0.037       58.934        7.989        0.018      336.223        7.379      859.144
04/12/2013  01:36:00      -58.604      -29.802       -6.684       22.711       12.914        9.818      515.779      166.776       96.395        0.257        0.039       65.747        9.024        0.019      336.195        7.334      859.144
04/12/2013  01:37:00      -32.077      -14.141       -1.066       17.762       14.609        9.527      315.494      213.411       90.760        0.092        0.031       35.055        8.914        0.065      336.213        7.363      859.140
04/12/2013  01:38:00      -46.366       -1.207       -5.059       14.732        7.685        9.056      217.029       59.067       82.016        0.127        0.018       46.382        6.872        0.022      336.218        7.372      859.137
04/12/2013  01:39:00      -68.235       -2.747       -8.681       12.805       10.771        8.209      163.979      116.020       67.389        0.254        0.017       68.290        4.015        0.003      336.237        7.402      859.132
04/12/2013  01:40:00      -77.972       -1.885       -8.739       17.225       10.579       10.800      296.715      111.917      116.650        0.334        0.026       77.995        5.498        0.005      336.211        7.360      859.130
04/12/2013  01:41:00      -64.797       -9.731      -14.642       13.150        9.588        9.909      172.934       91.938       98.184        0.244        0.018       65.524        5.070        0.006      336.170        7.293      859.136
04/12/2013  01:42:00      -65.254      -19.553      -13.970       11.799       11.453        9.437      139.214      131.162       89.060        0.260        0.018       68.120        2.570        0.001      336.142        7.245      859.135
04/12/2013  01:43:00      -72.505       -8.704      -14.288        9.658       12.386       11.444       93.270      153.401      130.972        0.296        0.019       73.026        5.878        0.006      336.052        7.095      859.132
04/12/2013  01:44:00      -65.040      -17.836       -8.200       16.017       14.354       12.517      256.548      206.040      156.685        0.262        0.031       67.441        8.100        0.014      335.931        6.892      859.147
04/12/2013  01:45:00      -88.048       -6.159      -12.957       15.800       14.893       10.829      249.644      221.810      117.265        0.427        0.029       88.263        6.393        0.005      335.881        6.811      859.165
04/12/2013  01:46:00      -90.785       -9.280      -10.771       16.433       18.415       15.824      270.050      339.113      250.400        0.465        0.043       91.258        6.185        0.005      335.856        6.767      859.169
04/12/2013  01:47:00      -79.904       -1.222      -13.992       14.506       12.039       11.147      210.421      144.938      124.246        0.353        0.024       79.913        8.750        0.012      335.829        6.723      859.178
04/12/2013  01:48:00      -70.325      -16.979      -11.611       14.073       12.480       10.962      198.043      155.741      120.167        0.292        0.024       72.346        4.522        0.004      335.863        6.781      859.187
04/12/2013  01:49:00      -66.630      -22.046      -13.567       12.694       12.069        9.735      161.133      145.656       94.765        0.276        0.020       70.182        5.810        0.007      335.891        6.826      859.202
04/12/2013  01:50:00      -42.550      -32.653      -10.312       17.665       18.370        8.507      312.065      337.453       72.371        0.185        0.036       53.635        5.657        0.011      335.922        6.879      859.217
04/12/2013  01:51:00      -54.733      -13.945      -10.349       11.367       14.177       10.055      129.208      200.995      101.106        0.186        0.022       56.482        7.312        0.017      335.975        6.966      859.211
04/12/2013  01:52:00      -58.137       -8.998       -4.272       15.912       12.993        9.022      253.182      168.807       81.389        0.199        0.025       58.830        4.023        0.005      336.048        7.088      859.213
04/12/2013  01:53:00      -58.520        0.909      -10.720       13.482       11.784        8.407      181.763      138.872       70.682        0.197        0.020       58.527        2.785        0.002      335.996        7.000      859.222
04/12/2013  01:54:00      -39.168       -6.663       -2.474        9.085        9.765        9.832       82.544       95.349       96.659        0.093        0.014       39.731        4.135        0.011      336.065        7.116      859.225
04/12/2013  01:55:00       -9.635       -2.156        0.959       11.978       10.799        7.136      143.484      116.617       50.923        0.020        0.016        9.873        6.776        0.471      336.085        7.149      859.225
04/12/2013  01:56:00       11.748       15.049       -0.785        9.963       10.261        8.207       99.264      105.297       67.350        0.032        0.014       19.092        7.284        0.146      336.133        7.228      859.237
04/12/2013  01:57:00       22.384       14.371        6.127        7.770       10.656        9.874       60.369      113.550       97.503        0.051        0.014       26.600        7.525        0.080      336.183        7.312      859.251
04/12/2013  01:58:00        5.996        7.036        2.209       12.682        6.884        7.317      160.844       47.384       53.536        0.018        0.013        9.244        4.104        0.197      336.126        7.218      859.248
04/12/2013  01:59:00        3.346        3.229        1.451        7.571        6.183        7.435       57.324       38.234       55.277        0.009        0.008        4.649        3.990        0.736      336.067        7.118      859.228
04/12/2013  02:00:00      -15.290       -0.469       -1.490       15.673        9.235        8.919      245.656       85.277       79.546        0.032        0.021       15.297        5.496        0.129      336.121        7.210      859.218
04/12/2013  02:01:00      -20.419      -21.114       -2.679        9.970       11.321        7.673       99.400      128.173       58.871        0.058        0.014       29.372        3.470        0.014      336.162        7.278      859.209
04/12/2013  02:02:00        4.855       -1.648        3.931        9.961       14.795        8.498       99.213      218.892       72.212        0.022        0.020        5.127        4.522        0.778      336.210        7.359      859.197
04/12/2013  02:03:00      -13.891        4.457        1.496       10.436       15.476        6.540      108.911      239.498       42.773        0.030        0.020       14.589        4.999        0.117      336.219        7.374      859.194
04/12/2013  02:04:00        4.208        6.795       -1.028       17.652       17.363        9.126      311.608      301.464       83.284        0.038        0.035        7.993        7.612        0.907      336.268        7.455      859.210
04/12/2013  02:05:00        9.491        6.805        7.793       10.199        9.023        7.237      104.017       81.414       52.373        0.022        0.012       11.678        4.997        0.183      336.206        7.352      859.221
04/12/2013  02:06:00       15.397        6.592        8.308       10.561        8.157        9.544      111.538       66.542       91.097        0.031        0.013       16.749        5.820        0.121      336.107        7.186      859.228
04/12/2013  02:07:00       33.620        9.632       -3.865        8.632        9.939        7.033       74.509       98.789       49.461        0.073        0.011       34.972        3.200        0.008      336.122        7.212      859.227
04/12/2013  02:08:00       45.155       28.236        0.196        8.198        7.263        7.012       67.211       52.754       49.164        0.150        0.008       53.256        4.407        0.007      336.181        7.310      859.221
04/12/2013  02:09:00       56.814       40.409       -8.610       11.335       10.713       10.822      128.483      114.771      117.123        0.265        0.018       69.719        6.811        0.010      336.329        7.557      859.218
04/12/2013  02:10:00       48.113       36.251       -5.582       10.512       10.013        9.936      110.495      100.256       98.718        0.198        0.015       60.241        3.616        0.004      336.313        7.532      859.212
04/12/2013  02:11:00       44.596       31.743       -9.250       13.749       13.409        9.764      189.045      179.800       95.328        0.177        0.023       54.739        5.089        0.009      336.320        7.543      859.201
04/12/2013  02:12:00       22.409       24.780        7.290       13.714        9.795       11.995      188.067       95.935      143.870        0.080        0.021       33.410        7.004        0.044      336.286        7.488      859.179
04/12/2013  02:13:00       20.925       25.403        0.743        8.806        6.761        7.146       77.542       45.706       51.062        0.063        0.009       32.912        3.027        0.008      336.246        7.417      859.168
04/12/2013  02:14:00       25.349       32.643       -1.439        9.488        7.175        5.621       90.015       51.482       31.592        0.094        0.009       41.330        5.261        0.016      336.249        7.425      859.162
04/12/2013  02:15:00       24.749       20.753        0.485       10.582        8.361        7.954      111.985       69.906       63.262        0.064        0.012       32.299        4.543        0.020      336.221        7.376      859.153
04/12/2013  02:16:00        7.102        9.910       -0.989       11.752        7.529        4.931      138.102       56.688       24.314        0.018        0.011       12.192        4.391        0.130      336.206        7.350      859.143
04/12/2013  02:17:00       -4.520       -4.790       -5.224        5.272        5.202        3.732       27.793       27.063       13.925        0.007        0.003        6.586        1.455        0.049      336.144        7.250      859.133
04/12/2013  02:18:00      -32.633      -13.112      -11.459       11.407        6.353        7.596      130.129       40.359       57.702        0.080        0.011       35.169        4.827        0.019      336.067        7.121      859.129
04/12/2013  02:19:00      -48.955       -8.614      -10.848       22.419       11.215       11.111      502.627      125.775      123.444        0.167        0.038       49.707        9.546        0.037      335.945        6.916      859.133
04/12/2013  02:20:00      -67.006       -6.300       -7.134       17.428       12.664        9.350      303.736      160.368       87.423        0.257        0.028       67.302        7.089        0.011      335.894        6.832      859.129
04/12/2013  02:21:00      -87.250      -12.706      -15.464       10.947       12.983        8.282      119.835      168.551       68.596        0.419        0.018       88.171        6.386        0.005      335.814        6.700      859.122
04/12/2013  02:22:00     -108.912        1.054      -14.438       17.992       14.284        9.715      323.704      204.024       94.381        0.635        0.031      108.918        4.827        0.002      335.769        6.622      859.121
04/12/2013  02:23:00     -134.497       -6.137      -24.537       15.200       22.742       12.843      231.025      517.187      164.940        0.982        0.046      134.637        8.887        0.004      335.647        6.420      859.121
04/12/2013  02:24:00     -111.503      -29.091      -14.885       18.125       12.943       14.157      328.504      167.512      200.408        0.710        0.035      115.236        9.510        0.007      335.602        6.346      859.114
04/12/2013  02:25:00     -138.532      -26.949      -21.656       19.493       12.392       12.188      379.959      153.554      148.556        1.053        0.034      141.128        7.277        0.003      335.519        6.207      859.096
04/12/2013  02:26:00     -122.443      -49.628       -4.344       21.647       29.246       17.206      468.579      855.305      296.032        0.955        0.081      132.118       11.888        0.008      335.487        6.153      859.075
04/12/2013  02:27:00     -132.573      -27.144      -16.755       20.891       21.860       15.858      436.414      477.868      251.487        0.988        0.058      135.323        8.450        0.004      335.387        5.986      859.066
04/12/2013  02:28:00     -125.748      -33.803      -15.634       20.462       21.686       14.474      418.678      470.270      209.485        0.915        0.055      130.212        9.296        0.005      335.455        6.101      859.037
04/12/2013  02:29:00     -111.207      -33.169       -8.076       30.605       23.788       19.883      936.662      565.853      395.318        0.771        0.095      116.048       17.527        0.023      335.437        6.069      859.020
04/12/2013  02:30:00      -98.251      -20.603      -12.278       40.636       32.235       18.488     1651.276     1039.088      341.809        0.663        0.152      100.388       13.219        0.017      335.384        5.981      859.012
04/12/2013  02:31:00     -123.682        9.789      -14.481       51.565       35.759       29.019     2658.933     1278.680      842.106        1.019        0.239      124.069       29.663        0.057      335.364        5.947      859.015
04/12/2013  02:32:00     -119.606       -7.869       -5.589       38.961       32.523       24.066     1517.994     1057.742      579.160        0.878        0.158      119.865       23.326        0.038      335.376        5.969      859.012
04/12/2013  02:33:00     -138.297       -9.449       -3.129       51.363       42.817       30.768     2638.194     1833.288      946.701        1.232        0.271      138.620       30.277        0.048      335.311        5.860      859.004
04/12/2013  02:34:00     -182.765       35.953      -12.048       56.820       31.571       25.811     3228.519      996.731      666.227        1.987        0.245      186.268       27.389        0.022      335.441        6.074      858.993
04/12/2013  02:35:00     -163.173       18.533      -18.168       45.692       40.532       23.132     2087.781     1642.845      535.083        1.578        0.213      164.223       22.697        0.019      335.355        5.933      858.988
04/12/2013  02:36:00     -134.554       -3.791      -16.273       52.102       46.166       28.950     2714.607     2131.282      838.101        1.203        0.284      134.607       21.756        0.026      335.390        5.990      858.978
04/12/2013  02:37:00     -106.074      -32.777       -2.150       35.238       36.901       22.270     1241.733     1361.706      495.942        0.771        0.155      111.023       18.505        0.028      335.413        6.030      858.974
04/12/2013  02:38:00     -128.227      -22.803      -10.202       25.063       25.863       21.716      628.162      668.890      471.588        0.942        0.088      130.239       14.625        0.013      335.455        6.100      858.977
04/12/2013  02:39:00     -112.284       -8.577       -9.948       40.153       28.814       21.180     1612.271      830.246      448.592        0.784        0.145      112.611       22.674        0.041      335.408        6.021      858.968
04/12/2013  02:40:00     -105.141       12.811      -11.851       38.636       24.642       16.349     1492.770      607.244      267.298        0.686        0.118      105.919       10.904        0.011      335.396        6.001      858.968
04/12/2013  02:41:00      -62.550      -10.390      -13.267       38.239       23.612       13.429     1462.203      557.536      180.335        0.320        0.110       63.407       15.588        0.060      335.421        6.044      858.973
04/12/2013  02:42:00      -57.597       -1.247      -10.586       29.710       26.846       21.020      882.694      720.693      441.838        0.274        0.102       57.610       15.142        0.069      335.342        5.910      858.960
04/12/2013  02:43:00      -67.671       10.152       -9.573       36.499       27.052       18.784     1332.187      731.833      352.834        0.360        0.121       68.428       19.318        0.080      335.446        6.084      858.954
04/12/2013  02:44:00      -46.411       -2.094       -7.765       41.091       28.865       19.599     1688.432      833.202      384.131        0.256        0.145       46.458       21.734        0.219      335.514        6.199      858.959
04/12/2013  02:45:00      -53.866      -10.893       -5.353       19.841       19.495       12.480      393.680      380.041      155.756        0.199        0.046       54.957       12.140        0.049      335.556        6.268      858.954
04/12/2013  02:46:00      -34.013      -16.349       -1.204       19.012       14.884       13.153      361.443      221.533      173.000        0.109        0.038       37.738        4.785        0.016      335.745        6.584      858.947
04/12/2013  02:47:00      -53.722       36.919      -10.799       20.610       37.809       14.837      424.774     1429.523      220.142        0.322        0.104       65.184       10.048        0.024      335.847        6.754      858.949
04/12/2013  02:48:00      -62.134       40.919      -13.640       23.006       20.436       11.757      529.284      417.610      138.233        0.340        0.054       74.398        6.700        0.008      336.062        7.112      858.943
04/12/2013  02:49:00      -49.563       23.858      -10.080       25.304       26.750       16.932      640.296      715.537      286.695        0.238        0.082       55.007       17.557        0.102      335.937        6.903      858.950
04/12/2013  02:50:00      -50.471       -4.187       -6.172       20.687       29.127       16.457      427.968      848.402      270.836        0.207        0.077       50.644       17.634        0.121      335.905        6.849      858.961
04/12/2013  02:51:00      -59.202      -19.940      -11.405       11.408       12.825        7.861      130.145      164.478       61.793        0.219        0.018       62.470        6.606        0.011      335.790        6.658      858.965
04/12/2013  02:52:00      -86.144      -33.783      -15.963       13.984       13.011        7.305      195.538      169.287       53.367        0.462        0.021       92.532        2.902        0.001      335.632        6.395      858.973
04/12/2013  02:53:00     -105.487      -41.573       -8.663       11.148        8.845        8.278      124.285       78.233       68.518        0.660        0.014      113.383        5.765        0.003      335.617        6.370      858.988
04/12/2013  02:54:00      -81.447      -43.893       -7.147       25.542       12.963       14.330      652.405      168.040      205.355        0.482        0.051       92.522       15.469        0.028      335.546        6.252      859.014
04/12/2013  02:55:00      -69.971      -43.406       -0.152       26.625       20.084       18.130      708.884      403.371      328.689        0.411        0.072       82.341       19.428        0.056      335.540        6.242      859.035
04/12/2013  02:56:00      -61.441      -38.572       -6.409       22.743       23.662       14.305      517.248      559.890      204.641        0.329        0.064       72.545       12.668        0.030      335.657        6.436      859.071
04/12/2013  02:57:00      -45.787      -29.612        2.393       26.727       15.223       12.754      714.325      231.744      162.672        0.204        0.055       54.528       14.316        0.069      335.686        6.486      859.104
04/12/2013  02:58:00      -32.476      -42.874       -4.061       17.309       29.724       16.022      299.600      883.521      256.704        0.217        0.072       53.785       12.010        0.050      335.777        6.638      859.115
04/12/2013  02:59:00      -33.382      -35.606        2.163       29.148       19.988       15.692      849.591      399.527      246.228        0.194        0.075       48.807       10.441        0.046      335.746        6.586      859.133
04/12/2013  03:00:00      -42.873      -37.199       -2.840       32.886       20.797       20.191     1081.512      432.496      407.688        0.258        0.096       56.761       16.472        0.084      335.770        6.626      859.132
04/12/2013  03:01:00      -50.060      -40.103        2.905       33.069       18.836       18.156     1093.526      354.777      329.641        0.295        0.089       64.142       13.913        0.047      335.737        6.571      859.124
04/12/2013  03:02:00      -60.927      -38.628        3.089       35.730       25.027       25.020     1276.662      626.347      626.023        0.387        0.126       72.140       21.206        0.086      335.634        6.399      859.118
04/12/2013  03:03:00      -53.944      -60.094        1.280       39.591       26.829       17.327     1567.474      719.800      300.225        0.455        0.129       80.754       13.735        0.029      335.602        6.345      859.120
04/12/2013  03:04:00     -102.322      -66.290       -4.977       31.874       35.816       22.392     1015.942     1282.774      501.412        0.884        0.140      121.918       12.824        0.011      335.524        6.214      859.122
04/12/2013  03:05:00     -125.293      -90.350       -6.660       40.090       39.951       21.080     1607.226     1596.098      444.387        1.378        0.182      154.472       14.901        0.009      335.489        6.157      859.129
04/12/2013  03:06:00      -76.032      -52.809        8.783       44.989       40.192       27.437     2024.043     1615.408      752.777        0.652        0.220       92.572       26.183        0.080      335.428        6.054      859.128
04/12/2013  03:07:00      -76.705      -47.227        6.882       36.918       29.710       23.945     1362.926      882.702      573.382        0.549        0.141       90.078       18.014        0.040      335.424        6.049      859.125
04/12/2013  03:08:00      -73.713      -61.529        4.254       44.983       34.391       19.276     2023.466     1182.722      371.557        0.641        0.179       96.018       20.181        0.044      335.442        6.077      859.124
04/12/2013  03:09:00      -50.419      -58.479        2.906       45.460       33.046       21.104     2066.621     1092.018      445.367        0.479        0.180       77.213       23.773        0.095      335.412        6.027      859.133
04/12/2013  03:10:00     -114.680      -79.708       -3.026       48.306       27.490       24.433     2333.455      755.722      596.958        1.160        0.184      139.660       25.552        0.033      335.406        6.018      859.133
04/12/2013  03:11:00     -103.176      -68.827       -2.749       37.775       41.584       20.876     1426.946     1729.219      435.801        0.949        0.180      124.026       13.077        0.011      335.359        5.940      859.118
04/12/2013  03:12:00     -110.648      -77.606       -5.243       42.601       45.573       28.144     1814.858     2076.921      792.099        1.149        0.234      135.151       21.418        0.025      335.378        5.973      859.096
04/12/2013  03:13:00     -117.038      -81.424       -3.044       56.312       35.046       31.271     3170.986     1228.209      977.845        1.286        0.269      142.576       38.675        0.074      335.364        5.948      859.080
04/12/2013  03:14:00     -142.323      -80.172        8.860       52.448       46.698       31.636     2750.820     2180.704     1000.857        1.635        0.297      163.351       27.617        0.029      335.374        5.964      859.063
04/12/2013  03:15:00     -111.795      -67.301        4.284       71.256       42.325       29.880     5077.366     1791.421      892.816        1.240        0.388      130.489       34.439        0.070      335.408        6.021      859.047
04/12/2013  03:16:00     -149.312     -126.691      -15.276       53.084       44.883       25.396     2817.894     2014.440      644.958        2.203        0.274      195.818       22.603        0.013      335.414        6.030      859.038
04/12/2013  03:17:00     -158.519     -114.043       -5.424       42.111       37.858       29.032     1773.315     1433.202      842.839        2.111        0.202      195.280       27.556        0.020      335.392        5.993      859.049
04/12/2013  03:18:00      -93.532      -61.425        2.772       50.078       34.812       30.556     2507.824     1211.854      933.659        0.859        0.233      111.898       28.473        0.065      335.355        5.933      859.070
04/12/2013  03:19:00     -122.647      -87.413       -0.922       47.117       39.277       28.286     2219.990     1542.648      800.107        1.362        0.228      150.610       24.109        0.026      335.413        6.028      859.085
04/12/2013  03:20:00      -91.324      -82.171        1.784       49.297       38.044       32.167     2430.194     1447.329     1034.688        1.000        0.246      122.850       23.489        0.037      335.417        6.035      859.093
04/12/2013  03:21:00      -72.099      -65.333        6.064       63.991       48.002       29.966     4094.859     2304.237      897.977        0.840        0.365       97.297       31.486        0.105      335.361        5.944      859.101
04/12/2013  03:22:00     -123.123      -76.493       -4.525       62.789       39.924       33.075     3942.510     1593.956     1093.968        1.383        0.332      144.950       33.472        0.053      335.393        5.997      859.115
04/12/2013  03:23:00      -65.824      -67.783        4.358       42.316       39.252       24.537     1790.666     1540.690      602.086        0.644        0.197       94.485       23.224        0.060      335.392        5.994      859.129
04/12/2013  03:24:00      -91.231      -84.973       -5.392       35.703       33.028       25.217     1274.694     1090.882      635.901        0.929        0.150      124.674       20.493        0.027      335.370        5.958      859.150
04/12/2013  03:25:00     -101.020      -68.584        0.194       39.696       31.629       22.121     1575.774     1000.400      489.359        0.899        0.153      122.102       21.365        0.031      335.356        5.934      859.158
04/12/2013  03:26:00     -107.150      -56.063      -12.944       25.406       26.655       17.053      645.484      710.483      290.805        0.822        0.082      120.930       11.615        0.009      335.399        6.006      859.182
04/12/2013  03:27:00     -102.092      -32.410        1.989       49.077       34.856       21.157     2408.593     1214.942      447.608        0.777        0.204      107.113       22.602        0.045      335.235        5.732      859.198
04/12/2013  03:28:00     -121.078      -30.097       -5.238       50.184       36.940       24.681     2518.467     1364.531      609.160        1.004        0.225      124.762       27.134        0.047      335.218        5.705      859.200
04/12/2013  03:29:00      -73.248      -52.126        0.782       38.484       24.380       18.703     1481.001      594.384      349.793        0.525        0.121       89.902       16.929        0.035      335.258        5.771      859.213
04/12/2013  03:30:00      -63.872      -58.991       -4.962       35.208       23.652       21.361     1239.596      559.422      456.305        0.492        0.113       86.946       18.981        0.048      335.278        5.805      859.230
04/12/2013  03:31:00      -96.417      -51.843        0.646       52.654       26.615       23.214     2772.457      708.355      538.884        0.800        0.201      109.472       28.861        0.070      335.210        5.691      859.239
04/12/2013  03:32:00     -114.116      -69.117      -10.388       33.171       21.341       17.112     1100.314      455.440      292.809        0.988        0.092      133.415       13.433        0.010      335.215        5.700      859.250
04/12/2013  03:33:00      -79.530      -73.959       -5.327       36.646       27.480       13.717     1342.901      755.146      188.156        0.705        0.114      108.605       10.780        0.010      335.235        5.733      859.261
04/12/2013  03:34:00      -88.897      -44.630       -5.532       20.389       16.224       16.153      415.718      263.212      260.928        0.543        0.047       99.471       10.680        0.012      335.168        5.621      859.274
04/12/2013  03:35:00      -65.102      -25.147       -9.276       18.503       13.728        7.881      342.344      188.469       62.105        0.277        0.030       69.790        4.903        0.005      335.235        5.734      859.271
04/12/2013  03:36:00     -127.756      -12.236       -9.238       27.892       32.724       21.127      777.991     1070.846      446.334        0.943        0.115      128.341       14.033        0.012      335.179        5.640      859.272
04/12/2013  03:37:00     -114.430       -1.625       -5.669       51.858       38.483       26.211     2689.217     1480.937      687.009        0.899        0.243      114.442       27.170        0.056      334.957        5.273      859.277
04/12/2013  03:38:00      -94.941       -8.710       -4.107       44.002       26.821       22.834     1936.169      719.391      521.409        0.614        0.159       95.340       24.473        0.066      334.881        5.145      859.267
04/12/2013  03:39:00     -107.958      -23.883      -12.577       19.772       22.595       13.900      390.917      510.523      193.198        0.674        0.055      110.568        6.106        0.003      334.994        5.333      859.263
04/12/2013  03:40:00     -115.428      -19.437       -9.722       25.913       19.399       16.574      671.485      376.316      274.686        0.756        0.066      117.053       16.300        0.019      335.011        5.363      859.263
04/12/2013  03:41:00     -103.894      -17.902       -8.282       21.451       23.586       15.184      460.149      556.288      230.539        0.621        0.062      105.425        9.672        0.008      335.079        5.474      859.248
04/12/2013  03:42:00     -100.793      -18.936       -8.871       35.207       21.999       14.894     1239.503      483.973      221.831        0.627        0.097      102.556       15.217        0.022      334.917        5.204      859.233
04/12/2013  03:43:00      -73.717       -6.067       -1.820       27.005       19.209       15.092      729.273      369.003      227.771        0.340        0.066       73.966       14.988        0.041      334.879        5.142      859.229
04/12/2013  03:44:00      -84.207      -40.557       -6.196       16.285       21.003       10.265      265.205      441.112      105.370        0.479        0.041       93.465        6.549        0.005      335.081        5.479      859.218
04/12/2013  03:45:00      -62.835      -42.405       -6.155       25.502       17.828       15.267      650.356      317.827      233.069        0.349        0.060       75.805        9.696        0.016      335.154        5.601      859.198
04/12/2013  03:46:00      -60.829      -27.698       -3.634       29.460       11.390       11.670      867.919      129.724      136.195        0.281        0.057       66.838       14.970        0.050      335.147        5.588      859.168
04/12/2013  03:47:00      -49.927      -22.039        6.248       32.155       14.421       16.428     1033.965      207.957      269.863        0.226        0.076       54.575       19.665        0.130      335.149        5.592      859.140
04/12/2013  03:48:00      -16.570      -22.717        7.703       20.443       16.531       12.966      417.909      273.288      168.129        0.085        0.043       28.118        3.419        0.015      335.196        5.668      859.102
04/12/2013  03:49:00      -15.203      -22.075        5.742       22.694       14.459       15.598      514.999      209.057      243.311        0.086        0.048       26.804       15.297        0.326      335.197        5.670      859.065
04/12/2013  03:50:00      -14.690      -23.873        7.660       18.991       16.029       15.535      360.659      256.915      241.331        0.085        0.043       28.030       12.448        0.197      335.284        5.814      859.047
04/12/2013  03:51:00       -0.173      -24.919        6.529       19.711       19.126       19.696      388.524      365.801      387.935        0.090        0.057       24.920        9.823        0.155      335.288        5.822      859.054
04/12/2013  03:52:00      -25.052      -25.403        7.906       25.268       21.708       13.633      638.492      471.226      185.853        0.132        0.065       35.678        9.554        0.072      335.244        5.748      859.057
04/12/2013  03:53:00      -37.476      -31.644        0.598       30.180       19.244       13.094      910.824      370.313      171.464        0.193        0.073       49.049        8.451        0.030      335.048        5.424      859.059
04/12/2013  03:54:00      -66.082      -47.927       -1.555       47.393       28.580       20.616     2246.095      816.828      425.029        0.508        0.174       81.632       19.477        0.057      335.004        5.351      859.064
04/12/2013  03:55:00      -56.145      -56.109       14.192       43.076       44.801       24.333     1855.570     2007.136      592.086        0.548        0.223       79.376       19.229        0.059      334.958        5.274      859.065
04/12/2013  03:56:00      -63.665      -35.440        4.630       46.406       34.765       27.523     2153.556     1208.617      757.527        0.472        0.206       72.864       26.046        0.128      334.908        5.192      859.053
04/12/2013  03:57:00      -60.867      -57.563        3.134       61.503       37.738       25.802     3782.560     1424.194      665.756        0.645        0.294       83.776       29.243        0.122      334.894        5.167      859.039
04/12/2013  03:58:00      -85.836      -75.062       -0.634       43.132       38.365       28.994     1860.359     1471.892      840.624        0.859        0.209      114.027       27.073        0.056      334.926        5.221      859.013
04/12/2013  03:59:00      -69.047      -63.140        4.133       52.529       39.529       24.203     2759.335     1562.529      585.798        0.684        0.245       93.563       22.765        0.059      334.892        5.164      858.989
04/12/2013  04:00:00      -62.837      -49.743       -2.311       29.914       23.524       19.608      894.872      553.393      384.455        0.413        0.092       80.142       13.476        0.028      334.909        5.194      858.977
04/12/2013  04:01:00      -67.652      -39.627       -7.489       39.409       29.837       22.008     1553.104      890.272      484.344        0.456        0.146       78.403       21.887        0.078      334.874        5.135      858.972
04/12/2013  04:02:00     -100.098      -40.605       -7.879       19.530       21.876       13.079      381.434      478.550      171.072        0.638        0.052      108.020        6.501        0.004      334.787        4.990      858.969
04/12/2013  04:03:00      -69.036      -45.449        3.595       47.847       29.331       20.839     2289.383      860.308      434.257        0.521        0.179       82.653       21.573        0.068      334.871        5.131      858.971
04/12/2013  04:04:00      -62.738      -65.697       13.778       51.137       30.994       30.458     2615.039      960.618      927.700        0.647        0.225       90.842       30.734        0.114      334.886        5.154      858.976
04/12/2013  04:05:00      -41.396      -59.943        8.666       52.853       39.611       28.107     2793.473     1569.063      790.030        0.527        0.258       72.848       31.555        0.188      334.833        5.067      858.992
04/12/2013  04:06:00      -48.229      -61.976       12.227       55.985       42.579       30.024     3134.275     1813.004      901.445        0.608        0.292       78.530       37.311        0.226      334.800        5.011      858.986
04/12/2013  04:07:00      -79.852      -83.494        3.368       65.410       37.820       31.590     4278.526     1430.346      997.899        1.003        0.335      115.532       35.269        0.093      334.774        4.968      858.984
04/12/2013  04:08:00      -91.872      -87.099       -2.447       33.534       39.898       22.534     1124.524     1591.828      507.798        0.963        0.161      126.596       15.214        0.014      334.702        4.848      858.980
04/12/2013  04:09:00      -92.492      -65.536        0.652       68.886       32.008       25.205     4745.303     1024.525      635.289        0.963        0.320      113.357       23.403        0.043      334.716        4.872      858.984
04/12/2013  04:10:00     -114.387      -97.487      -12.979       50.193       30.340       25.252     2519.355      920.500      637.680        1.342        0.204      150.293       20.187        0.018      334.726        4.888      859.001
04/12/2013  04:11:00     -114.482      -85.963      -10.791       35.229       28.131       22.893     1241.070      791.352      524.090        1.158        0.128      143.163       22.967        0.026      334.705        4.854      859.018
04/12/2013  04:12:00     -108.580      -86.006       -6.089       34.939       37.447       22.729     1220.735     1402.286      516.624        1.118        0.157      138.516       20.051        0.021      334.680        4.811      859.037
04/12/2013  04:13:00      -86.900      -74.455        0.901       38.926       37.322       25.310     1515.225     1392.922      640.589        0.832        0.177      114.434       23.982        0.044      334.714        4.868      859.075
04/12/2013  04:14:00      -94.231      -98.165       -1.012       53.326       40.041       33.056     2843.644     1603.319     1092.698        1.203        0.277      136.073       31.762        0.054      334.631        4.730      859.104
04/12/2013  04:15:00      -71.802      -46.530       -0.719       52.930       35.926       29.340     2801.560     1290.669      860.856        0.614        0.248       85.561       26.752        0.098      334.733        4.899      859.117
04/12/2013  04:16:00      -72.182      -69.164        5.029       50.939       43.693       26.539     2594.754     1909.047      704.296        0.761        0.260       99.970       30.280        0.092      334.668        4.791      859.121
04/12/2013  04:17:00      -51.529      -47.167        8.244       50.725       32.736       27.157     2573.060     1071.648      737.499        0.466        0.219       69.857       28.827        0.170      334.681        4.814      859.120
04/12/2013  04:18:00      -70.773      -73.277        1.174       44.181       32.058       21.773     1951.942     1027.734      474.085        0.692        0.173      101.874       23.546        0.053      334.692        4.832      859.116
04/12/2013  04:19:00      -70.948      -56.684       -0.266       37.703       37.699       21.328     1421.552     1421.247      454.864        0.577        0.165       90.811       22.639        0.062      334.746        4.922      859.106
04/12/2013  04:20:00      -72.028      -44.535       -0.122       36.009       24.369       20.860     1296.679      593.865      435.130        0.475        0.116       84.684       20.625        0.059      334.699        4.843      859.104
04/12/2013  04:21:00      -83.340      -12.090       -4.999       24.160       16.100       16.691      583.690      259.204      278.582        0.412        0.056       84.212       12.290        0.021      334.604        4.686      859.112
04/12/2013  04:22:00     -111.322      -21.696       -8.945       23.787       20.842       16.840      565.840      434.394      283.600        0.711        0.064      113.416       13.044        0.013      334.507        4.525      859.116
04/12/2013  04:23:00     -108.971      -29.537       -4.922       29.464       26.781       19.677      868.105      717.210      387.171        0.737        0.099      112.903       16.341        0.021      334.532        4.566      859.119
04/12/2013  04:24:00     -139.521      -18.846       -7.888       34.887       27.221       22.837     1217.098      740.963      521.529        1.118        0.124      140.788       16.828        0.014      334.471        4.467      859.135
04/12/2013  04:25:00     -127.776       -7.842       -3.365       51.432       30.222       27.115     2645.254      913.396      735.213        1.035        0.215      128.016       29.570        0.053      334.359        4.280      859.148
04/12/2013  04:26:00     -139.534      -22.233       -6.241       40.126       37.004       22.866     1610.061     1369.276      522.846        1.175        0.175      141.294       20.196        0.020      334.309        4.195      859.148
04/12/2013  04:27:00     -128.266      -33.221       -3.032       26.074       34.418       19.215      679.877     1184.586      369.223        0.990        0.112      132.498       11.211        0.007      334.307        4.193      859.144
04/12/2013  04:28:00     -125.703      -48.684        4.857       46.802       34.620       23.140     2190.446     1198.564      535.437        1.106        0.196      134.801       22.632        0.028      334.323        4.221      859.145
04/12/2013  04:29:00     -134.857      -59.203        0.488       46.360       30.255       23.582     2149.239      915.382      556.094        1.266        0.181      147.280       24.334        0.027      334.348        4.261      859.126
04/12/2013  04:30:00     -138.603      -36.025        6.110       39.602       28.726       22.156     1568.350      825.198      490.887        1.171        0.144      143.208       18.253        0.016      334.407        4.360      859.110
04/12/2013  04:31:00     -104.228      -44.904        0.462       39.755       21.650       17.949     1580.464      468.743      322.176        0.763        0.119      113.490       18.524        0.027      334.461        4.448      859.105
04/12/2013  04:32:00     -103.055      -49.796       -1.444       26.314       25.495       17.028      692.405      649.976      289.944        0.737        0.082      114.455       13.952        0.015      334.537        4.574      859.107
04/12/2013  04:33:00     -114.728      -45.847        0.861       33.877       21.215       14.751     1147.643      450.073      217.588        0.854        0.091      123.549       15.386        0.016      334.529        4.561      859.095
04/12/2013  04:34:00     -119.436      -34.008      -11.159       15.731       18.266       11.895      247.464      333.652      141.492        0.813        0.036      124.183        7.683        0.004      334.532        4.566      859.084
04/12/2013  04:35:00     -116.607      -17.695      -14.021       23.327       21.488       17.587      544.137      461.722      309.304        0.771        0.066      117.942       16.005        0.018      334.459        4.445      859.086
04/12/2013  04:36:00     -128.921      -29.062       -8.977       25.729       26.449       18.065      662.003      699.543      326.353        0.962        0.084      132.157       10.165        0.006      334.391        4.333      859.089
04/12/2013  04:37:00     -127.262      -45.955       -7.509       22.208       25.793       15.275      493.192      665.262      233.329        0.988        0.070      135.305       11.217        0.007      334.404        4.354      859.088
04/12/2013  04:38:00     -138.434      -35.129      -10.264       24.489       21.681       13.037      599.692      470.067      169.969        1.087        0.062      142.822        8.117        0.003      334.385        4.323      859.102
04/12/2013  04:39:00     -120.004      -32.826      -11.341       26.050       20.155       18.438      678.598      406.223      339.942        0.852        0.071      124.413       15.607        0.016      334.349        4.263      859.120
04/12/2013  04:40:00     -105.840      -31.944       -2.766       26.027       24.683       19.032      677.408      609.263      362.206        0.694        0.082      110.555       14.556        0.017      334.436        4.409      859.129
04/12/2013  04:41:00     -110.050      -43.207       -7.275       27.300       23.982       17.241      745.280      575.153      297.247        0.782        0.081      118.228       13.392        0.013      334.491        4.499      859.130
04/12/2013  04:42:00     -135.350      -44.813      -11.275       40.170       19.005       15.073     1613.624      361.200      227.201        1.133        0.110      142.576       15.083        0.011      334.506        4.523      859.136
04/12/2013  04:43:00     -114.578      -15.533       -5.756       36.548       21.996       16.395     1335.753      483.820      268.805        0.775        0.104      115.626       15.025        0.017      334.476        4.473      859.138
04/12/2013  04:44:00     -121.320      -26.655       -6.585       29.716       18.339       14.376      883.049      336.315      206.683        0.845        0.071      124.214       10.698        0.007      334.496        4.505      859.125
04/12/2013  04:45:00     -111.734      -40.116       -1.678       25.417       26.455       19.052      646.037      699.879      362.988        0.790        0.085      118.717       17.454        0.022      334.489        4.495      859.126
04/12/2013  04:46:00     -111.575      -36.843       -1.920       29.194       24.582       16.519      852.287      604.282      272.888        0.777        0.086      117.501       15.009        0.016      334.468        4.461      859.133
04/12/2013  04:47:00      -97.505      -54.042        0.045       23.752       21.752       18.406      564.165      473.142      338.765        0.690        0.069      111.479       13.002        0.014      334.528        4.559      859.127
04/12/2013  04:48:00      -75.810      -63.044       -3.390       37.361       32.318       18.643     1395.808     1044.453      347.569        0.626        0.139       98.598       13.452        0.019      334.552        4.599      859.124
04/12/2013  04:49:00      -26.064      -20.866       12.533       41.028       26.558       21.299     1683.289      705.334      453.657        0.206        0.142       33.387       20.617        0.381      334.553        4.602      859.137
04/12/2013  04:50:00      -64.999      -46.255        2.377       44.579       24.498       18.844     1987.325      600.133      355.098        0.466        0.147       79.777       18.023        0.051      334.541        4.582      859.138
04/12/2013  04:51:00      -63.176      -37.723        0.422       35.538       20.573       18.774     1262.945      423.244      352.445        0.373        0.102       73.581       21.017        0.082      334.484        4.488      859.138
04/12/2013  04:52:00      -62.291      -31.511       -6.049       31.867       20.558       15.767     1015.529      422.646      248.585        0.330        0.084       69.807       14.036        0.040      334.485        4.489      859.142
04/12/2013  04:53:00      -94.247      -36.055      -12.762       10.973       14.368        9.667      120.398      206.452       93.443        0.538        0.021      100.908        5.102        0.003      334.417        4.376      859.151
04/12/2013  04:54:00      -33.905      -37.328        8.206       37.101       24.255       21.482     1376.512      588.302      461.459        0.252        0.121       50.427       22.011        0.191      334.435        4.406      859.151
04/12/2013  04:55:00      -51.814      -96.302        0.256       54.875       40.343       28.426     3011.267     1627.591      808.022        0.870        0.272      109.356       35.680        0.106      334.424        4.389      859.159
04/12/2013  04:56:00     -108.245     -106.014       -4.938       52.027       40.399       27.141     2706.850     1632.085      736.630        1.403        0.254      151.512       20.953        0.019      334.442        4.417      859.167
04/12/2013  04:57:00     -101.113      -99.469       -0.766       51.985       55.544       31.610     2702.437     3085.119      999.199        1.345        0.339      141.837       35.193        0.062      334.382        4.317      859.184
04/12/2013  04:58:00     -140.353     -115.036      -17.137       52.447       53.275       29.381     2750.682     2838.259      863.252        1.984        0.323      181.472       26.141        0.021      334.372        4.301      859.186
04/12/2013  04:59:00     -149.422      -84.185       -0.961       66.587       54.960       43.481     4433.793     3020.570     1890.619        1.938        0.467      171.505       36.713        0.046      334.328        4.226      859.170
04/12/2013  05:00:00     -141.636      -60.879        2.281       60.325       54.510       51.373     3639.111     2971.382     2639.186        1.651        0.462      154.165       34.975        0.051      334.353        4.269      859.146
04/12/2013  05:01:00     -127.107     -106.750        5.928       77.042       51.797       38.241     5935.401     2682.969     1462.362        1.883        0.504      165.987       34.948        0.044      334.351        4.264      859.126
04/12/2013  05:02:00     -126.539      -70.729        4.769       51.041       52.757       33.214     2605.157     2783.267     1103.150        1.376        0.325      144.965       29.290        0.041      334.346        4.259      859.115
04/12/2013  05:03:00      -96.952      -50.248        3.519       41.604       34.811       22.449     1730.871     1211.782      503.964        0.769        0.172      109.199       22.226        0.041      334.301        4.184      859.098
04/12/2013  05:04:00      -86.201      -38.948        6.310       47.362       35.014       19.970     2243.188     1226.009      398.800        0.643        0.193       94.591       24.010        0.064      334.350        4.266      859.080
04/12/2013  05:05:00     -104.283      -34.918       -2.424       20.032       24.320       12.252      401.277      591.471      150.104        0.662        0.057      109.974        6.685        0.004      334.394        4.339      859.068
04/12/2013  05:06:00     -112.570      -17.106      -13.191       21.546       25.153       16.275      464.210      632.677      264.873        0.725        0.068      113.862       12.978        0.013      334.406        4.359      859.084
04/12/2013  05:07:00     -109.825      -30.301      -10.513       20.940       23.576       11.261      438.489      555.805      126.802        0.711        0.056      113.928        5.624        0.002      334.389        4.329      859.098
04/12/2013  05:08:00     -108.172       -5.809       -3.151       30.132       22.195       20.906      907.917      492.620      437.071        0.679        0.092      108.328       16.641        0.024      334.264        4.122      859.123
04/12/2013  05:09:00      -90.313      -19.369       -3.520       32.756       17.260       19.292     1072.964      297.915      372.183        0.514        0.087       92.366       21.010        0.052      334.212        4.037      859.142
04/12/2013  05:10:00     -103.732      -18.240       -9.846       24.779       15.519       11.681      614.002      240.848      136.450        0.609        0.050      105.324        8.825        0.007      334.327        4.227      859.160
04/12/2013  05:11:00      -88.926      -22.398       -0.305       23.511       22.921       14.044      552.782      525.356      197.227        0.484        0.064       91.704       11.125        0.015      334.276        4.143      859.175
04/12/2013  05:12:00      -57.272      -55.602       -5.946       28.467       11.740       12.029      810.372      137.819      144.686        0.375        0.055       79.823        8.417        0.011      334.369        4.298      859.190
04/12/2013  05:13:00      -33.954      -37.690        1.573       22.975       20.159       13.880      527.855      406.382      192.650        0.185        0.056       50.729       11.276        0.049      334.391        4.333      859.194
04/12/2013  05:14:00      -83.987      -25.133       -7.091       30.805       22.289       13.122      948.953      496.794      172.186        0.468        0.081       87.667       14.976        0.029      334.373        4.303      859.188
04/12/2013  05:15:00     -100.631      -41.605       -5.619       16.910       15.824       10.991      285.936      250.404      120.801        0.627        0.033      108.892        8.631        0.006      334.303        4.186      859.183
04/12/2013  05:16:00      -68.007      -44.965        6.504       35.890       22.071       23.095     1288.059      487.127      533.362        0.450        0.115       81.529       22.593        0.077      334.345        4.258      859.193
04/12/2013  05:17:00      -38.125      -35.859        6.214       34.199       18.145       18.862     1169.601      329.228      355.787        0.232        0.093       52.339       14.839        0.080      334.329        4.231      859.202
04/12/2013  05:18:00      -37.461      -36.676        4.400       44.190       29.553       26.142     1952.754      873.406      683.382        0.314        0.175       52.426       28.337        0.292      334.293        4.170      859.208
04/12/2013  05:19:00      -31.538      -23.418       -6.851       25.113       26.237       15.883      630.649      688.400      252.283        0.158        0.079       39.281       11.833        0.091      334.374        4.304      859.211
04/12/2013  05:20:00       -6.724      -23.594       12.222       38.434       21.284       16.862     1477.170      453.000      284.335        0.148        0.111       24.534       21.347        0.757      334.344        4.257      859.223
04/12/2013  05:21:00       -2.762       -6.755        5.131       16.016       19.663       16.096      256.509      386.629      259.085        0.049        0.045        7.298        3.651        0.250      334.295        4.175      859.249
04/12/2013  05:22:00      -42.770      -21.650        8.714       34.263       14.980       17.063     1173.927      224.401      291.135        0.203        0.084       47.937       19.019        0.157      334.304        4.189      859.267
04/12/2013  05:23:00      -51.331      -19.409        2.713       23.637       17.055       12.581      558.689      290.883      158.288        0.201        0.050       54.878       13.065        0.057      334.309        4.198      859.287
04/12/2013  05:24:00      -22.615      -15.426        3.428       23.550       19.739       11.404      554.591      389.628      130.041        0.092        0.054       27.375       10.254        0.140      334.288        4.162      859.299
04/12/2013  05:25:00      -51.311      -11.436       -2.530       15.847       11.468        6.707      251.116      131.525       44.981        0.160        0.021       52.570        4.920        0.009      334.293        4.172      859.317
04/12/2013  05:26:00      -52.885      -12.247       -7.912       13.317       10.161       12.481      177.339      103.239      155.766        0.172        0.022       54.284        7.013        0.017      334.301        4.182      859.330
04/12/2013  05:27:00      -23.708       -8.455        0.543       16.984        8.980        6.836      288.445       80.648       46.732        0.052        0.021       25.171        5.082        0.041      334.344        4.256      859.339
04/12/2013  05:28:00      -24.134        0.601       -1.793       19.107       14.392        8.525      365.064      207.116       72.684        0.062        0.032       24.141        8.347        0.120      334.360        4.282      859.335
04/12/2013  05:29:00      -21.955      -20.935        7.077       17.991       13.604       15.242      323.687      185.069      232.304        0.086        0.037       30.337        6.232        0.042      334.308        4.194      859.330
04/12/2013  05:30:00      -14.846      -22.084        7.312       26.608       21.106       17.707      708.005      445.450      313.536        0.111        0.073       26.611       15.456        0.337      334.271        4.133      859.319
04/12/2013  05:31:00      -18.858      -23.516        6.744       27.104       13.946       18.427      734.641      194.479      339.545        0.111        0.063       30.144       11.820        0.154      334.200        4.017      859.310
04/12/2013  05:32:00      -87.929      -35.794        2.780       19.733       23.672       14.256      389.372      560.375      203.231        0.509        0.058       94.936       11.161        0.014      334.155        3.941      859.312
04/12/2013  05:33:00      -83.454      -50.243       -0.720       45.926       29.244       24.182     2109.205      855.209      584.748        0.652        0.177       97.411       20.482        0.044      334.241        4.083      859.311
04/12/2013  05:34:00      -63.849      -72.048       -4.128       42.612       27.343       20.851     1815.775      747.635      434.749        0.614        0.150       96.268       20.627        0.046      334.248        4.097      859.320
04/12/2013  05:35:00      -71.069      -42.679        2.907       36.303       26.136       21.747     1317.917      683.067      472.927        0.468        0.124       82.899       23.358        0.079      334.169        3.963      859.328
04/12/2013  05:36:00      -80.947      -31.927       -3.234       21.674       20.501       11.851      469.781      420.289      140.439        0.431        0.052       87.016        8.903        0.010      334.163        3.956      859.331
04/12/2013  05:37:00      -77.732      -30.583       -5.019       18.360       11.534        9.424      337.080      133.040       88.812        0.378        0.028       83.532        8.036        0.009      334.141        3.918      859.332
04/12/2013  05:38:00      -95.961      -29.472       -9.108       11.236       10.927        9.247      126.245      119.393       85.505        0.525        0.017      100.385        5.630        0.003      334.107        3.860      859.335
04/12/2013  05:39:00     -114.436      -37.314       -6.617       13.051       10.114        8.232      170.316      102.285       67.767        0.744        0.017      120.366        7.021        0.003      334.047        3.762      859.335
04/12/2013  05:40:00     -102.215      -24.423      -13.453       18.620       18.936       10.075      346.698      358.584      101.500        0.602        0.040      105.092        6.889        0.004      334.033        3.739      859.336
04/12/2013  05:41:00      -92.429      -13.568       -6.646       17.994       17.696       13.424      323.798      313.140      180.211        0.479        0.041       93.420       10.816        0.013      333.976        3.645      859.340
04/12/2013  05:42:00      -95.483       -9.250       -6.842       20.199       14.303       14.901      407.998      204.589      222.040        0.504        0.042       95.930       13.095        0.019      334.014        3.707      859.354
04/12/2013  05:43:00     -111.113      -21.041       -8.216       19.547       17.153       14.865      382.068      294.209      220.971        0.688        0.045      113.087       12.466        0.012      333.989        3.665      859.367
04/12/2013  05:44:00     -111.582      -32.784       -8.648       14.399       13.757       12.191      207.331      189.259      148.624        0.707        0.027      116.298        6.882        0.004      334.039        3.747      859.382
04/12/2013  05:45:00      -92.269      -36.379        1.743       24.773       20.687       14.187      613.688      427.969      201.270        0.554        0.062       99.182       13.672        0.019      334.009        3.699      859.397
04/12/2013  05:46:00     -113.615      -16.263      -12.453       19.161       17.002       14.232      367.135      289.051      202.546        0.709        0.043      114.773        9.211        0.006      333.861        3.455      859.421
04/12/2013  05:47:00     -109.694      -51.403       -6.246       26.735       22.047       15.021      714.760      486.053      225.616        0.807        0.071      121.141       14.635        0.015      333.853        3.440      859.436
04/12/2013  05:48:00     -110.564      -61.818       -2.661       26.355       18.919       18.021      694.574      357.913      324.759        0.871        0.069      126.672       15.184        0.014      333.910        3.535      859.444
04/12/2013  05:49:00     -112.887      -47.526       -0.231       33.396       27.420       18.229     1115.323      751.861      332.307        0.860        0.110      122.483       18.496        0.023      333.955        3.610      859.455
04/12/2013  05:50:00     -103.443      -52.754        2.830       33.443       26.051       20.793     1118.441      678.657      432.366        0.786        0.111      116.118       21.085        0.033      334.024        3.725      859.458
04/12/2013  05:51:00      -95.827      -52.222       -0.415       33.135       27.398       13.410     1097.908      750.657      179.840        0.697        0.101      109.132       14.213        0.017      334.104        3.857      859.458
04/12/2013  05:52:00     -101.686      -57.010       -0.795       35.115       24.488       20.584     1233.059      599.680      423.706        0.792        0.113      116.577       17.513        0.023      334.032        3.737      859.454
04/12/2013  05:53:00      -69.338      -38.700       -1.530       34.574       25.761       17.893     1195.332      663.633      320.144        0.424        0.109       79.407       15.490        0.038      334.054        3.773      859.451
04/12/2013  05:54:00      -95.305      -30.114       -0.882       28.468       20.631       17.201      810.438      425.627      295.873        0.576        0.077       99.950       16.286        0.027      334.023        3.722      859.455
04/12/2013  05:55:00      -71.460      -21.110       -0.316       17.800       18.876       12.547      316.841      356.290      157.419        0.319        0.042       74.513        9.760        0.017      334.050        3.766      859.457
04/12/2013  05:56:00      -69.541      -37.602        3.833       29.869       18.529       17.404      892.139      343.318      302.906        0.390        0.077       79.056       16.133        0.042      334.022        3.722      859.469
04/12/2013  05:57:00      -66.184      -37.556        4.257       47.794       22.614       16.346     2284.248      511.374      267.183        0.444        0.153       76.097       16.507        0.047      334.050        3.767      859.477
04/12/2013  05:58:00      -43.579      -53.451        2.607       38.623       33.455       22.109     1491.759     1119.257      488.809        0.393        0.155       68.965       22.318        0.105      334.090        3.833      859.498
04/12/2013  05:59:00      -80.124      -50.695        3.925       44.808       26.665       24.883     2007.788      711.048      619.166        0.617        0.167       94.815       24.382        0.066      334.028        3.729      859.521
04/12/2013  06:00:00      -58.188      -41.345        9.542       61.216       31.179       24.133     3747.450      972.156      582.413        0.524        0.265       71.381       28.587        0.160      333.969        3.633      859.542
04/12/2013  06:01:00      -91.005      -47.149       10.451       40.587       29.355       23.046     1647.287      861.696      531.117        0.683        0.152      102.493       18.319        0.032      333.926        3.559      859.565
04/12/2013  06:02:00      -82.250      -66.560        3.101       28.237       23.870       17.079      797.309      569.775      291.681        0.643        0.083      105.808        7.897        0.006      334.062        3.787      859.580
04/12/2013  06:03:00      -85.741      -28.533       -1.067       22.300       16.564       14.267      497.278      274.359      203.544        0.457        0.049       90.364       12.025        0.018      334.047        3.762      859.602
04/12/2013  06:04:00      -68.985      -41.168        6.491       29.429       18.884       15.823      866.082      356.610      250.366        0.398        0.074       80.335       14.650        0.033      334.064        3.791      859.624
04/12/2013  06:05:00      -63.439      -31.407       -1.360       19.688       22.966       15.036      387.634      527.426      226.096        0.308        0.057       70.788       11.174        0.025      334.027        3.729      859.642
04/12/2013  06:06:00      -51.929      -28.303       -3.381       26.370       16.569       14.410      695.381      274.516      207.643        0.234        0.059       59.141       11.173        0.036      334.064        3.790      859.657
04/12/2013  06:07:00      -41.441      -27.123        6.553       36.216       19.328       16.834     1311.627      373.558      283.394        0.223        0.098       49.528       16.161        0.106      334.065        3.792      859.667
04/12/2013  06:08:00      -59.404      -55.341        1.456       40.458       32.117       23.863     1636.841     1031.496      569.454        0.492        0.162       81.187       18.369        0.051      334.023        3.721      859.668
04/12/2013  06:09:00     -118.697      -98.076       -5.783       33.064       36.436       25.827     1093.253     1327.589      667.037        1.341        0.154      153.974       15.114        0.010      333.993        3.671      859.654
04/12/2013  06:10:00     -109.887      -98.051       -0.184       48.470       47.414       27.132     2349.385     2248.078      736.155        1.351        0.267      147.272       24.412        0.027      333.979        3.649      859.639
04/12/2013  06:11:00      -95.322     -102.540        2.563       52.895       38.861       25.843     2797.849     1510.158      667.851        1.229        0.249      140.003       28.020        0.040      333.978        3.647      859.620
04/12/2013  06:12:00      -80.393      -70.549        6.471       42.964       52.083       25.557     1845.917     2712.612      653.154        0.835        0.261      106.959       26.905        0.063      334.048        3.765      859.612
04/12/2013  06:13:00      -68.168      -73.191        6.401       49.761       54.941       24.720     2476.140     3018.546      611.058        0.807        0.305      100.019       28.142        0.079      333.997        3.680      859.611
04/12/2013  06:14:00      -73.232      -51.306        3.688       54.456       35.738       32.883     2965.475     1277.204     1081.290        0.667        0.266       89.416       34.520        0.149      334.038        3.748      859.622
04/12/2013  06:15:00      -62.459      -77.529       11.480       60.631       39.403       28.668     3676.142     1552.595      821.837        0.805        0.303       99.559       30.928        0.097      334.026        3.726      859.641
04/12/2013  06:16:00     -110.416     -100.920       -1.711       46.718       35.045       29.743     2182.594     1228.159      884.638        1.334        0.215      149.588       25.156        0.028      334.023        3.723      859.668
04/12/2013  06:17:00      -83.336      -68.480        1.214       49.981       36.073       26.239     2498.055     1301.291      688.475        0.806        0.224      107.863       26.227        0.059      334.008        3.698      859.703
04/12/2013  06:18:00      -97.594      -59.124      -12.237       36.970       24.191       16.235     1366.747      585.216      263.572        0.769        0.111      114.107       14.038        0.015      334.053        3.772      859.730
04/12/2013  06:19:00     -101.392       -7.854       -8.446       35.934       30.752       22.355     1291.267      945.710      499.756        0.657        0.137      101.696       19.903        0.038      333.770        3.302      859.762
04/12/2013  06:20:00      -83.906        7.510        4.776       45.540       27.978       25.867     2073.907      782.789      669.120        0.532        0.176       84.242       26.598        0.100      333.610        3.038      859.786
04/12/2013  06:21:00     -103.945      -16.391        5.834       40.862       29.535       21.983     1669.683      872.323      483.242        0.707        0.151      105.229       18.326        0.030      333.639        3.086      859.812
04/12/2013  06:22:00     -123.014      -28.980        6.390       47.877       46.457       20.055     2292.250     2158.281      402.219        1.043        0.243      126.381       21.075        0.028      333.669        3.137      859.835
04/12/2013  06:23:00     -117.167      -51.986       -5.643       34.091       43.778       20.431     1162.189     1916.541      417.412        0.998        0.175      128.183       16.644        0.017      333.700        3.186      859.860
04/12/2013  06:24:00     -111.658      -18.476       -2.814       39.831       38.835       26.031     1586.546     1508.163      677.618        0.829        0.189      113.177       21.627        0.037      333.581        2.989      859.880
04/12/2013  06:25:00     -104.565      -20.836       -1.981       42.427       29.409       20.929     1800.067      864.888      438.023        0.724        0.155      106.621       21.608        0.041      333.542        2.924      859.892
04/12/2013  06:26:00     -111.004      -18.260       -3.802       38.321       33.228       22.085     1468.481     1104.115      487.769        0.786        0.153      112.496       12.530        0.012      333.524        2.894      859.908
04/12/2013  06:27:00     -111.731      -24.958       -3.283       35.250       28.151       20.920     1242.580      792.470      437.645        0.779        0.124      114.485       17.858        0.024      333.516        2.881      859.921
04/12/2013  06:28:00     -109.883      -64.895       -9.196       35.857       33.106       16.633     1285.728     1095.994      276.643        0.951        0.133      127.615       16.807        0.017      333.542        2.924      859.947
04/12/2013  06:29:00      -95.768      -71.442       -6.419       37.937       33.502       20.155     1439.245     1122.406      406.242        0.864        0.148      119.480       16.357        0.019      333.630        3.070      859.972
04/12/2013  06:30:00     -150.463      -63.506       -3.974       24.586       18.990       15.997      604.479      360.605      255.905        1.395        0.061      163.316       12.849        0.006      333.559        2.952      860.002
04/12/2013  06:31:00     -114.507      -59.420       -4.575       39.164       28.032       18.226     1533.841      785.768      332.188        0.966        0.133      129.006       19.965        0.024      333.505        2.862      860.048
04/12/2013  06:32:00     -115.624      -58.635       -6.019       27.236       28.928       17.624      741.803      836.826      310.591        0.937        0.094      129.642       15.473        0.014      333.610        3.037      860.081
04/12/2013  06:33:00      -95.914      -63.546        1.463       35.739       24.245       23.334     1277.243      587.837      544.485        0.782        0.120      115.055       20.665        0.032      333.692        3.174      860.092
04/12/2013  06:34:00     -109.679      -79.693       -1.612       31.256       24.445       17.565      976.956      597.576      308.526        1.013        0.094      135.575       16.666        0.015      333.693        3.177      860.112
04/12/2013  06:35:00     -106.177      -68.789       -8.818       28.480       17.371       12.050      811.129      301.736      145.205        0.867        0.063      126.513        9.345        0.005      333.730        3.236      860.121
04/12/2013  06:36:00      -56.117      -54.159        2.125       35.297       28.051       15.537     1245.857      786.862      241.396        0.418        0.114       77.989       18.809        0.058      333.750        3.272      860.130
04/12/2013  06:37:00      -93.628      -47.087      -13.139       20.388       17.823       12.942      415.654      317.670      167.488        0.603        0.045      104.802       11.425        0.012      333.797        3.347      860.126
04/12/2013  06:38:00      -80.333      -41.291      -12.857       10.832        8.372        8.883      117.328       70.094       78.906        0.429        0.013       90.324        3.460        0.001      333.816        3.381      860.130
04/12/2013  06:39:00      -80.555      -34.174       -5.077       14.086       15.144       11.715      198.404      229.338      137.249        0.412        0.028       87.504        4.378        0.003      333.816        3.380      860.131
04/12/2013  06:40:00      -64.441      -28.642       -4.567       14.483       23.073       16.600      209.746      532.358      275.558        0.301        0.051       70.519        9.975        0.020      333.854        3.444      860.142
04/12/2013  06:41:00      -61.396      -24.362       -9.332       12.899       14.044       11.436      166.387      197.247      130.774        0.247        0.025       66.052        4.614        0.005      333.868        3.466      860.158
04/12/2013  06:42:00      -67.287      -21.863      -13.013       15.495       13.458       10.291      240.080      181.114      105.896        0.285        0.026       70.749        8.157        0.013      333.939        3.585      860.174
04/12/2013  06:43:00      -59.574      -21.877       -8.435       16.527       12.116       13.000      273.144      146.788      169.001        0.234        0.029       63.464       11.428        0.032      333.922        3.556      860.186
04/12/2013  06:44:00      -38.497      -25.344        4.349       22.542       10.077        9.565      508.164      101.546       91.480        0.142        0.035       46.090        9.955        0.047      334.004        3.691      860.187
04/12/2013  06:45:00      -39.291      -34.056       -1.400       25.751       11.787       12.366      663.126      138.942      152.915        0.183        0.048       51.996       10.501        0.041      334.070        3.799      860.198
04/12/2013  06:46:00      -42.244      -31.028       -1.024       16.587       10.852       10.546      275.130      117.759      111.214        0.163        0.025       52.414        5.058        0.009      334.048        3.765      860.201
04/12/2013  06:47:00      -18.969       -7.256       12.764       22.746       13.653       12.392      517.395      186.415      153.557        0.072        0.043       20.310        8.727        0.185      334.152        3.937      860.213
04/12/2013  06:48:00      -23.147      -22.549        5.576       26.848       18.007       14.447      720.814      324.244      208.712        0.116        0.063       32.315       12.688        0.154      334.060        3.784      860.221
04/12/2013  06:49:00      -42.420      -43.490        2.246       32.529       25.269       16.507     1058.109      638.524      272.470        0.283        0.098       60.752       14.317        0.056      334.061        3.786      860.222
04/12/2013  06:50:00      -67.780      -25.118        1.622       25.374       24.264       15.617      643.834      588.734      243.886        0.335        0.074       72.285       12.776        0.031      334.115        3.874      860.217
04/12/2013  06:51:00      -54.442      -46.363        2.805       34.684       31.281       19.869     1203.014      978.484      394.760        0.385        0.129       71.508       10.682        0.022      334.170        3.967      860.228
04/12/2013  06:52:00      -76.665      -17.702      -10.921       25.167       20.218       15.835      633.370      408.769      250.756        0.380        0.065       78.683       11.609        0.022      334.137        3.911      860.243
04/12/2013  06:53:00      -80.453      -16.696       -5.178       33.001       28.383       22.725     1089.043      805.577      516.439        0.459        0.121       82.167       21.656        0.069      334.096        3.843      860.250
04/12/2013  06:54:00      -76.005      -50.032       -4.994       33.674       22.584       20.727     1133.952      510.027      429.591        0.519        0.104       90.994       12.327        0.018      334.113        3.871      860.241
04/12/2013  06:55:00      -72.140      -89.600       -7.282       26.449       36.137       17.498      699.547     1305.868      306.197        0.780        0.116      115.032       13.665        0.014      334.162        3.954      860.244
04/12/2013  06:56:00      -82.953      -77.768       -3.244       29.658       31.091       20.234      879.582      966.681      409.401        0.760        0.113      113.707       18.224        0.026      334.155        3.941      860.262
04/12/2013  06:57:00      -89.713      -58.939       -4.590       25.094       31.237       20.372      629.724      975.765      415.018        0.678        0.101      107.341       15.504        0.021      334.195        4.008      860.271
04/12/2013  06:58:00      -82.609      -47.448       -3.088       30.795       32.357       18.511      948.327     1046.953      342.662        0.571        0.117       95.266       13.947        0.021      334.195        4.008      860.281
04/12/2013  06:59:00      -87.803      -51.905        5.140       35.097       22.569       18.253     1231.779      509.381      333.166        0.625        0.104      101.998       12.893        0.016      334.148        3.930      860.280
04/12/2013  07:00:00      -75.404      -48.673        3.981       36.330       23.561       19.220     1319.841      555.126      369.411        0.516        0.112       89.749       19.643        0.048      334.155        3.940      860.275
04/12/2013  07:01:00      -69.224      -29.112        4.341       32.060       18.820       17.056     1027.816      354.201      290.908        0.367        0.084       75.097       18.019        0.058      334.113        3.871      860.276
04/12/2013  07:02:00      -18.107      -25.198        7.263       23.184       17.650       15.389      537.517      311.515      236.834        0.105        0.054       31.029       12.082        0.152      334.265        4.125      860.259
04/12/2013  07:03:00       -1.975      -22.372       20.193       25.955       20.292       19.227      673.658      411.768      369.686        0.118        0.073       22.459       15.556        0.480      334.373        4.304      860.266
04/12/2013  07:04:00      -40.717      -39.250        4.499       31.805       24.806       14.850     1011.578      615.326      220.522        0.253        0.092       56.555       15.562        0.076      334.300        4.180      860.269
04/12/2013  07:05:00      -54.209      -61.483        2.445       30.182       27.573       21.215      910.945      760.262      450.071        0.442        0.106       81.968       17.772        0.047      334.226        4.058      860.292
04/12/2013  07:06:00      -96.837     -101.066       -6.152       29.365       27.301       23.111      862.282      745.351      534.114        1.089        0.107      139.970       19.665        0.020      334.202        4.020      860.312
04/12/2013  07:07:00      -81.327      -91.259        1.075       34.260       39.888       23.197     1173.736     1591.026      538.094        0.912        0.165      122.239       24.149        0.039      334.175        3.975      860.349
04/12/2013  07:08:00      -42.914      -30.008        5.988       49.425       25.791       22.407     2442.867      665.157      502.095        0.319        0.181       52.365       25.305        0.234      334.268        4.129      860.375
04/12/2013  07:09:00      -58.355      -50.372        1.361       40.952       31.385       23.268     1677.067      985.025      541.419        0.457        0.160       77.089       24.360        0.100      334.198        4.013      860.406
04/12/2013  07:10:00      -95.105      -36.506      -15.618       17.491       23.614       13.867      305.933      557.620      192.302        0.584        0.053      101.871        9.916        0.009      334.170        3.966      860.406
04/12/2013  07:11:00      -87.090      -26.202       -2.991       24.477       27.114       17.083      599.142      735.186      291.819        0.495        0.081       90.946       11.190        0.015      334.182        3.985      860.426
04/12/2013  07:12:00      -78.653        3.794       -2.001       33.455       26.934       17.287     1119.217      725.465      298.833        0.417        0.107       78.744       16.784        0.045      334.193        4.005      860.434
04/12/2013  07:13:00      -98.256       -3.351       -0.777       45.642       21.071       18.562     2083.186      443.979      344.549        0.627        0.144       98.314       18.138        0.034      334.119        3.881      860.442
04/12/2013  07:14:00     -112.414        3.685        0.067       37.684       24.771       16.467     1420.074      613.609      271.172        0.748        0.115      112.474       15.431        0.019      334.063        3.789      860.436
04/12/2013  07:15:00      -80.595      -28.710        6.446       24.708       28.600       17.672      610.507      817.963      312.314        0.455        0.087       85.556       14.988        0.031      334.146        3.926      860.429
04/12/2013  07:16:00      -76.833      -23.819       -1.541       27.094       21.222       14.489      734.105      450.388      209.926        0.393        0.070       80.441        6.621        0.007      334.192        4.004      860.420
04/12/2013  07:17:00      -96.258      -31.616      -16.305       23.488       17.792       12.463      551.677      316.564      155.332        0.578        0.051      101.317        8.725        0.007      334.243        4.087      860.422
04/12/2013  07:18:00      -78.964      -53.898      -11.100       24.896       15.470       14.534      619.806      239.331      211.251        0.517        0.054       95.605       12.600        0.017      334.300        4.184      860.424
04/12/2013  07:19:00      -38.238      -13.096        3.058       15.727       22.339        9.564      247.332      499.037       91.477        0.124        0.042       40.418        7.660        0.036      334.379        4.313      860.444
04/12/2013  07:20:00      -56.095       -3.032       -7.037       12.648       10.377       11.481      159.982      107.685      131.806        0.180        0.020       56.177        7.650        0.019      334.392        4.336      860.466
04/12/2013  07:21:00      -79.707       -5.563       -5.135       13.466       10.344       10.577      181.338      107.007      111.876        0.341        0.020       79.901        6.622        0.007      334.423        4.387      860.476
04/12/2013  07:22:00      -49.912       -2.132        2.140       23.692       16.496       11.571      561.289      272.108      133.885        0.173        0.048       49.957       11.560        0.054      334.514        4.538      860.483
04/12/2013  07:23:00      -54.868       -2.666       -2.452       22.105       12.229       12.998      488.630      149.541      168.941        0.192        0.040       54.933       13.612        0.061      334.499        4.512      860.494
04/12/2013  07:24:00      -56.702       -2.808       -5.411       15.364       13.651       12.256      236.057      186.356      150.203        0.191        0.029       56.771        9.501        0.028      334.548        4.593      860.495
04/12/2013  07:25:00      -55.988       -4.895       -4.133       21.243       17.419       12.985      451.260      303.432      168.604        0.205        0.046       56.202       12.229        0.047      334.545        4.589      860.496
04/12/2013  07:26:00      -49.702      -14.171        3.127       17.662       18.494       15.227      311.935      342.018      231.847        0.178        0.044       51.683       12.014        0.054      334.618        4.709      860.498
04/12/2013  07:27:00      -54.209       -5.501       -3.849       24.440       15.209       15.562      597.326      231.307      242.163        0.203        0.054       54.488       14.660        0.072      334.667        4.791      860.507
04/12/2013  07:28:00      -46.700        6.641        0.666       21.564       11.704       12.865      465.024      136.983      165.507        0.150        0.038       47.170       13.007        0.076      334.778        4.976      860.525
04/12/2013  07:29:00      -59.072        3.831       -4.019       16.208       14.443       10.824      262.692      208.610      117.148        0.205        0.029       59.196        9.481        0.026      334.750        4.928      860.538
04/12/2013  07:30:00      -58.670       -2.100       -5.635       21.553       17.205       11.916      464.539      296.023      141.985        0.219        0.045       58.707       10.969        0.035      334.811        5.032      860.553
04/12/2013  07:31:00      -61.568        8.847       -6.280       11.536       12.894        7.484      133.070      166.261       56.007        0.213        0.018       62.200        3.939        0.004      334.808        5.024      860.569
04/12/2013  07:32:00      -52.292        3.241       -1.171       13.345       11.928        8.673      178.094      142.289       75.218        0.157        0.020       52.392        5.271        0.010      334.876        5.138      860.595
04/12/2013  07:33:00      -38.518        9.019        1.079       10.187       12.881        8.770      103.779      165.932       76.908        0.096        0.017       39.560        6.481        0.027      334.842        5.083      860.616
04/12/2013  07:34:00      -22.567      -18.970        7.415       16.396       23.584       12.125      268.838      556.189      147.017        0.095        0.049       29.481       13.247        0.202      335.247        5.756      860.636
04/12/2013  07:35:00      -27.604      -20.241        2.310       17.809       23.474       12.910      317.151      551.028      166.672        0.111        0.052       34.230       12.896        0.142      335.060        5.444      860.648
04/12/2013  07:36:00      -42.062      -22.174       -9.003       13.061       10.357       10.706      170.579      107.272      114.614        0.137        0.020       47.549        5.727        0.015      334.979        5.309      860.657
04/12/2013  07:37:00      -44.950      -15.992       -4.057       15.576       15.829       10.525      242.608      250.564      110.775        0.145        0.030       47.710        8.032        0.028      335.032        5.398      860.665
04/12/2013  07:38:00      -33.569      -22.754        7.015       25.625       17.729       13.529      656.662      314.331      183.037        0.142        0.058       40.554       14.013        0.119      335.261        5.778      860.661
04/12/2013  07:39:00      -20.746       17.965       -0.604       20.614       19.096       15.454      424.945      364.652      238.812        0.089        0.051       27.444        8.834        0.104      335.264        5.783      860.669
04/12/2013  07:40:00      -15.876        7.332       20.005       14.076       18.020       25.970      198.126      324.723      674.442        0.095        0.060       17.487       15.123        0.748      335.575        6.300      860.662
04/12/2013  07:41:00       -4.421        3.515       31.305       12.610       25.863       18.485      159.014      668.898      341.699        0.109        0.058        5.648       18.086       10.254      336.011        7.026      860.660
04/12/2013  07:42:00      -11.559      -11.990       13.096       40.065       35.369       24.777     1605.244     1250.978      613.912        0.196        0.174       16.654       20.417        1.503      335.747        6.587      860.657
04/12/2013  07:43:00      -23.682      -29.082       11.399       55.076       43.849       21.122     3033.365     1922.741      446.141        0.347        0.270       37.505       30.941        0.681      335.626        6.385      860.666
04/12/2013  07:44:00      -80.204      -26.628        8.374       37.410       47.222       27.060     1399.497     2229.943      732.250        0.579        0.218       84.509       27.841        0.109      335.218        5.705      860.678
04/12/2013  07:45:00      -13.768       10.237       20.890       44.945       31.631       28.407     2020.080     1000.519      806.955        0.228        0.191       17.157       25.762        2.255      335.537        6.236      860.685
04/12/2013  07:46:00      -53.441      -11.868        5.647       42.536       39.868       30.844     1809.271     1589.432      951.355        0.369        0.218       54.742       22.528        0.169      335.451        6.094      860.695
04/12/2013  07:47:00      -40.018      -17.783        8.003       37.148       43.924       30.451     1380.008     1929.337      927.243        0.311        0.212       43.792       29.269        0.447      335.552        6.262      860.699
04/12/2013  07:48:00      -28.889      -21.370       16.341       52.844       32.456       21.112     2792.447     1053.378      445.722        0.292        0.215       35.934       18.177        0.256      335.526        6.218      860.696
04/12/2013  07:49:00      -32.131      -58.539      -11.378       28.501       38.041       25.257      812.281     1447.091      637.936        0.374        0.145       66.777       20.872        0.098      335.363        5.946      860.692
04/12/2013  07:50:00      -37.859      -35.258       -4.748       19.866       28.441       14.117      394.652      808.910      199.277        0.205        0.070       51.734       11.461        0.049      335.303        5.847      860.683
04/12/2013  07:51:00      -51.900      -31.450       -0.612       36.521       29.299       16.970     1333.765      858.405      287.965        0.308        0.124       60.686       15.100        0.062      335.413        6.029      860.682
04/12/2013  07:52:00      -32.184      -30.644        1.892       25.948       25.930       16.662      673.320      672.353      277.607        0.180        0.081       44.439       10.573        0.057      335.470        6.124      860.685
04/12/2013  07:53:00      -43.602       15.877       17.201       34.021       17.678       15.885     1157.418      312.508      252.323        0.209        0.086       46.403        6.088        0.017      335.629        6.389      860.689
04/12/2013  07:54:00      -24.847        1.191        9.488       25.862       20.006       16.868      668.865      400.235      284.522        0.103        0.068       24.876       14.588        0.344      335.739        6.573      860.697
04/12/2013  07:55:00      -31.084       19.719       13.502       21.675       23.350       21.826      469.809      545.216      476.385        0.151        0.075       36.812       10.607        0.083      335.943        6.914      860.697
04/12/2013  07:56:00        1.740        7.061       48.704       16.014       17.362        9.580      256.447      301.425       91.785        0.154        0.032        7.272        9.037        1.544      336.261        7.445      860.696
04/12/2013  07:57:00       10.215       27.258       28.705       19.856       17.243       14.371      394.251      297.329      206.516        0.128        0.045       29.109        7.983        0.075      335.899        6.840      860.703
04/12/2013  07:58:00      -26.948       -6.855        3.785       15.400       16.176       13.048      237.145      261.663      170.257        0.073        0.033       27.806        6.805        0.060      335.763        6.612      860.712
04/12/2013  07:59:00      -14.209       -1.410       -6.573       34.855       46.126       25.625     1214.866     2127.595      656.618        0.212        0.200       14.278       20.054        1.973      335.873        6.798      860.714
04/12/2013  08:00:00       -7.918       18.202       40.193       14.272       23.817       15.050      203.691      567.249      226.495        0.150        0.050       19.849       14.314        0.520      336.489        7.826      860.722
04/12/2013  08:01:00      -18.227       20.598       42.914       20.287       26.337       19.345      411.556      693.634      374.234        0.204        0.074       27.505       18.203        0.438      336.440        7.744      860.725
04/12/2013  08:02:00      -30.616       12.791       10.439       20.157       16.585       19.905      406.302      275.063      396.192        0.114        0.054       33.180       15.751        0.225      336.062        7.115      860.739
04/12/2013  08:03:00      -10.532        6.426       27.327        9.976       21.265       19.812       99.514      452.206      392.521        0.092        0.047       12.338       17.377        1.984      336.727        8.223      860.746
04/12/2013  08:04:00      -20.948        5.505        6.911       18.996       20.799       16.802      360.849      432.586      282.300        0.080        0.054       21.659       10.392        0.230      336.233        7.398      860.746
04/12/2013  08:05:00      -29.358      -13.149       -1.057       28.834       26.208       16.651      831.406      686.859      277.245        0.142        0.090       32.169       16.095        0.250      336.120        7.210      860.752
04/12/2013  08:06:00      -12.473      -15.355        9.182       20.871       25.547       18.495      435.592      652.651      342.070        0.095        0.072       19.783       13.536        0.468      336.296        7.503      860.757
04/12/2013  08:07:00      -39.735      -59.530       -3.997       40.674       39.398       23.951     1654.364     1552.167      573.637        0.446        0.189       71.573       14.539        0.041      335.816        6.700      860.761
04/12/2013  08:08:00      -37.621      -18.524        8.965       34.446       36.255       22.354     1186.543     1314.441      499.701        0.242        0.150       41.934       26.271        0.392      335.907        6.853      860.770
04/12/2013  08:09:00      -49.491      -12.617        8.837       35.488       29.119       19.625     1259.379      847.906      385.158        0.259        0.125       51.074       12.219        0.057      335.960        6.943      860.774
04/12/2013  08:10:00      -43.670      -31.629        1.832       30.349       24.136       17.428      921.061      582.527      303.744        0.236        0.090       53.921       17.104        0.101      335.912        6.862      860.781
04/12/2013  08:11:00        7.417       33.644       34.900       18.431       27.350       22.742      339.684      747.998      517.209        0.200        0.080       34.451       14.935        0.188      336.503        7.849      860.784
04/12/2013  08:12:00       18.403       43.962       36.650       20.599       23.383       21.292      424.326      546.757      453.347        0.252        0.071       47.658        6.611        0.019      336.289        7.491      860.783
04/12/2013  08:13:00       12.207       49.638       52.077       27.578       31.778       18.149      760.555     1009.868      329.387        0.371        0.105       51.116       11.905        0.054      336.416        7.702      860.784
04/12/2013  08:14:00       39.530       41.479       34.948       25.794       20.365       18.268      665.333      414.718      333.732        0.296        0.071       57.298       13.545        0.056      336.163        7.282      860.783
04/12/2013  08:15:00       28.359       27.765       21.088       16.526       16.499       16.148      273.115      272.219      260.769        0.141        0.040       39.688       11.771        0.088      336.215        7.368      860.783
04/12/2013  08:16:00      -33.284       -3.395       15.160       30.132       25.413       19.492      907.937      645.838      379.940        0.164        0.097       33.456       24.580        0.540      336.483        7.814      860.782
04/12/2013  08:17:00      -26.216      -46.846       12.262       28.971       22.525       19.413      839.330      507.383      376.872        0.238        0.086       53.683       18.181        0.115      336.201        7.343      860.788
04/12/2013  08:18:00      -48.660      -59.274       -1.885       38.450       21.162       20.260     1478.382      447.836      410.475        0.411        0.117       76.689       13.052        0.029      336.067        7.119      860.785
04/12/2013  08:19:00      -38.132      -40.582        8.993       32.186       25.797       24.794     1035.966      665.483      614.736        0.275        0.116       55.687       25.597        0.211      336.207        7.353      860.789
04/12/2013  08:20:00      -77.110      -72.763       -2.965       29.690       27.548       20.878      881.476      758.899      435.892        0.666        0.104      106.021       20.335        0.037      336.027        7.054      860.791
04/12/2013  08:21:00      -48.766      -47.038       -3.060       30.027       28.157       18.181      901.648      792.837      330.531        0.331        0.101       67.754       12.690        0.035      336.071        7.126      860.789
04/12/2013  08:22:00      -89.381      -78.149      -14.632       26.481       18.467       13.637      701.244      341.018      185.962        0.777        0.061      118.727       11.366        0.009      335.944        6.915      860.784
04/12/2013  08:23:00      -30.000      -34.107       17.183       38.659       31.972       22.127     1494.526     1022.225      489.586        0.268        0.150       45.423       22.951        0.255      336.306        7.519      860.782
04/12/2013  08:24:00      -56.372      -39.777        6.486       39.654       50.539       28.345     1572.479     2554.177      803.464        0.487        0.247       68.993       28.753        0.174      336.243        7.413      860.776
04/12/2013  08:25:00      -32.417      -54.529        4.915       35.164       31.213       22.604     1236.511      974.250      510.933        0.338        0.136       63.437       23.114        0.133      336.318        7.539      860.774
04/12/2013  08:26:00      -80.535      -37.118        1.143       46.853       34.738       21.630     2195.168     1206.709      467.841        0.587        0.193       88.677       18.314        0.043      336.370        7.626      860.770
04/12/2013  08:27:00      -66.491      -35.926        2.251       41.450       30.377       19.935     1718.085      922.764      397.398        0.438        0.152       75.576       10.232        0.018      336.218        7.372      860.766
04/12/2013  08:28:00      -51.265       -9.991        6.257       29.212       30.087       22.622      853.355      905.200      511.735        0.252        0.114       52.229       20.986        0.161      336.422        7.713      860.765
04/12/2013  08:29:00      -50.298        6.583        3.928       19.691       31.431       18.423      387.751      987.901      339.411        0.215        0.086       50.727       16.420        0.105      336.493        7.832      860.772
04/12/2013  08:30:00      -11.514       -9.727       10.197       18.333       12.735       14.262      336.083      162.178      203.407        0.052        0.035       15.072       13.903        0.851      336.873        8.467      860.779
04/12/2013  08:31:00      -38.093       -8.673       14.557       27.080       25.173       20.534      733.332      633.702      421.658        0.176        0.089       39.068       17.164        0.193      336.573        7.965      860.788
04/12/2013  08:32:00      -33.272        1.633       -2.616       24.249        9.808       12.743      588.033       96.197      162.388        0.098        0.042       33.312       10.079        0.092      336.314        7.532      860.801
04/12/2013  08:33:00      -14.974      -12.109       13.697       28.875       22.176       24.679      833.744      491.784      609.054        0.125        0.097       19.258       23.943        1.546      336.869        8.460      860.814
04/12/2013  08:34:00      -26.838      -16.619       -2.200       17.000       16.989       13.210      288.998      288.616      174.508        0.088        0.038       31.566        7.204        0.052      336.517        7.872      860.838
04/12/2013  08:35:00      -18.425       -7.577        7.149       25.227       22.594       17.980      636.425      510.509      323.290        0.096        0.074       19.922       15.313        0.591      337.035        8.738      860.861
04/12/2013  08:36:00      -59.217      -18.577        0.554       18.532       30.240       16.472      343.433      914.449      271.323        0.269        0.076       62.063       13.429        0.047      336.544        7.916      860.883
04/12/2013  08:37:00      -43.941       -7.126        4.197       24.753       22.274       15.610      612.714      496.146      243.678        0.168        0.068       44.515        8.642        0.038      336.579        7.976      860.885
04/12/2013  08:38:00      -64.719      -41.461       -0.032       35.620       22.796       18.315     1268.749      519.639      335.434        0.402        0.106       76.861       19.027        0.061      336.631        8.062      860.886
04/12/2013  08:39:00      -22.771      -37.576       -3.875       40.088       18.233       17.861     1607.059      332.449      319.022        0.210        0.113       43.938       11.939        0.074      336.505        7.852      860.875
04/12/2013  08:40:00      -36.394      -67.341       -1.886       33.108       40.425       22.593     1096.166     1634.149      510.421        0.455        0.162       76.546       21.462        0.079      336.584        7.984      860.864
04/12/2013  08:41:00      -40.260      -60.380        7.196       26.172       39.423       16.798      684.983     1554.209      282.166        0.392        0.126       72.571       18.638        0.066      336.627        8.056      860.848
04/12/2013  08:42:00      -53.478       -0.551        6.240       29.940       31.747       21.744      896.419     1007.846      472.805        0.264        0.119       53.481       16.085        0.090      336.763        8.284      860.832
04/12/2013  08:43:00      -17.740        9.766        8.990       39.234       30.883       28.247     1539.312      953.743      797.911        0.189        0.165       20.251       23.949        1.399      337.181        8.982      860.813
04/12/2013  08:44:00      -21.574        2.293       27.375       31.554       23.687       24.095      995.677      561.060      580.553        0.168        0.107       21.696       24.497        1.275      337.564        9.624      860.817
04/12/2013  08:45:00       -1.871       18.036       33.975       20.897       21.232       29.564      436.675      450.794      874.005        0.162        0.088       18.133        7.923        0.191      337.610        9.702      860.814
04/12/2013  08:46:00      -26.517       53.327       25.249       27.756       38.070       35.597      770.401     1449.359     1267.115        0.384        0.174       59.556       24.140        0.164      337.450        9.434      860.819
04/12/2013  08:47:00       30.257       28.200       23.896       61.638       33.044       37.742     3799.189     1091.881     1424.435        0.430        0.316       41.362       21.613        0.273      337.379        9.313      860.822
04/12/2013  08:48:00       64.612       58.081       10.530       32.417       24.465       25.978     1050.875      598.529      674.842        0.499        0.116       86.880       16.876        0.038      336.818        8.375      860.806
04/12/2013  08:49:00      100.303       43.458       10.381       68.479       33.487       30.086     4689.439     1121.401      905.192        0.939        0.336      109.313       31.900        0.085      337.031        8.731      860.800
04/12/2013  08:50:00      104.738       69.252       16.737       54.422       46.551       37.314     2961.703     2166.975     1392.340        1.128        0.326      125.563       26.826        0.046      336.939        8.576      860.794
04/12/2013  08:51:00       72.518       82.699       -2.301       44.641       49.835       36.879     1992.775     2483.553     1360.031        0.897        0.292      109.991       30.343        0.076      337.010        8.696      860.802
04/12/2013  08:52:00       87.923       56.752        0.780       53.591       34.160       39.198     2871.997     1166.877     1536.494        0.826        0.279      104.648       24.351        0.054      337.067        8.791      860.808
04/12/2013  08:53:00       63.811       84.111       47.408       83.568       45.134       43.374     6983.645     2037.071     1881.339        1.215        0.545      105.577       41.516        0.155      337.193        9.001      860.817
04/12/2013  08:54:00      131.700       82.920        2.695       24.407       25.901       24.577      595.687      670.853      604.043        1.305        0.094      155.630       11.451        0.005      336.685        8.153      860.821
04/12/2013  08:55:00       96.367       87.859       19.378       38.838       34.842       45.863     1508.364     1213.982     2103.449        1.110        0.241      130.407       22.458        0.030      336.978        8.642      860.813
04/12/2013  08:56:00       59.374       75.473       63.013       59.008       40.375       34.712     3481.948     1630.118     1204.940        0.975        0.316       96.028       26.897        0.078      337.272        9.134      860.793
04/12/2013  08:57:00       86.171       74.105       29.835       31.826       34.339       29.580     1012.899     1179.153      874.950        0.844        0.153      113.653       18.468        0.026      336.824        8.385      860.779
04/12/2013  08:58:00       42.046       44.350       27.991       51.715       49.145       36.957     2674.391     2415.196     1365.855        0.549        0.323       61.112       20.933        0.117      337.287        9.161      860.759
04/12/2013  08:59:00      120.232       77.709        6.297       58.008       42.111       31.619     3364.962     1773.317      999.767        1.334        0.307      143.159       23.398        0.027      336.970        8.629      860.737
04/12/2013  09:00:00      176.039      100.967        7.019       37.211       32.926       40.605     1384.637     1084.142     1648.745        2.267        0.206      202.939       25.780        0.016      336.916        8.537      860.726
04/12/2013  09:01:00      138.495       73.737        1.972       46.211       36.053       29.090     2135.412     1299.790      846.220        1.445        0.214      156.901       18.080        0.013      336.770        8.296      860.722
04/12/2013  09:02:00       71.664       81.766       -2.837       46.768       43.233       26.670     2187.270     1869.101      711.295        0.830        0.238      108.726       22.669        0.043      337.029        8.728      860.719
04/12/2013  09:03:00       81.950       59.707       11.526       32.148       26.730       31.869     1033.490      714.472     1015.629        0.659        0.138      101.394       16.426        0.026      336.899        8.511      860.710
04/12/2013  09:04:00       31.403       63.153       82.950       63.736       53.595       48.840     4062.308     2872.388     2385.390        1.059        0.466       70.530       46.279        0.431      337.340        9.248      860.687
04/12/2013  09:05:00       31.581       89.768       94.798       37.530       61.630       40.293     1408.517     3798.257     1623.555        1.244        0.342       95.161       40.409        0.180      337.237        9.076      860.688
04/12/2013  09:06:00       86.412       62.087       36.700       55.214       32.167       37.618     3048.541     1034.708     1415.095        0.908        0.275      106.404       27.896        0.069      337.141        8.916      860.692
04/12/2013  09:07:00       49.772       63.167      -17.458       39.036       14.424       14.500     1523.846      208.056      210.252        0.436        0.097       80.420       10.266        0.016      336.808        8.359      860.693
04/12/2013  09:08:00       35.417       24.069       -5.951       14.346       14.305       20.543      205.800      204.626      422.001        0.135        0.042       42.822       14.972        0.122      336.932        8.566      860.677
04/12/2013  09:09:00       30.791       42.045       -0.332       26.686       20.480       23.618      712.123      419.440      557.789        0.220        0.084       52.114       13.557        0.068      337.303        9.184      860.676
04/12/2013  09:10:00       -0.495        0.227       38.470       19.397       36.700       17.835      376.241     1346.861      318.083        0.176        0.102        0.545       13.856      646.204      337.900       10.187      860.667
04/12/2013  09:11:00       45.607       59.826       71.492       71.100       80.596       45.948     5055.179     6495.777     2111.261        1.221        0.683       75.227       47.932        0.406      337.691        9.836      860.655
04/12/2013  09:12:00       98.540      104.638       58.320       59.924       52.276       36.428     3590.863     2732.804     1327.011        1.585        0.383      143.733       22.266        0.024      337.436        9.407      860.644
04/12/2013  09:13:00       45.743       49.881       48.745       66.291       41.212       50.999     4394.510     1698.392     2600.863        0.782        0.435       67.680       44.613        0.435      337.716        9.878      860.659
04/12/2013  09:14:00       37.151       32.044        0.155       40.621       23.205       23.602     1650.067      538.449      557.056        0.258        0.137       49.062       17.819        0.132      337.233        9.070      860.667
04/12/2013  09:15:00       10.409       22.584        8.151       16.395       27.911       20.745      268.780      779.000      430.338        0.108        0.074       24.867       21.080        0.719      337.345        9.255      860.660
04/12/2013  09:16:00        7.466      -23.690       36.072       23.095       35.406       35.367      533.360     1253.616     1250.806        0.248        0.152       24.839       18.249        0.540      337.997       10.349      860.658
04/12/2013  09:17:00       56.274       92.371       82.280       49.189       37.341       46.123     2419.535     1394.320     2127.292        1.220        0.297      108.162       33.547        0.096      337.457        9.446      860.662
04/12/2013  09:18:00       68.988       44.359       14.368       23.696       25.677       26.047      561.522      659.325      678.441        0.442        0.095       82.019       20.023        0.060      337.026        8.722      860.659
04/12/2013  09:19:00       71.398       53.694        3.617       33.984       48.499       26.416     1154.909     2352.153      697.804        0.610        0.210       89.335       21.219        0.056      337.325        9.222      860.656
04/12/2013  09:20:00       39.387       70.532      -18.255       43.914       35.756       18.989     1928.430     1278.478      360.573        0.521        0.178       80.784        7.964        0.010      337.247        9.091      860.653
04/12/2013  09:21:00      -65.392       35.494      -19.175       35.396       23.255       21.907     1252.891      540.805      479.904        0.409        0.114       74.404       13.207        0.032      337.273        9.136      860.639
04/12/2013  09:22:00      -20.653        7.107       26.045       55.788       33.578       27.625     3112.268     1127.470      763.150        0.308        0.250       21.842       28.947        1.756      337.887       10.165      860.629
04/12/2013  09:23:00       33.115       49.780        9.594       37.403       34.524       35.929     1398.951     1191.918     1290.914        0.377        0.194       59.789       19.695        0.109      337.822       10.056      860.614
04/12/2013  09:24:00       64.503       59.217       21.054       44.585       41.955       34.892     1987.830     1760.183     1217.450        0.654        0.248       87.563       19.199        0.048      337.886       10.164      860.588
04/12/2013  09:25:00       57.176       90.502       71.567       70.369       50.189       52.087     4951.805     2518.984     2713.072        1.338        0.509      107.050       36.989        0.119      338.013       10.376      860.574
04/12/2013  09:26:00       61.788       63.128       47.814       58.667       60.551       37.205     3441.786     3666.409     1384.238        0.929        0.425       88.334       40.863        0.214      338.284       10.832      860.566
04/12/2013  09:27:00       42.862       34.004       73.850       44.420       53.683       46.125     1973.151     2881.885     2127.532        0.771        0.349       54.712       36.998        0.457      338.009       10.371      860.553
04/12/2013  09:28:00       19.434      -63.540       17.088       45.992       66.192       40.453     2115.308     4381.381     1636.419        0.642        0.407       66.445       28.662        0.186      338.121       10.558      860.548
04/12/2013  09:29:00       27.580       -0.386       68.092       45.760       83.281       54.236     2094.023     6935.676     2941.509        0.868        0.599       27.582       62.618        5.154      337.993       10.343      860.550
04/12/2013  09:30:00      -11.020      -73.397      -13.751       28.482       30.145       14.642      811.208      908.696      214.386        0.382        0.097       74.219       13.320        0.032      337.392        9.336      860.546
04/12/2013  09:31:00      -22.559        8.024       27.935       17.025       25.480       31.338      289.856      649.206      982.071        0.164        0.096       23.944       21.722        0.823      338.387       11.005      860.529
04/12/2013  09:32:00        9.449       33.097       43.519       36.901       25.459       41.028     1361.692      648.185     1683.327        0.339        0.185       34.420       34.072        0.980      338.181       10.658      860.525
04/12/2013  09:33:00       84.749       51.289       44.999       77.132       51.200       43.062     5949.290     2621.423     1854.320        1.113        0.521       99.060       27.665        0.078      337.805       10.028      860.508
04/12/2013  09:34:00       86.631       64.283       34.692       83.345       54.353       55.722     6946.442     2954.296     3104.893        1.292        0.650      107.876       41.065        0.145      337.756        9.945      860.493
04/12/2013  09:35:00       25.901       34.919       21.723       30.742       66.951       28.728      945.093     4482.423      825.314        0.431        0.313       43.476       20.297        0.218      337.957       10.283      860.481
04/12/2013  09:36:00       36.413      -82.030       24.786       24.807       53.084       31.636      615.406     2817.860     1000.835        0.655        0.222       89.748       27.553        0.094      337.814       10.043      860.457
04/12/2013  09:37:00        5.558      -95.124       19.810       31.222       50.672       20.646      974.824     2567.606      426.257        0.672        0.198       95.286       16.431        0.030      337.766        9.960      860.443
04/12/2013  09:38:00       13.243       20.753       52.892       25.676       36.060       21.503      659.262     1300.304      462.398        0.291        0.121       24.619        7.476        0.092      338.439       11.089      860.434
04/12/2013  09:39:00       48.644       62.790       29.329       27.898       27.079       31.016      778.308      733.274      962.015        0.482        0.124       79.428       18.972        0.057      338.103       10.527      860.423
04/12/2013  09:40:00        5.462       19.158       48.755       33.255       45.273       35.296     1105.876     2049.686     1245.825        0.359        0.220       19.921       32.165        2.607      338.863       11.805      860.427
04/12/2013  09:41:00       19.835       68.728      105.831       39.754       51.536       24.619     1580.370     2655.991      606.078        1.058        0.242       71.533       23.625        0.109      338.401       11.027      860.428
04/12/2013  09:42:00       29.971      -40.113       36.167       41.912       60.933       45.682     1756.653     3712.805     2086.870        0.568        0.378       50.073       38.917        0.604      338.435       11.085      860.422
04/12/2013  09:43:00        9.501       33.360       57.632       42.436       57.532       39.167     1800.787     3309.955     1534.077        0.558        0.332       34.687       17.481        0.254      338.530       11.245      860.412
04/12/2013  09:44:00       49.589       -9.039       35.118       41.779       47.207       39.837     1745.505     2228.516     1586.993        0.467        0.278       50.406       31.428        0.389      338.308       10.872      860.414
04/12/2013  09:45:00       22.184       34.704       38.151       35.137       28.395       20.585     1234.616      806.263      423.754        0.281        0.123       41.188       14.560        0.125      338.661       11.467      860.411
04/12/2013  09:46:00        8.532       37.469       53.959       37.217       30.476       21.429     1385.094      928.810      459.195        0.358        0.139       38.428       18.894        0.242      338.997       12.030      860.410
04/12/2013  09:47:00      116.862       82.723       14.479       60.617       48.129       44.002     3674.469     2316.420     1936.206        1.432        0.396      143.177       19.211        0.018      338.096       10.515      860.408
04/12/2013  09:48:00       74.558       73.689        6.791       42.619       50.553       42.203     1816.351     2555.586     1781.111        0.859        0.308      104.829       25.625        0.060      338.421       11.062      860.414
04/12/2013  09:49:00       48.025       72.618        6.658       46.770       42.021       34.981     2187.464     1765.758     1223.664        0.640        0.259       87.062       18.959        0.047      338.424       11.067      860.430
04/12/2013  09:50:00      101.448       66.738        1.636       44.902       38.323       29.244     2016.149     1468.622      855.239        0.954        0.217      121.432       15.705        0.017      338.221       10.724      860.444
04/12/2013  09:51:00       69.202       27.610       21.250       71.921       45.725       37.690     5172.677     2090.819     1420.562        0.734        0.434       74.507       40.010        0.288      338.580       11.328      860.461
04/12/2013  09:52:00       61.235       84.813       12.304       48.253       46.613       45.960     2328.380     2172.736     2112.307        0.885        0.331      104.608       32.318        0.095      338.594       11.353      860.473
04/12/2013  09:53:00       31.835       12.433       10.251       39.197       41.520       28.512     1536.382     1723.939      812.958        0.267        0.204       34.177       13.264        0.151      338.888       11.844      860.485
04/12/2013  09:54:00       37.069       25.692       53.056       69.098       47.816       31.178     4774.490     2286.380      972.055        0.644        0.402       45.102       17.725        0.154      339.259       12.469      860.494
04/12/2013  09:55:00       66.408       60.408       14.241       87.596       63.035       39.649     7673.100     3973.394     1572.061        1.074        0.661       89.773       37.096        0.171      338.984       12.006      860.504
04/12/2013  09:56:00      163.941      110.749       24.596       83.094       61.409       52.608     6904.667     3771.113     2767.589        2.659        0.672      197.844       29.005        0.021      338.824       11.736      860.510
04/12/2013  09:57:00       78.398       41.292       66.079       58.874       57.800       62.130     3466.097     3340.832     3860.163        1.144        0.533       88.607       50.984        0.331      338.658       11.459      860.531
04/12/2013  09:58:00       50.532       63.591       56.981       71.711       69.675       39.761     5142.443     4854.568     1580.966        1.071        0.579       81.223       32.900        0.164      338.536       11.252      860.532
04/12/2013  09:59:00       79.349      113.875       81.420       57.552       39.144       46.487     3312.263     1532.228     2161.039        1.645        0.350      138.795       27.826        0.040      338.275       10.816      860.545
04/12/2013  10:00:00       11.710       29.022        3.710       33.226       21.624       20.409     1103.935      467.597      416.543        0.149        0.099       31.295       13.766        0.193      338.427       11.072      860.551
04/12/2013  10:01:00       31.776       29.031      -22.031       43.340       87.618       29.054     1878.365     7676.899      844.157        0.637        0.520       43.041       36.235        0.709      338.201       10.692      860.558
04/12/2013  10:02:00       30.884      -32.921        3.606       38.073       36.622       32.661     1449.577     1341.166     1066.738        0.295        0.193       45.140       25.933        0.330      338.756       11.624      860.548
04/12/2013  10:03:00       53.145       47.651       36.497       50.135       30.430       29.196     2513.503      925.971      852.417        0.536        0.215       71.379       19.742        0.076      339.065       12.143      860.549
04/12/2013  10:04:00        1.324       34.998       27.714       18.536       21.192       19.375      343.578      449.105      375.387        0.158        0.058       35.023       10.554        0.091      339.294       12.530      860.550
04/12/2013  10:05:00       23.883       65.680       78.637       62.218       45.368       47.887     3871.122     2058.286     2293.138        0.964        0.411       69.888       34.835        0.248      339.083       12.175      860.535
04/12/2013  10:06:00       18.959        1.855       34.537       53.480       54.021       38.998     2860.062     2918.297     1520.874        0.443        0.365       19.049       35.730        3.518      338.872       11.819      860.523
04/12/2013  10:07:00       52.019      -99.901      -11.816       52.530       43.287       40.849     2759.423     1873.765     1668.628        0.956        0.315      112.633       27.199        0.058      338.466       11.137      860.497
04/12/2013  10:08:00        7.389       24.378       27.502       27.536       32.465       33.958      758.244     1054.008     1153.133        0.218        0.148       25.474       18.039        0.501      339.564       12.985      860.463
04/12/2013  10:09:00       28.692      -83.957        1.960       60.319       71.939       39.737     3638.420     5175.212     1579.020        0.913        0.520       88.724       43.179        0.237      338.916       11.894      860.443
04/12/2013  10:10:00       30.607       43.742       25.527       49.491       53.755       38.509     2449.368     2889.552     1482.950        0.516        0.341       53.387       34.527        0.418      339.195       12.362      860.413
04/12/2013  10:11:00       78.235       60.957       13.141       54.173       48.680       41.898     2934.750     2369.760     1755.415        0.853        0.353       99.179       27.696        0.078      339.225       12.412      860.392
04/12/2013  10:12:00      147.254      124.792       51.882       46.374       47.572       39.567     2150.560     2263.117     1565.525        2.296        0.299      193.020       15.065        0.006      339.134       12.257      860.369
04/12/2013  10:13:00       63.966       37.411       90.120       87.931       75.169       52.576     7731.792     5650.360     2764.260        1.488        0.807       74.103       60.165        0.659      339.327       12.585      860.349
04/12/2013  10:14:00       35.503       65.882       79.445       58.342       55.474       55.527     3403.795     3077.326     3083.292        1.074        0.478       74.839       41.871        0.313      339.240       12.437      860.341
04/12/2013  10:15:00       24.456      130.616      137.600       55.969       68.812       63.995     3132.541     4735.047     4095.361        2.428        0.598      132.885       58.524        0.194      338.948       11.946      860.321
04/12/2013  10:16:00       46.157       66.536       74.134       70.886       76.841       62.744     5024.861     5904.485     3936.790        1.346        0.743       80.979       56.194        0.482      339.153       12.290      860.316
04/12/2013  10:17:00       10.870       10.935       19.935       32.840       53.095       41.631     1078.495     2819.083     1733.145        0.313        0.282       15.419       32.082        4.329      339.091       12.187      860.317
04/12/2013  10:18:00      106.436       66.923       39.154       52.187       31.139       37.029     2723.445      969.629     1371.135        1.120        0.253      125.727       24.970        0.039      339.139       12.269      860.305
04/12/2013  10:19:00      103.224       86.177       24.702       87.654       72.614       54.531     7683.270     5272.755     2973.604        1.731        0.796      134.468       34.240        0.065      339.486       12.850      860.297
04/12/2013  10:20:00       89.473       73.550       60.568      124.129       60.498       55.025    15408.034     3660.026     3027.789        1.959        1.105      115.824       65.599        0.321      339.763       13.319      860.290
04/12/2013  10:21:00      211.082      114.678       23.530       89.112       53.511       48.472     7940.949     2863.422     2349.491        3.570        0.658      240.223       40.939        0.029      338.867       11.808      860.310
04/12/2013  10:22:00      102.972       64.578        9.765       80.537       45.247       31.766     6486.250     2047.321     1009.051        1.220        0.477      121.547       19.108        0.025      339.090       12.184      860.310
04/12/2013  10:23:00      192.144      124.263       41.711       79.515       53.522       55.551     6322.628     2864.584     3085.932        3.318        0.614      228.824       41.839        0.033      339.080       12.167      860.304
04/12/2013  10:24:00      173.823      123.000      104.649      143.635       82.661       87.892    20630.982     6832.877     7724.970        4.574        1.759      212.940       97.286        0.209      339.165       12.308      860.270
04/12/2013  10:25:00      107.358      108.608      118.148       94.213       69.099       73.253     8876.142     4774.663     5366.007        2.815        0.951      152.714       75.476        0.244      339.327       12.580      860.280
04/12/2013  10:26:00       33.702       23.878       44.950       64.779       48.788       34.997     4196.375     2380.254     1224.764        0.576        0.390       41.304       25.676        0.386      339.678       13.176      860.264
04/12/2013  10:27:00      -10.214      -12.847       28.551       60.408       91.087       41.385     3649.179     8296.849     1712.683        0.737        0.683       16.413       19.209        1.370      339.830       13.433      860.239
04/12/2013  10:28:00       77.462       44.153       52.993       64.845       88.475       55.869     4204.867     7827.812     3121.342        1.295        0.758       89.162       51.911        0.339      339.686       13.190      860.224
04/12/2013  10:29:00       67.303      117.058      153.302       89.170       91.867       73.848     7951.259     8439.591     5453.562        3.179        1.092      135.027       64.576        0.229      339.607       13.054      860.190
04/12/2013  10:30:00      144.466      108.220       73.069      114.767       73.417       89.267    13171.383     5390.123     7968.604        3.222        1.327      180.505       70.401        0.152      339.699       13.207      860.169
04/12/2013  10:31:00      178.499       89.301       77.374      107.351       74.021       89.241    11524.279     5479.141     7963.925        3.539        1.248      199.591       82.694        0.172      339.673       13.165      860.158
04/12/2013  10:32:00      124.037      109.111       99.760      104.315       96.191       93.474    10881.542     9252.799     8737.383        3.305        1.444      165.198       92.086        0.311      339.453       12.794      860.146
04/12/2013  10:33:00       27.892      129.189      133.582       57.646       61.266       51.291     3323.053     3753.480     2630.739        2.251        0.485      132.165       51.869        0.154      339.409       12.721      860.121
04/12/2013  10:34:00       79.143       76.074      102.031       74.018       85.268       60.903     5478.617     7270.674     3709.134        1.946        0.823      109.777       46.161        0.177      339.762       13.316      860.131
04/12/2013  10:35:00       80.325      -34.336       61.033      100.031      146.093       76.639    10006.191    21343.265     5873.587        2.428        1.861       87.357       91.658        1.101      340.024       13.757      860.117
04/12/2013  10:36:00      106.919      -66.601       15.351       72.478       82.773       59.750     5253.114     6851.427     3570.052        1.589        0.784      125.966       61.314        0.237      339.742       13.283      860.122
04/12/2013  10:37:00       40.642       62.816       65.473       39.370       38.188       32.229     1550.015     1458.291     1038.682        0.696        0.202       74.817       28.267        0.143      339.822       13.420      860.106
04/12/2013  10:38:00       52.352       45.016       49.293       55.435       44.972       34.076     3073.054     2022.445     1161.205        0.673        0.313       69.045       14.887        0.046      340.251       14.142      860.095
04/12/2013  10:39:00      135.341       91.606       71.464       72.122       79.185       66.901     5201.542     6270.231     4475.775        2.388        0.797      163.428       26.699        0.027      340.012       13.737      860.090
04/12/2013  10:40:00       69.335        2.104       38.474       79.207       95.995       41.513     6273.741     9215.017     1723.352        1.175        0.861       69.367       51.210        0.545      339.280       12.504      860.110
04/12/2013  10:41:00       87.437      -49.655       10.942       91.821       48.299       46.113     8431.047     2332.764     2126.418        1.156        0.645      100.553       33.262        0.109      339.455       12.799      860.089
04/12/2013  10:42:00      182.014      158.158        9.350       88.643       65.237       68.907     7857.522     4255.825     4748.201        3.754        0.843      241.128       36.514        0.023      339.663       13.149      860.059
04/12/2013  10:43:00      170.308      120.065       96.198      138.001      125.750      104.991    19044.333    15812.993    11023.030        4.927        2.294      208.376       78.932        0.143      339.933       13.602      860.054
04/12/2013  10:44:00      162.442      203.936      178.308       97.971       96.280       84.616     9598.308     9269.919     7159.812        6.290        1.301      260.724       75.259        0.083      339.562       12.976      860.057
04/12/2013  10:45:00      152.407      208.164      212.370      112.330      107.292       86.136    12617.971    11511.610     7419.420        7.160        1.577      257.992       85.204        0.109      339.495       12.864      860.067
04/12/2013  10:46:00      104.697       56.599       78.860       62.364      104.564       80.070     3889.233    10933.562     6411.208        2.081        1.062      119.016       72.986        0.376      339.500       12.874      860.117
04/12/2013  10:47:00       29.571      -95.616        0.504       49.833       61.692       44.037     2483.343     3805.844     1939.298        0.912        0.411      100.084       36.079        0.130      339.752       13.300      860.081
04/12/2013  10:48:00       51.160     -115.404       -9.519       43.652       70.876       42.121     1905.476     5023.447     1774.183        1.236        0.435      126.236       39.026        0.096      339.796       13.374      860.061
04/12/2013  10:49:00       78.900       89.485       93.205      114.355       80.930       56.758    13076.998     6549.595     3221.431        2.288        1.142      119.301       53.006        0.197      340.068       13.832      860.050
04/12/2013  10:50:00      161.270       92.970       28.165       64.427       62.287       52.482     4150.787     3879.664     2754.365        2.311        0.539      186.149       28.034        0.023      339.799       13.378      860.039
04/12/2013  10:51:00       71.230      138.358      140.686       91.265       77.827       68.261     8329.242     6057.055     4659.560        3.152        0.952      155.617       63.855        0.168      339.864       13.487      860.009
04/12/2013  10:52:00      134.903      132.290      115.295       80.154       71.126       70.049     6424.667     5058.874     4906.917        3.269        0.820      188.943       53.030        0.079      339.688       13.190      860.011
04/12/2013  10:53:00       90.015       60.844       87.403      102.314      140.194       75.158    10468.156    19654.236     5648.657        2.760        1.789      108.649       80.733        0.552      340.205       14.062      860.023
04/12/2013  10:54:00       18.637       14.597       59.665       48.930       63.067       43.442     2394.132     3977.425     1887.245        0.619        0.413       23.673       29.723        1.576      340.613       14.754      860.030
04/12/2013  10:55:00       99.839      116.390       85.923      110.750       94.800       69.418    12265.621     8987.088     4818.845        2.848        1.304      153.344       59.871        0.152      340.194       14.045      860.021
04/12/2013  10:56:00      104.242       79.144       60.207       88.185       72.284       65.560     7776.669     5224.923     4298.174        1.902        0.865      130.882       24.241        0.034      339.698       13.208      860.029
04/12/2013  10:57:00      130.121       69.995       29.320       94.547       62.738       37.846     8939.107     3936.074     1432.337        1.850        0.715      147.752       22.402        0.023      340.005       13.726      860.027
04/12/2013  10:58:00      182.736      121.990       27.271       85.246       85.821       66.530     7266.946     7365.238     4426.250        3.403        0.953      219.713       33.872        0.024      339.873       13.504      860.008
04/12/2013  10:59:00      183.009      114.838       31.412       74.090       71.679       41.279     5489.399     5137.861     1703.974        3.000        0.617      216.056       36.447        0.028      339.649       13.124      860.011
04/12/2013  11:00:00      136.151       89.414       26.681       60.889       49.973       54.216     3707.526     2497.289     2939.351        1.819        0.457      162.887       21.798        0.018      339.889       13.530      860.013
04/12/2013  11:01:00       62.885       63.777       56.743       54.576       45.014       40.222     2978.506     2026.261     1617.805        0.893        0.331       89.565       21.102        0.056      340.320       14.260      860.007
04/12/2013  11:02:00       87.843       44.284      105.725      110.640       74.852       57.554    12241.105     5602.805     3312.516        2.100        1.058       98.374       53.066        0.291      340.667       14.846      860.008
04/12/2013  11:03:00       59.290       38.012       43.441       75.066       78.955       79.724     5634.972     6233.938     6355.837        1.253        0.911       70.429       65.852        0.874      339.943       13.623      860.021
04/12/2013  11:04:00       12.220       59.888       67.557       54.930       56.976       39.457     3017.263     3246.255     1556.821        0.806        0.391       61.122       18.323        0.090      340.685       14.876      860.009
04/12/2013  11:05:00       52.621      -15.118       32.830       45.160       94.995       49.507     2039.451     9024.136     2450.963        0.879        0.676       54.750       58.305        1.134      340.042       13.791      859.999
04/12/2013  11:06:00      160.832      108.208       35.099       75.692       52.629       59.217     5729.315     2769.834     3506.687        2.540        0.600      193.845       42.919        0.049      340.181       14.021      859.965
04/12/2013  11:07:00      179.744      169.057       27.034       82.747       56.810       43.543     6847.102     3227.403     1896.030        3.679        0.599      246.755       14.457        0.003      339.864       13.485      859.957
04/12/2013  11:08:00      116.725      119.433       22.275       65.427       48.752       49.840     4280.630     2376.757     2483.986        1.876        0.457      167.000       31.916        0.037      339.995       13.709      859.965
04/12/2013  11:09:00      155.080      105.169       36.374      109.894       60.639       65.226    12076.710     3677.137     4254.404        2.822        1.000      187.377       32.536        0.030      340.542       14.634      859.958
04/12/2013  11:10:00       70.426       59.290       84.282       86.719       74.692       55.593     7520.271     5578.835     3090.545        1.588        0.809       92.060       52.024        0.319      340.665       14.842      859.969
04/12/2013  11:11:00       85.437      -65.261       35.369       88.398      143.382       51.053     7814.203    20558.509     2606.363        2.189        1.549      107.511       62.985        0.343      340.328       14.271      859.950
04/12/2013  11:12:00       93.822      -81.071       36.659      110.994      103.195       55.995    12319.771    10649.229     3135.465        2.141        1.305      123.996       66.163        0.285      340.429       14.444      859.905
04/12/2013  11:13:00       26.023       30.205       41.979       56.657       72.657       53.607     3210.052     5279.095     2873.676        0.736        0.568       39.869       27.241        0.467      341.008       15.423      859.895
04/12/2013  11:14:00       56.430      -62.452       16.449       67.731      108.764       62.309     4587.472    11829.654     3882.380        1.382        1.015       84.170       60.670        0.520      341.215       15.772      859.877
04/12/2013  11:15:00       77.770     -161.423        4.236       85.940      113.223       70.127     7385.693    12819.436     4917.742        2.862        1.256      179.180       66.216        0.137      340.825       15.111      859.865
04/12/2013  11:16:00       95.199      -16.855       74.466      110.168      154.089       80.437    12137.012    23743.269     6470.191        2.861        2.118       96.680      109.060        1.273      340.551       14.647      859.883
04/12/2013  11:17:00       21.876      103.336      103.056       65.758       74.132       58.826     4324.090     5495.565     3460.484        1.753        0.664      105.626       44.824        0.180      340.616       14.759      859.851
04/12/2013  11:18:00       85.044      111.761      121.727       85.145       70.841       62.382     7249.668     5018.412     3891.567        2.535        0.808      140.439       58.346        0.173      340.412       14.413      859.845
04/12/2013  11:19:00      162.088       77.628       38.189      114.338       78.037       61.958    13073.211     6089.833     3838.748        2.838        1.150      179.718       44.566        0.061      340.257       14.151      859.835
04/12/2013  11:20:00      144.936       80.306        9.703       74.693       60.147       40.913     5579.106     3617.665     1673.885        1.921        0.544      165.697       15.995        0.009      340.316       14.250      859.814
04/12/2013  11:21:00      111.071      131.699       89.215       84.678       93.493       81.338     7170.291     8740.875     6615.868        3.008        1.126      172.283       71.035        0.170      340.489       14.543      859.812
04/12/2013  11:22:00      152.596      148.268      114.959      143.771       96.460       92.650    20670.003     9304.517     8584.114        4.852        1.928      212.765       80.646        0.144      340.292       14.207      859.801
04/12/2013  11:23:00      109.126      113.843       99.724      154.559      110.265      101.395    23888.477    12158.272    10280.895        4.056        2.316      157.698       83.855        0.283      340.510       14.577      859.773
04/12/2013  11:24:00      166.120      120.911       18.275      105.977       71.400       68.189    11231.101     5097.937     4649.754        3.176        1.049      205.464       45.993        0.050      340.432       14.445      859.765
04/12/2013  11:25:00       62.737      137.216      171.857      103.226       93.893       83.320    10655.509     8815.842     6942.228        3.935        1.321      150.878       78.031        0.267      340.479       14.525      859.758
04/12/2013  11:26:00      150.448      104.194      114.394      124.287      112.454       83.984    15447.171    12645.856     7053.233        4.086        1.757      183.006       73.063        0.159      340.729       14.949      859.762
04/12/2013  11:27:00      199.155      116.338       60.460      121.164       91.093      100.268    14680.710     8297.938    10053.757        4.494        1.652      230.646       74.371        0.104      340.390       14.375      859.770
04/12/2013  11:28:00      142.414       93.382       40.974      144.227       88.033       53.537    20801.395     7749.813     2866.228        3.104        1.571      170.299       44.729        0.069      340.477       14.524      859.791
04/12/2013  11:29:00      157.355      126.488       88.871       97.952       66.090       66.355     9594.626     4367.910     4403.037        3.351        0.918      201.890       34.681        0.030      340.619       14.762      859.776
04/12/2013  11:30:00       81.543       44.000       72.693       97.277       84.115       58.975     9462.826     7075.304     3478.090        1.694        1.001       92.657       42.828        0.214      340.711       14.919      859.776
04/12/2013  11:31:00      161.019      112.984       60.632       76.299       56.170       41.863     5821.479     3155.053     1752.516        2.655        0.536      196.704       13.265        0.005      340.323       14.263      859.738
04/12/2013  11:32:00       43.846     -128.396        6.045       84.928      132.970       86.011     7212.773    17680.999     7397.941        2.536        1.615      135.676       79.016        0.339      340.846       15.147      859.714
04/12/2013  11:33:00      138.832     -211.170      -25.585       98.433      102.663       57.866     9689.056    10539.692     3348.456        4.405        1.179      252.720       65.037        0.066      340.406       14.401      859.705
04/12/2013  11:34:00       40.304      -98.705        9.143       63.415      103.456       73.191     4021.447    10703.136     5356.946        1.576        1.004      106.617       79.555        0.557      340.816       15.099      859.696
04/12/2013  11:35:00       43.490       12.408       76.752       67.969       77.834       60.118     4619.762     6058.092     3614.133        1.111        0.715       45.225       54.937        1.476      340.845       15.146      859.694
04/12/2013  11:36:00      106.282       91.932       46.461      117.065       89.907       63.602    13704.161     8083.287     4045.232        2.386        1.292      140.525       62.030        0.195      340.676       14.861      859.686
04/12/2013  11:37:00      206.124      152.057       70.937      141.372       99.579       83.486    19985.914     9915.883     6969.932        5.375        1.844      256.142       90.598        0.125      340.432       14.445      859.660
04/12/2013  11:38:00      174.316      108.164       20.503       62.051       58.376       55.015     3850.277     3407.731     3026.605        2.639        0.514      205.148       30.159        0.022      340.458       14.491      859.638
04/12/2013  11:39:00       92.614       67.938       37.427       60.533       50.161       42.305     3664.281     2516.093     1789.727        1.128        0.399      114.860       24.007        0.044      340.644       14.805      859.617
04/12/2013  11:40:00       67.886       62.343       47.805       64.797       53.217       43.615     4198.590     2832.027     1902.290        0.986        0.447       92.169       23.663        0.066      340.868       15.185      859.590
04/12/2013  11:41:00      124.744       78.619       63.904       88.717       79.197       67.147     7870.745     6272.169     4508.732        2.224        0.933      147.451       52.745        0.128      340.745       14.975      859.556
04/12/2013  11:42:00      136.955      111.429       17.160       56.128       61.111       49.555     3150.330     3734.519     2455.661        2.040        0.467      176.559       30.042        0.029      340.298       14.221      859.548
04/12/2013  11:43:00       23.960      -11.706       -7.212       61.780       46.630       29.857     3816.786     2174.322      891.469        0.382        0.344       26.666       18.789        0.496      340.406       14.405      859.545
04/12/2013  11:44:00       24.079      -95.529      -13.998       42.692       51.807       34.177     1822.569     2683.946     1168.033        0.779        0.284       98.517       29.203        0.088      340.072       13.841      859.532
04/12/2013  11:45:00        5.018      -41.952       -1.055       42.295       64.084       27.014     1788.857     4106.753      729.753        0.420        0.331       42.251       30.451        0.519      340.297       14.221      859.508
04/12/2013  11:46:00      -32.512      -13.980        3.385       66.547       58.627       37.186     4428.464     3437.092     1382.787        0.525        0.462       35.391       23.814        0.453      340.918       15.272      859.494
04/12/2013  11:47:00      -35.582      110.489       -4.870       75.383       82.508       43.994     5682.532     6807.552     1935.478        1.396        0.721      116.077       41.009        0.125      340.884       15.213      859.477
04/12/2013  11:48:00       43.741       56.725        0.569       32.600       39.284       27.232     1062.756     1543.253      741.584        0.424        0.167       71.631       27.242        0.145      340.861       15.175      859.450
04/12/2013  11:49:00       31.211       51.467       16.449       59.061       34.943       36.873     3488.169     1221.005     1359.589        0.498        0.303       60.191       25.631        0.181      341.209       15.762      859.430
04/12/2013  11:50:00       36.310      -54.879       -6.554       52.237       70.487       38.610     2728.750     4968.485     1490.740        0.678        0.459       65.804       35.078        0.284      341.400       16.086      859.415
04/12/2013  11:51:00       99.952     -130.676        9.207       65.607      112.167       58.761     4304.247    12581.484     3452.811        2.374        1.017      164.520       62.877        0.146      341.062       15.511      859.391
04/12/2013  11:52:00       54.007       51.526       -3.816       53.546       94.459       42.201     2867.218     8922.491     1780.918        0.958        0.679       74.643       38.959        0.272      341.443       16.159      859.382
04/12/2013  11:53:00       39.577      -58.256       -1.559       57.929       91.484       36.434     3355.803     8369.380     1327.456        0.901        0.653       70.428       29.519        0.176      341.388       16.066      859.398
04/12/2013  11:54:00       -0.880      -48.898       40.103       35.241       60.908       35.994     1241.953     3709.731     1295.547        0.512        0.312       48.906       38.660        0.625      341.366       16.029      859.377
04/12/2013  11:55:00      -14.230        6.366       25.484       45.737       90.806       57.436     2091.839     8245.720     3298.900        0.726        0.682       15.589       41.959        7.245      341.731       16.648      859.370
04/12/2013  11:56:00      184.803     -225.654      -42.094       86.755      132.403       81.002     7526.461    17530.648     6561.339        5.923        1.581      291.671       78.521        0.072      340.845       15.145      859.341
04/12/2013  11:57:00      183.033     -139.760       13.718      115.821      156.316      117.258    13414.595    24434.674    13749.355        5.240        2.580      230.291      101.180        0.193      341.022       15.443      859.294
04/12/2013  11:58:00      118.925       88.447      138.274      100.212      114.327       90.315    10042.403    13070.697     8156.866        3.617        1.563      148.209       89.239        0.363      341.036       15.467      859.323
04/12/2013  11:59:00      144.852      125.564       56.318       74.589       56.628       64.338     5563.455     3206.774     4139.363        2.641        0.645      191.698       40.239        0.044      340.614       14.754      859.326
04/12/2013  12:00:00       24.193       10.521       18.236       37.399       71.165       49.706     1398.715     5064.509     2470.638        0.498        0.447       26.382       43.706        2.745      341.309       15.932      859.320
04/12/2013  12:01:00       52.155      -71.088       37.334       76.971      108.952       68.152     5924.499    11870.588     4644.758        1.580        1.122       88.169       72.924        0.684      341.354       16.008      859.291
04/12/2013  12:02:00       71.998      -50.705       25.459       65.639      127.832       70.895     4308.515    16340.936     5026.098        1.703        1.284       88.061       82.154        0.870      341.214       15.769      859.276
04/12/2013  12:03:00       37.606       41.310       53.306       56.584       70.127       44.308     3201.754     4917.855     1963.209        0.802        0.504       55.863       42.980        0.592      341.258       15.847      859.256
04/12/2013  12:04:00       38.129      -39.219       24.158       46.533       71.323       47.164     2165.294     5087.009     2224.481        0.652        0.474       54.699       29.895        0.299      341.471       16.208      859.222
04/12/2013  12:05:00       69.032     -174.404      -23.497       56.438       81.920       37.421     3185.263     6710.919     1400.367        2.351        0.565      187.570       35.123        0.035      341.000       15.408      859.204
04/12/2013  12:06:00       32.852     -105.294       33.244       54.839       68.792       57.597     3007.363     4732.304     3317.426        1.216        0.553      110.300       44.029        0.159      341.064       15.517      859.180
04/12/2013  12:07:00      -40.290     -141.810       14.459      101.775       70.208       51.362    10358.138     4929.208     2638.018        1.993        0.896      147.423       28.096        0.036      341.016       15.434      859.175
04/12/2013  12:08:00       40.752      -10.667       84.971       87.110      123.570       82.936     7588.065    15269.625     6878.450        1.936        1.487       42.125       96.308        5.227      341.543       16.327      859.148
04/12/2013  12:09:00       98.351       -8.288       26.050       76.528      113.199       67.241     5856.499    12813.934     4521.344        1.680        1.160       98.700       63.480        0.414      341.117       15.607      859.153
04/12/2013  12:10:00       46.283       33.581      -12.935       34.332       52.844       26.079     1178.660     2792.525      680.102        0.404        0.233       57.183       22.429        0.154      341.218       15.778      859.147
04/12/2013  12:11:00      -57.880      -23.744        2.262       90.225       60.137       42.827     8140.491     3616.502     1834.189        0.875        0.680       62.561       45.270        0.524      341.294       15.907      859.111
04/12/2013  12:12:00      -26.958      -21.226       -2.823       63.423       54.665       42.725     4022.452     2988.294     1825.442        0.501        0.442       34.311       47.327        1.903      341.785       16.740      859.075
04/12/2013  12:13:00       -5.054      -36.766       11.681       40.920       59.197       37.008     1674.463     3504.338     1369.618        0.403        0.327       37.112       35.141        0.897      341.301       15.919      859.066
04/12/2013  12:14:00        0.095      -82.530       -1.910       28.549       38.438       31.067      815.050     1477.455      965.149        0.504        0.163       82.530       18.530        0.050      341.054       15.500      859.042
04/12/2013  12:15:00       54.086     -118.059       17.259      102.161      160.046      104.816    10436.808    25614.843    10986.419        3.209        2.352      129.858      111.369        0.736      341.540       16.322      859.032
04/12/2013  12:16:00      -21.484       -2.992       39.034       56.274       74.280       67.041     3166.811     5517.489     4494.478        0.758        0.659       21.691       36.847        2.886      341.436       16.148      859.033
04/12/2013  12:17:00       65.613     -212.635      -27.656      102.049      119.646       63.880    10413.918    14315.083     4080.677        3.954        1.440      222.528       54.035        0.059      341.170       15.693      859.038
04/12/2013  12:18:00      129.331     -102.230        0.373       98.012      153.334       74.123     9606.265    23511.309     5494.161        3.289        1.931      164.856       96.372        0.342      341.082       15.546      859.036
04/12/2013  12:19:00       77.973       16.364       13.681       60.207       65.252       37.897     3624.889     4257.812     1436.149        0.793        0.466       79.672       20.138        0.064      340.971       15.359      859.040
04/12/2013  12:20:00      187.495       97.079       66.399       84.263       71.719       76.615     7100.178     5143.642     5869.893        3.355        0.906      211.137       54.120        0.066      340.815       15.094      859.017
04/12/2013  12:21:00       89.197        0.123       21.669       43.890       39.124       37.795     1926.337     1530.672     1428.467        0.665        0.244       89.197       30.029        0.113      340.703       14.907      859.017
04/12/2013  12:22:00      108.900       85.657       24.709       46.367       40.187       39.805     2149.870     1615.025     1584.427        1.258        0.267      138.551       22.456        0.026      340.578       14.694      858.968
04/12/2013  12:23:00       14.232      109.138       -2.309       22.259       64.756       37.052      495.466     4193.388     1372.840        0.909        0.303      110.062       43.103        0.153      340.809       15.087      858.904
04/12/2013  12:24:00        0.334       43.056      -15.698       27.261       37.154       19.012      743.188     1380.409      361.453        0.229        0.124       43.057       19.428        0.204      340.701       14.902      858.876
04/12/2013  12:25:00      -17.584       47.269        5.121       39.065       46.038       31.608     1526.045     2119.490      999.048        0.361        0.232       50.433       34.652        0.472      341.183       15.720      858.837
04/12/2013  12:26:00       35.631       45.630       14.419       29.679       38.876       25.397      880.828     1511.381      645.004        0.330        0.152       57.893       21.615        0.139      341.309       15.933      858.801
04/12/2013  12:27:00      -10.799       62.563        9.103       35.859       54.896       33.613     1285.886     3013.561     1129.813        0.477        0.271       63.488       33.990        0.287      341.595       16.417      858.789
04/12/2013  12:28:00       46.616       90.107       17.609       64.635       40.145       53.189     4177.627     1611.599     2829.121        0.961        0.431      101.451       29.105        0.082      341.235       15.808      858.762
04/12/2013  12:29:00      -16.468      107.591      -26.740       33.852       48.300       25.849     1145.962     2332.875      668.156        0.835        0.207      108.844       16.517        0.023      340.907       15.252      858.756
04/12/2013  12:30:00      -10.532       46.187      -23.464       24.610       24.313       20.400      605.651      591.103      416.150        0.220        0.081       47.372        6.753        0.020      341.045       15.485      858.751
04/12/2013  12:31:00      -35.760       33.902      -23.724       20.772       20.901       14.369      431.476      436.859      206.478        0.203        0.054       49.276        7.639        0.024      341.364       16.025      858.724
04/12/2013  12:32:00       -5.499      -22.940        5.074       21.753       39.053       25.439      473.178     1525.104      647.159        0.161        0.132       23.590       13.293        0.318      341.901       16.935      858.730
04/12/2013  12:33:00       46.893      -55.368       10.512       64.470       82.449       43.523     4156.409     6797.781     1894.267        0.911        0.642       72.558       51.746        0.509      341.895       16.926      858.720
04/12/2013  12:34:00       66.328      -52.646       99.909      102.477      157.822      117.491    10501.490    24907.680    13804.119        3.317        2.461       84.681       93.582        1.221      341.755       16.687      858.654
04/12/2013  12:35:00      124.053     -157.785      -43.229      118.300      131.167      106.614    13994.963    17204.816    11366.593        4.235        2.128      200.712      105.575        0.277      341.388       16.064      858.679
04/12/2013  12:36:00       78.088      -70.957       19.216       94.580      122.278       88.249     8945.351    14951.864     7787.936        2.159        1.584      105.512       97.365        0.852      341.600       16.425      858.691
04/12/2013  12:37:00      113.645     -199.972      -41.082      110.501       84.115       60.969    12210.495     7075.316     3717.204        3.879        1.150      230.009       56.285        0.060      341.584       16.396      858.673
04/12/2013  12:38:00        7.736      -57.397       22.581       70.205       41.476       39.056     4928.711     1720.288     1525.397        0.602        0.409       57.915       31.901        0.303      342.273       17.568      858.674
04/12/2013  12:39:00        8.292     -106.033      -18.660       55.129       58.831       45.765     3039.192     3461.029     2094.460        1.013        0.430      106.357       32.964        0.096      341.812       16.785      858.668
04/12/2013  12:40:00       78.712      -62.889        0.450       40.503       78.728       41.010     1640.494     6198.110     1681.782        0.983        0.476      100.750       46.411        0.212      341.261       15.851      858.670
04/12/2013  12:41:00      -15.314        2.027      -11.888       51.006       32.357       22.573     2601.646     1046.997      509.518        0.227        0.208       15.448       22.904        2.198      341.109       15.593      858.667
04/12/2013  12:42:00      -30.475       16.297        6.153       30.751       43.318       29.152      945.635     1876.489      849.812        0.245        0.184       34.558       22.235        0.414      341.725       16.636      858.657
04/12/2013  12:43:00      -11.016      -65.145        2.777       56.845       35.171       29.083     3231.357     1236.967      845.842        0.484        0.266       66.070       10.612        0.026      341.664       16.535      858.667
04/12/2013  12:44:00      -60.083      -61.961       14.891       75.349       66.030       40.573     5677.495     4359.982     1646.176        0.968        0.584       86.308       32.508        0.142      341.807       16.776      858.651
04/12/2013  12:45:00     -136.885     -103.649       11.646       86.196       60.684       43.061     7429.718     3682.588     1854.293        2.129        0.648      171.699       37.125        0.047      341.585       16.397      858.628
04/12/2013  12:46:00     -171.890     -112.502       -2.419       66.959       55.115       37.765     4483.460     3037.625     1426.225        2.558        0.447      205.434       36.679        0.032      341.127       15.621      858.620
04/12/2013  12:47:00     -159.091      -94.148       -8.260       85.913       61.275       38.315     7381.121     3754.599     1468.034        2.342        0.630      184.862       24.622        0.018      341.178       15.709      858.586
04/12/2013  12:48:00     -196.800      -83.228       11.893      129.904       75.419       48.191    16874.972     5688.050     2322.337        3.534        1.244      213.675       47.801        0.050      341.392       16.069      858.573
04/12/2013  12:49:00     -205.217       16.853       -4.713       81.381       89.458       42.187     6622.816     8002.682     1779.703        2.941        0.820      205.908       29.483        0.021      341.780       16.728      858.561
04/12/2013  12:50:00     -129.449      -18.084       -4.604       63.220       50.477       33.762     3996.728     2547.970     1139.867        1.239        0.384      130.706       33.453        0.066      341.609       16.440      858.560
04/12/2013  12:51:00      -75.173        1.229        2.324       29.022       27.475       18.566      842.295      754.867      344.693        0.380        0.097       75.183       14.645        0.038      341.283       15.888      858.562
04/12/2013  12:52:00       -5.908       -1.405       23.061       48.417       37.293       29.854     2344.239     1390.760      891.270        0.260        0.231        6.073       31.775       27.375      342.147       17.354      858.536
04/12/2013  12:53:00       56.958       55.152       21.062       61.444       40.500       41.934     3775.426     1640.276     1758.464        0.695        0.359       79.284       29.148        0.135      341.592       16.412      858.530
04/12/2013  12:54:00      190.307      104.340       36.069       90.494       76.813       52.196     8189.206     5900.303     2724.436        3.261        0.841      217.033       23.158        0.011      341.625       16.466      858.500
04/12/2013  12:55:00      225.455      152.166       18.685       89.533       80.606       57.047     8016.094     6497.249     3254.330        4.605        0.888      272.000       39.359        0.021      341.295       15.905      858.491
04/12/2013  12:56:00      185.054      135.880       21.644       63.275       50.524       49.518     4003.687     2552.686     2452.075        3.109        0.450      229.583       25.601        0.012      341.326       15.958      858.494
04/12/2013  12:57:00      132.285      116.900       13.549       76.806       52.425       45.394     5899.183     2748.399     2060.594        2.103        0.535      176.536       17.660        0.010      341.269       15.862      858.482
04/12/2013  12:58:00      124.798       80.896        9.715       69.055       64.319       53.730     4768.600     4136.949     2886.892        1.700        0.590      148.723       33.254        0.050      341.675       16.552      858.459
04/12/2013  12:59:00      153.530       78.888       58.761       89.081       76.660       62.653     7935.340     5876.693     3925.437        2.549        0.887      172.612       28.883        0.028      342.061       17.206      858.464
04/12/2013  13:00:00      113.562      -79.112       54.724       78.756      122.562       79.979     6202.492    15021.442     6396.654        2.488        1.381      138.402       86.313        0.389      341.778       16.725      858.454
04/12/2013  13:01:00       81.627      -47.815       56.986      117.367      165.943      103.125    13775.015    27536.961    10634.769        3.206        2.597       94.601      108.253        1.309      342.330       17.662      858.424
04/12/2013  13:02:00      120.386      132.666      115.734      116.026      111.983       87.640    13462.114    12540.151     7680.724        3.958        1.684      179.145       76.287        0.181      341.789       16.743      858.484
04/12/2013  13:03:00      120.994       82.832       42.746       56.332       52.084       47.691     3173.272     2712.751     2274.469        1.574        0.408      146.632       36.948        0.063      341.587       16.403      858.493
04/12/2013  13:04:00      134.506       85.186       11.248       59.284       50.780       46.542     3514.579     2578.593     2166.150        1.687        0.413      159.212       22.141        0.019      341.917       16.963      858.471
04/12/2013  13:05:00       84.025      121.884      -11.561       77.833       55.576       44.005     6057.948     3088.722     1936.460        1.656        0.554      148.040       36.843        0.062      341.461       16.189      858.468
04/12/2013  13:06:00       47.115      159.392       -5.812       60.672       72.344       48.492     3681.062     5233.660     2351.511        1.946        0.563      166.209       38.533        0.054      341.551       16.341      858.446
04/12/2013  13:07:00       53.873       99.864       -6.829       71.206       49.978       37.715     5070.288     2497.793     1422.407        1.095        0.450      113.468       34.216        0.091      341.753       16.685      858.431
04/12/2013  13:08:00      111.442       74.745       10.799       40.030       37.575       29.408     1602.423     1411.903      864.832        1.100        0.194      134.187       22.325        0.028      341.446       16.165      858.433
04/12/2013  13:09:00       31.556       47.779        1.568       40.658       39.600       31.047     1653.093     1568.128      963.896        0.373        0.209       57.259       22.902        0.160      341.755       16.689      858.423
04/12/2013  13:10:00        2.720       47.689       -1.885       24.964       37.189       29.620      623.186     1383.031      877.345        0.258        0.144       47.767       26.129        0.299      341.642       16.497      858.392
04/12/2013  13:11:00       30.026       19.622       -5.414       41.201       45.147       24.524     1697.482     2038.221      601.451        0.283        0.217       35.869       12.128        0.114      341.970       17.052      858.368
04/12/2013  13:12:00       24.802      -23.841        7.745       43.018       45.328       42.459     1850.538     2054.660     1802.795        0.347        0.285       34.403       34.825        1.025      341.812       16.786      858.345
04/12/2013  13:13:00       49.530      -34.945       11.629       47.589       60.269       35.398     2264.702     3632.386     1252.986        0.548        0.358       60.617       36.688        0.366      341.737       16.658      858.328
04/12/2013  13:14:00       50.857       35.598       63.957       96.382       95.153       62.103     9289.470     9054.158     3856.801        1.507        1.110       62.078       60.422        0.947      342.108       17.287      858.305
04/12/2013  13:15:00       81.321       27.241       21.707       69.899       73.694       49.704     4885.804     5430.813     2470.515        1.030        0.639       85.763       51.975        0.367      341.607       16.436      858.268
04/12/2013  13:16:00       52.133      -59.218       34.854       56.916      115.846       70.398     3239.482    13420.396     4955.852        1.452        1.081       78.896       80.271        1.035      342.136       17.334      858.225
04/12/2013  13:17:00       12.354      -34.123       23.323       48.235       80.825       43.568     2326.608     6532.760     1898.137        0.631        0.538       36.290       43.864        1.461      342.460       17.885      858.208
04/12/2013  13:18:00       64.180      -36.954        1.510       82.747      113.950       49.248     6847.132    12984.634     2425.359        1.387        1.113       74.058       45.703        0.381      342.107       17.285      858.193
04/12/2013  13:19:00       39.482      -78.428       56.068       76.368      143.833       69.582     5832.020    20688.037     4841.611        2.110        1.568       87.805       71.024        0.654      342.174       17.398      858.182
04/12/2013  13:20:00      117.150     -252.602       -4.985       60.488       73.304       50.365     3658.824     5373.468     2536.662        4.456        0.578      278.446       45.009        0.026      341.839       16.827      858.207
04/12/2013  13:21:00       38.484      -71.786       31.140       67.963      126.510       64.885     4618.982    16004.673     4210.017        1.621        1.242       81.450       30.250        0.138      342.326       17.657      858.206
04/12/2013  13:22:00      100.056      100.620      142.814      120.834       93.727       82.835    14600.864     8784.701     6861.567        3.538        1.512      141.900       67.396        0.226      342.127       17.317      858.247
04/12/2013  13:23:00      128.452       23.463       72.809      115.605      141.316       92.283    13364.488    19970.082     8516.096        3.209        2.093      130.577       72.012        0.304      342.041       17.172      858.255
04/12/2013  13:24:00      117.791       45.581       67.330       99.752      109.726       76.757     9950.512    12039.804     5891.695        2.418        1.394      126.302       73.392        0.338      341.938       16.997      858.283
04/12/2013  13:25:00      199.627      116.954       40.098      112.257       81.941       71.976    12601.714     6714.358     5180.521        3.981        1.225      231.363       50.752        0.048      342.168       17.387      858.303
04/12/2013  13:26:00      212.238      131.012       45.988       79.042       53.694       61.893     6247.587     2883.095     3830.752        3.864        0.648      249.417       38.219        0.023      341.914       16.953      858.308
04/12/2013  13:27:00      125.898      121.638       91.926       77.763       50.552       47.218     6047.110     2555.501     2229.493        2.496        0.542      175.060       22.606        0.017      341.810       16.779      858.300
04/12/2013  13:28:00       64.212       61.566       32.659       74.580       50.897       55.718     5562.159     2590.519     3104.481        1.012        0.563       88.959       23.550        0.070      342.009       17.118      858.294
04/12/2013  13:29:00       66.292       56.986       18.386       57.478       64.196       45.340     3303.675     4121.157     2055.716        0.873        0.474       87.419       25.598        0.086      342.018       17.134      858.269
04/12/2013  13:30:00       78.374      105.020       92.556       97.971       80.850       65.693     9598.282     6536.799     4315.608        2.309        1.023      131.041       63.555        0.235      341.950       17.017      858.228
04/12/2013  13:31:00       66.357       52.658       81.665       82.499       80.109       55.606     6806.049     6417.381     3092.040        1.508        0.816       84.712       53.071        0.392      341.932       16.988      858.217
04/12/2013  13:32:00      101.315       65.778       46.525       66.226       85.532       55.015     4385.837     7315.793     3026.642        1.574        0.736      120.795       41.191        0.116      341.861       16.866      858.193
04/12/2013  13:33:00       57.105      -72.581        9.394       68.643       47.425       32.179     4711.830     2249.160     1035.509        0.831        0.400       92.353       21.531        0.054      341.617       16.453      858.149
04/12/2013  13:34:00       26.472       21.955       40.120       60.266       50.153       27.474     3631.958     2515.353      754.819        0.485        0.345       34.392       23.892        0.483      342.511       17.972      858.086
04/12/2013  13:35:00       87.970      109.415       91.379       95.215       67.609       62.238     9065.836     4571.015     3873.576        2.278        0.876      140.393       53.181        0.143      342.042       17.173      858.051
04/12/2013  13:36:00      146.788       89.978       22.852       47.427       41.344       36.005     2249.278     1709.360     1296.338        1.771        0.263      172.170       21.790        0.016      341.729       16.642      858.038
04/12/2013  13:37:00       97.325       81.489       15.826       39.051       25.436       29.146     1524.954      646.965      849.508        0.969        0.151      126.936       16.148        0.016      341.583       16.397      858.020
04/12/2013  13:38:00       76.889       72.189       20.948       45.481       32.526       38.402     2068.539     1057.945     1474.717        0.808        0.230      105.467       17.901        0.029      341.999       17.102      858.024
04/12/2013  13:39:00       29.153      -16.521       12.563       47.588       54.206       46.892     2264.612     2938.285     2198.879        0.434        0.370       33.509       39.003        1.355      341.900       16.935      858.028
04/12/2013  13:40:00       -0.097       30.495        4.961       36.105       32.787       25.768     1303.603     1074.990      663.995        0.200        0.152       30.495        8.878        0.085      342.213       17.466      857.999
04/12/2013  13:41:00       -0.057        2.166       44.248       22.110       32.637       19.290      488.857     1065.160      372.085        0.194        0.096        2.167       13.736       40.192      342.879       18.598      857.975
04/12/2013  13:42:00       62.649       64.324       49.187       59.711       66.908       57.446     3565.383     4476.678     3299.988        1.091        0.567       89.791       41.128        0.210      342.477       17.914      857.955
04/12/2013  13:43:00       69.731       -9.739        6.504       42.101       85.105       43.655     1772.513     7242.884     1905.792        0.796        0.546       70.408       46.217        0.431      341.950       17.019      857.929
04/12/2013  13:44:00       56.389      -43.687       24.688       73.999       71.947       45.282     5475.863     5176.398     2050.435        0.920        0.635       71.332       28.412        0.159      341.988       17.083      857.904
04/12/2013  13:45:00      115.350       55.339       27.113       87.837       73.853       44.330     7715.425     5454.323     1965.184        1.612        0.757      127.938       38.587        0.091      342.266       17.555      857.880
04/12/2013  13:46:00       79.629       47.765       33.277      100.841       59.124       61.764    10168.841     3495.702     3814.741        1.360        0.874       92.856       64.972        0.490      342.663       18.229      857.851
04/12/2013  13:47:00       -2.847       22.054       69.924       30.776       42.466       28.559      947.181     1803.396      815.602        0.447        0.178       22.237       23.947        1.160      342.739       18.360      857.845
04/12/2013  13:48:00       23.341       53.213       62.333       66.464       55.893       52.849     4417.516     3124.035     2792.994        0.880        0.517       58.107       45.532        0.614      342.618       18.154      857.832
04/12/2013  13:49:00       50.222       19.470       17.833       48.244       60.816       56.411     2327.492     3698.593     3182.150        0.621        0.460       53.863       50.055        0.864      342.156       17.369      857.802
04/12/2013  13:50:00        9.936       18.269        5.074       25.617       19.293       24.413      656.256      372.239      595.982        0.104        0.081       20.796       13.352        0.412      342.640       18.193      857.784
04/12/2013  13:51:00     -140.837      -75.958      -12.863       77.788       58.013       33.764     6051.037     3365.519     1140.041        1.816        0.528      160.014       32.125        0.040      342.165       17.383      857.758
04/12/2013  13:52:00     -122.320      -59.581       -7.223       61.362       52.908       34.093     3765.336     2799.293     1162.330        1.314        0.386      136.059       25.747        0.036      342.125       17.316      857.713
04/12/2013  13:53:00      -34.182      -35.304       11.048       32.609       42.619       28.531     1063.340     1816.362      814.040        0.311        0.185       49.141       24.478        0.248      342.367       17.727      857.707
04/12/2013  13:54:00       81.962     -122.208       15.909       68.454      104.319       51.556     4685.901    10882.456     2658.027        2.006        0.911      147.148       43.750        0.088      342.553       18.041      857.675
04/12/2013  13:55:00       90.033     -141.807       25.779       92.857      102.498       81.488     8622.451    10505.886     6640.283        2.732        1.288      167.973       72.728        0.187      342.477       17.912      857.623
04/12/2013  13:56:00       99.602       86.994       60.244       78.308       55.478       61.417     6132.191     3077.813     3772.002        1.705        0.649      132.244       52.074        0.155      342.424       17.823      857.615
04/12/2013  13:57:00      153.948      157.647       83.356      115.853       81.687      102.533    13421.885     6672.712    10512.958        4.305        1.530      220.346       91.029        0.171      342.254       17.530      857.598
04/12/2013  13:58:00       85.564       98.560      124.586       96.323       98.224       82.525     9278.163     9647.998     6810.345        2.914        1.287      130.519       72.025        0.305      342.566       18.063      857.589
04/12/2013  13:59:00       97.641      190.187      169.996      113.086      100.724       88.839    12788.457    10145.292     7892.294        5.271        1.541      213.787       75.694        0.125      341.827       16.807      857.586
04/12/2013  14:00:00       72.810       94.431      121.437      111.444      139.165       93.392    12419.858    19366.769     8722.105        3.473        2.025      119.242       84.997        0.508      342.154       17.364      857.590
04/12/2013  14:01:00       46.327       16.881       72.016       38.787       47.544       31.315     1504.449     2260.474      980.630        0.618        0.237       49.307       17.057        0.120      342.080       17.239      857.642
04/12/2013  14:02:00       15.043      -63.395        6.784       33.458       35.124       33.227     1119.449     1233.692     1104.035        0.387        0.173       65.155       25.055        0.148      341.621       16.461      857.646
04/12/2013  14:03:00      -60.516       48.556       -4.273       40.929       34.995       28.017     1675.148     1224.633      784.971        0.486        0.184       77.588       25.397        0.107      342.070       17.223      857.608
04/12/2013  14:04:00      -65.516       47.871       10.531       58.538       34.728       29.857     3426.715     1206.026      891.454        0.611        0.276       81.142       35.722        0.194      342.238       17.508      857.583
04/12/2013  14:05:00       30.374       60.059        7.169       29.161       28.554       35.063      850.342      815.358     1229.404        0.374        0.145       67.303       20.327        0.091      342.353       17.703      857.590
04/12/2013  14:06:00       26.540       37.648        9.300       33.258       38.841       26.433     1106.065     1508.651      698.726        0.276        0.166       46.062       11.222        0.059      342.612       18.145      857.585
04/12/2013  14:07:00       98.608      -39.254      -16.278      104.361      124.393       58.940    10891.150    15473.579     3473.914        2.068        1.492      106.134       65.762        0.384      342.527       17.997      857.558
04/12/2013  14:08:00      202.670     -281.141      -59.223       57.870       87.422       34.604     3348.901     7642.565     1197.471        6.790        0.609      346.576       20.774        0.004      342.034       17.157      857.542
04/12/2013  14:09:00      116.382     -164.745      -22.971       61.779       95.790       51.582     3816.585     9175.753     2660.750        2.843        0.783      201.707       31.807        0.025      342.392       17.766      857.539
04/12/2013  14:10:00       67.896      -98.620       14.975       63.228      118.678       46.907     3997.814    14084.424     2200.304        1.742        1.014      119.732       48.386        0.163      342.356       17.707      857.533
04/12/2013  14:11:00       33.428       41.253       62.233       53.765       73.823       45.123     2890.680     5449.901     2036.129        0.853        0.519       53.096       37.743        0.505      342.815       18.490      857.532
04/12/2013  14:12:00       77.175       57.790       18.504       49.313       41.542       36.536     2431.800     1725.776     1334.894        0.756        0.275       96.414       18.513        0.037      342.440       17.854      857.533
04/12/2013  14:13:00       37.625     -111.273       22.429       74.968      100.006       52.594     5620.210    10001.200     2766.117        1.634        0.919      117.462       29.020        0.061      342.784       18.435      857.497
04/12/2013  14:14:00       56.092       -8.372       37.563       47.407       46.055       35.956     2247.382     2121.105     1292.813        0.514        0.283       56.714       36.966        0.425      342.290       17.596      857.488
04/12/2013  14:15:00       24.986        4.911       24.007       24.958       39.101       26.729      622.901     1528.855      714.432        0.204        0.143       25.464       24.014        0.889      342.463       17.889      857.476
04/12/2013  14:16:00       -1.383      -36.100        2.474       41.898       53.127       32.833     1755.434     2822.467     1078.000        0.348        0.283       36.126       22.711        0.395      342.439       17.849      857.465
04/12/2013  14:17:00       -5.742       59.932      -16.594       34.158       55.342       29.464     1166.751     3062.696      868.145        0.450        0.255       60.207       16.897        0.079      342.338       17.678      857.443
04/12/2013  14:18:00      -86.019       -3.095       -9.686       68.782       56.347       24.641     4730.952     3174.979      607.162        0.801        0.426       86.075       29.988        0.121      342.469       17.900      857.428
04/12/2013  14:19:00     -130.513      -60.249      -12.302       54.172       40.968       32.840     2934.599     1678.351     1078.453        1.325        0.285      143.748       32.987        0.053      342.490       17.937      857.406
04/12/2013  14:20:00     -159.946      -55.564      -15.363       38.815       50.570       24.181     1506.573     2557.348      584.729        1.678        0.232      169.322       13.425        0.006      342.521       17.989      857.378
04/12/2013  14:21:00      -90.483      -24.915        5.710       56.755       39.930       26.616     3221.121     1594.433      708.416        0.718        0.276       93.850       27.546        0.086      342.798       18.459      857.349
04/12/2013  14:22:00     -112.849      -33.960       -2.148       38.008       43.615       25.390     1444.611     1902.231      644.667        0.894        0.200      117.849       19.637        0.028      342.419       17.815      857.320
04/12/2013  14:23:00      -49.803       14.423        6.616       64.990       36.994       32.559     4223.690     1368.582     1060.062        0.469        0.333       51.850       36.801        0.504      342.909       18.650      857.295
04/12/2013  14:24:00      -31.718       22.622       13.743       46.579       27.505       30.122     2169.564      756.536      907.328        0.277        0.192       38.959       26.137        0.450      342.948       18.715      857.270
04/12/2013  14:25:00       32.965       53.186        4.679       52.746       43.248       33.968     2782.143     1870.381     1153.795        0.487        0.290       62.573       30.817        0.243      342.776       18.424      857.237
04/12/2013  14:26:00       59.816       38.733       25.954       68.718       38.579       20.119     4722.169     1488.373      404.784        0.618        0.331       71.262       16.541        0.054      342.819       18.495      857.232
04/12/2013  14:27:00       95.128       80.858        7.576       60.125       42.695       30.092     3615.009     1822.876      905.558        1.099        0.317      124.849       10.776        0.007      342.564       18.062      857.234
04/12/2013  14:28:00      106.057       73.975       28.754       51.996       53.441       38.067     2703.591     2855.981     1449.133        1.228        0.350      129.307       32.743        0.064      342.736       18.353      857.246
04/12/2013  14:29:00       30.566      -33.812       12.248       31.487       58.633       35.031      991.436     3437.849     1227.202        0.394        0.283       45.580       31.562        0.479      342.566       18.066      857.253
04/12/2013  14:30:00       11.315      -20.716       14.474       35.799       38.526       28.143     1281.583     1484.270      792.036        0.216        0.178       23.605       23.095        0.957      342.957       18.731      857.251
04/12/2013  14:31:00       48.602      -59.641       10.911       85.673       73.737       52.332     7339.862     5437.144     2738.605        1.077        0.776       76.937       51.097        0.441      343.120       19.008      857.234
04/12/2013  14:32:00       94.026      -80.900       -8.073       47.605       67.586       33.173     2266.217     4567.861     1100.451        1.169        0.397      124.039       37.982        0.094      342.546       18.031      857.224
04/12/2013  14:33:00       31.191       73.026      104.599       61.919      107.110       67.965     3833.915    11472.474     4619.175        1.858        0.996       79.408       77.011        0.941      342.747       18.372      857.190
04/12/2013  14:34:00       80.118      146.992      150.161      102.503       92.678       76.279    10506.766     8589.182     5818.526        3.774        1.246      167.409       68.164        0.166      342.791       18.445      857.172
04/12/2013  14:35:00      128.374      104.221      123.226      137.668      142.554      101.002    18952.510    20321.632    10201.323        4.599        2.474      165.354      109.868        0.441      342.508       17.962      857.144
04/12/2013  14:36:00      101.075      130.051       96.053      100.445       96.916       94.009    10089.265     9392.743     8837.730        3.233        1.416      164.710       76.813        0.217      342.545       18.026      857.158
04/12/2013  14:37:00       46.873       51.528       85.064       70.081       88.235       61.263     4911.383     7785.446     3753.215        1.427        0.823       69.658       62.227        0.798      342.766       18.405      857.178
04/12/2013  14:38:00       34.749       58.779       74.051       52.760       54.709       34.912     2783.624     2993.077     1218.872        0.857        0.350       68.283       27.915        0.167      342.854       18.556      857.172
04/12/2013  14:39:00       43.926       29.257       62.783       77.145       55.590       51.634     5951.393     3090.279     2666.109        0.922        0.585       52.777       27.272        0.267      342.822       18.500      857.163
04/12/2013  14:40:00       77.216       79.714       55.250       48.234       53.133       47.147     2326.541     2823.138     2222.803        1.137        0.369      110.980       30.959        0.078      342.618       18.153      857.155
04/12/2013  14:41:00       88.735      129.670       95.598       91.627       72.601       74.129     8395.531     5270.892     5495.121        2.649        0.958      157.125       58.221        0.137      342.550       18.037      857.133
04/12/2013  14:42:00       22.694        7.514       38.362       44.692       65.201       51.008     1997.368     4251.115     2601.813        0.545        0.443       23.906       49.815        4.342      342.582       18.092      857.137
04/12/2013  14:43:00       66.484       61.806       68.780       76.251       55.711       46.774     5814.140     3103.761     2187.827        1.204        0.555       90.775       33.327        0.135      342.626       18.167      857.133
04/12/2013  14:44:00       92.347       61.723       57.685       57.676       41.909       45.191     3326.492     1756.336     2042.252        1.139        0.356      111.075       28.789        0.067      342.812       18.483      857.127
04/12/2013  14:45:00       18.954       41.173       45.209       46.023       54.346       42.197     2118.117     2953.435     1780.601        0.547        0.343       45.326       25.284        0.311      342.831       18.515      857.103
04/12/2013  14:46:00        9.978       53.350       18.087       38.012       40.890       35.964     1444.932     1672.023     1293.401        0.384        0.221       54.275       29.927        0.304      343.111       18.993      857.086
04/12/2013  14:47:00      -13.250       41.500       22.436       34.826       42.646       24.714     1212.844     1818.701      610.806        0.302        0.182       43.564       23.967        0.303      343.355       19.409      857.075
04/12/2013  14:48:00      108.060       83.850       17.242       67.898       34.974       38.083     4610.189     1223.215     1450.330        1.314        0.364      136.776       20.145        0.022      342.828       18.511      857.062
04/12/2013  14:49:00       75.042       52.558        1.839       46.393       37.253       28.777     2152.337     1387.773      828.128        0.638        0.218       91.617       17.033        0.035      342.513       17.974      857.029
04/12/2013  14:50:00       47.030       90.899       -2.193       63.650       76.608       38.483     4051.375     5868.798     1480.966        1.094        0.570      102.345       33.332        0.106      343.107       18.986      857.002
04/12/2013  14:51:00       94.671       26.519       38.425       66.365       99.117       44.176     4404.313     9824.219     1951.483        1.366        0.809       98.315       29.175        0.088      343.265       19.254      856.991
04/12/2013  14:52:00       53.552       40.670       46.883       62.957       59.652       38.382     3963.591     3558.307     1473.168        0.786        0.450       67.244       36.392        0.293      343.361       19.418      856.979
04/12/2013  14:53:00       72.944       71.084       99.283       92.932      123.363       77.982     8636.368    15218.460     6081.169        2.508        1.497      101.851       79.964        0.616      342.832       18.515      856.947
04/12/2013  14:54:00      150.686      126.095       77.336      107.559       71.864       81.888    11568.885     5164.483     6705.635        3.401        1.172      196.485       61.226        0.097      342.508       17.963      856.935
04/12/2013  14:55:00       78.089       80.495      -20.527       51.035       79.678       31.091     2604.529     6348.657      966.626        1.146        0.496      112.149       25.673        0.052      342.519       17.987      856.946
04/12/2013  14:56:00      108.996       74.021        3.526       47.407       33.568       33.887     2247.377     1126.798     1148.344        1.095        0.226      131.754       14.121        0.011      342.588       18.104      856.907
04/12/2013  14:57:00       96.693      102.455       71.483       79.616       55.349       53.227     6338.706     3063.546     2833.093        1.859        0.612      140.878       53.226        0.143      342.811       18.481      856.860
04/12/2013  14:58:00       86.573       72.418        7.954       36.419       30.540       32.900     1326.340      932.700     1082.433        0.807        0.167      112.869        7.857        0.005      342.696       18.285      856.852
04/12/2013  14:59:00       12.207       42.491       -7.906       41.641       22.163       16.677     1734.003      491.214      278.136        0.226        0.125       44.209       15.581        0.124      342.773       18.416      856.829
04/12/2013  15:00:00      -75.063       44.568      -36.727       55.815       34.027       24.266     3115.343     1157.830      588.847        0.691        0.243       87.297       12.019        0.019      342.733       18.350      856.798
04/12/2013  15:01:00     -137.234      121.495      -27.249       44.664       72.001       32.241     1994.909     5184.152     1039.487        2.128        0.411      183.287       33.858        0.034      342.842       18.534      856.755
04/12/2013  15:02:00     -132.641       99.094      -31.165       48.893       52.974       33.057     2390.562     2806.226     1092.733        1.734        0.314      165.570       36.904        0.050      342.798       18.459      856.735
04/12/2013  15:03:00     -131.838      154.571      -35.433      102.179       73.563       44.392    10440.626     5411.455     1970.663        3.017        0.891      203.159       53.831        0.070      342.788       18.439      856.716
04/12/2013  15:04:00      -22.113       79.376       -1.475       33.841       42.820       29.433     1145.212     1833.562      866.313        0.532        0.192       82.399       22.702        0.076      343.053       18.893      856.694
04/12/2013  15:05:00      -50.765       64.317       -5.018       43.350       63.228       29.438     1879.234     3997.819      866.612        0.674        0.337       81.937       34.572        0.178      343.031       18.856      856.674
04/12/2013  15:06:00       10.057       47.765       -2.059       36.736       63.811       25.693     1349.541     4071.833      660.112        0.423        0.304       48.813       11.422        0.055      342.900       18.633      856.663
04/12/2013  15:07:00       67.014      -96.849       -8.657       38.055       45.693       35.336     1448.200     2087.831     1248.665        0.936        0.239      117.773       21.862        0.034      343.022       18.840      856.635
04/12/2013  15:08:00       67.995        3.979       15.860       57.980       92.331       41.695     3361.699     8525.101     1738.456        0.926        0.681       68.111       33.235        0.238      343.231       19.197      856.572
04/12/2013  15:09:00      114.907     -106.708       20.933       70.666      133.871       59.854     4993.629    17921.344     3582.512        2.576        1.325      156.812       78.430        0.250      343.115       18.997      856.538
04/12/2013  15:10:00      254.021     -304.048      -64.929      104.350      127.739       61.636    10889.016    16317.268     3799.029        9.609        1.550      396.197       51.039        0.017      342.790       18.443      856.462
04/12/2013  15:11:00      140.239     -243.915      -42.371      101.015       91.509       51.543    10203.944     8373.984     2656.730        5.109        1.062      281.357       46.991        0.028      342.646       18.197      856.443
04/12/2013  15:12:00       97.298     -165.505       -6.037      111.809      146.567       84.285    12501.242    21481.921     7104.040        3.898        2.054      191.986       93.050        0.235      343.052       18.891      856.404
04/12/2013  15:13:00       58.797     -123.493        2.422       93.617       89.894       40.962     8764.078     8080.982     1677.854        1.862        0.926      136.775       43.691        0.102      342.943       18.706      856.415
04/12/2013  15:14:00      -35.286      -45.980      -13.741       57.145       57.018       38.638     3265.541     3250.998     1492.895        0.578        0.400       57.959       28.883        0.248      343.060       18.905      856.366
04/12/2013  15:15:00       38.873      -18.974       17.385       58.210       60.226       36.164     3388.353     3627.135     1307.840        0.525        0.416       43.257       34.185        0.625      343.049       18.888      856.329
04/12/2013  15:16:00       -2.281        5.463       51.946       32.193       50.370       39.028     1036.359     2537.145     1523.159        0.391        0.255        5.920       35.397       35.747      343.589       19.807      856.316
04/12/2013  15:17:00       38.594      -28.013       12.965       50.426       41.111       33.314     2542.827     1690.144     1109.815        0.389        0.267       47.688       33.549        0.495      343.390       19.468      856.291
04/12/2013  15:18:00       39.264      -14.605        9.121       49.476       91.985       41.768     2447.893     8461.153     1744.547        0.724        0.633       41.892       43.721        1.089      343.450       19.570      856.280
04/12/2013  15:19:00      121.156      105.974        5.560       83.998       37.117       54.869     7055.624     1377.681     3010.633        1.869        0.572      160.963       39.720        0.061      342.990       18.784      856.259
04/12/2013  15:20:00      158.451      112.156       16.276       73.652       78.266       50.759     5424.593     6125.514     2576.501        2.604        0.706      194.128       32.357        0.028      343.267       19.255      856.243
04/12/2013  15:21:00       77.621       73.415       42.638       78.792       57.128       45.855     6208.146     3263.582     2102.676        1.240        0.579      106.840       42.243        0.156      343.561       19.757      856.243
04/12/2013  15:22:00       47.421      -45.133        5.117       68.994      113.803       41.467     4760.117    12951.193     1719.505        1.187        0.972       65.465       54.079        0.682      343.374       19.438      856.251
04/12/2013  15:23:00       76.007     -101.593        1.038       71.411       84.720       56.627     5099.568     7177.492     3206.632        1.579        0.774      126.879       56.500        0.198      343.182       19.112      856.231
04/12/2013  15:24:00       41.328       45.713        6.524       57.373      127.406       51.904     3291.670    16232.315     2694.018        1.303        1.111       61.626       51.067        0.687      343.162       19.079      856.244
04/12/2013  15:25:00       29.729      109.994       -4.360       81.637       93.578       48.092     6664.670     8756.781     2312.816        1.536        0.887      113.941       43.936        0.149      343.464       19.593      856.232
04/12/2013  15:26:00       34.165       84.640        1.129       79.047       84.811       60.171     6248.389     7192.912     3620.604        1.269        0.853       91.275       51.474        0.318      343.283       19.284      856.217
04/12/2013  15:27:00       51.226       70.971       15.662       81.673       76.159       61.741     6670.410     5800.130     3811.915        1.209        0.814       87.527       51.717        0.349      343.228       19.192      856.196
04/12/2013  15:28:00       77.951       72.361        5.344       60.943       52.949       47.517     3714.029     2803.616     2257.831        1.006        0.439      106.360       36.205        0.116      343.259       19.246      856.171
04/12/2013  15:29:00       39.550       63.324       -5.105       44.178       50.987       27.943     1951.684     2599.624      780.792        0.547        0.267       74.660       26.801        0.129      343.228       19.190      856.137
04/12/2013  15:30:00       68.878       64.913        3.570       61.704       36.073       35.396     3807.423     1301.265     1252.846        0.767        0.318       94.646       23.638        0.062      343.234       19.202      856.108
04/12/2013  15:31:00       29.385       29.015        4.821       35.751       28.941       22.092     1278.131      837.592      488.047        0.217        0.130       41.296       14.298        0.120      343.340       19.384      856.088
04/12/2013  15:32:00       19.926       36.680       -9.572       26.754       35.258       30.755      715.790     1243.109      945.893        0.237        0.145       41.743       14.025        0.113      343.528       19.702      856.069
04/12/2013  15:33:00       16.546      -83.798       -7.212       44.841       42.783       23.706     2010.679     1830.377      561.986        0.587        0.220       85.416       13.419        0.025      343.135       19.033      856.048
04/12/2013  15:34:00       14.409      -55.539       -0.467       59.358       41.562       34.307     3523.399     1727.363     1176.979        0.486        0.321       57.377       32.959        0.330      343.172       19.097      856.023
04/12/2013  15:35:00       -0.226      -19.071       -3.988       35.686       65.078       22.225     1273.463     4235.095      493.952        0.319        0.300       19.072       17.524        0.844      343.496       19.648      856.006
04/12/2013  15:36:00       54.683       26.684       11.339       41.143       39.687       24.781     1692.714     1575.095      614.085        0.386        0.194       60.846       14.854        0.060      343.520       19.689      856.000
04/12/2013  15:37:00       98.845       64.757       30.662       31.302       28.994       26.399      979.819      840.638      696.909        0.871        0.126      118.169       12.814        0.012      343.266       19.257      855.991
04/12/2013  15:38:00       65.925        6.915        4.585       74.931       70.471       29.163     5614.603     4966.223      850.501        0.792        0.572       66.287       10.626        0.026      343.283       19.285      855.979
04/12/2013  15:39:00      106.303       99.080      101.241       84.754       76.497       68.517     7183.305     5851.732     4694.578        2.455        0.886      145.317       55.041        0.143      343.220       19.176      855.953
04/12/2013  15:40:00       72.989       39.283       96.076       88.838       75.017       58.654     7892.178     5627.580     3440.284        1.653        0.848       82.889       60.446        0.532      343.157       19.069      855.953
04/12/2013  15:41:00      124.704       76.780       31.412      104.596       86.764       46.354    10940.243     7527.944     2148.707        2.152        1.031      146.445       48.222        0.108      343.304       19.320      855.964
04/12/2013  15:42:00      156.430       79.792       21.349       94.724       68.248       60.567     8972.635     4657.851     3668.313        2.429        0.865      175.605       34.423        0.038      343.111       18.989      855.958
04/12/2013  15:43:00      144.442      120.162        7.869       82.709       68.368       54.590     6840.812     4674.206     2980.032        2.493        0.725      187.889       41.475        0.049      343.145       19.048      855.939
04/12/2013  15:44:00       70.048      101.731      -11.994       91.059       79.416       55.200     8291.744     6306.966     3046.993        1.652        0.882      123.514       52.113        0.178      343.203       19.147      855.925
04/12/2013  15:45:00      120.324       93.632        8.527       32.157       37.667       35.341     1034.093     1418.840     1248.955        1.351        0.185      152.463        2.729        0.000      342.974       18.759      855.929
04/12/2013  15:46:00      112.223       60.874       22.247       37.223       41.020       26.401     1385.585     1682.677      696.994        1.028        0.188      127.670       16.344        0.016      343.133       19.030      855.923
04/12/2013  15:47:00       77.970       55.826       34.393       45.602       53.425       43.565     2079.587     2854.223     1897.932        0.860        0.342       95.895       26.466        0.076      343.164       19.084      855.917
04/12/2013  15:48:00       73.761      -28.023       38.841       55.260      114.941       51.941     3053.706    13211.479     2697.910        1.335        0.948       78.905       52.311        0.440      343.299       19.312      855.888
04/12/2013  15:49:00       54.919      -68.509       20.886       52.993       56.986       39.839     2808.258     3247.361     1587.159        0.789        0.382       87.804       41.319        0.221      343.378       19.449      855.877
04/12/2013  15:50:00        6.167      -21.529       -4.375       20.662       45.087       25.991      426.908     2032.856      675.543        0.183        0.157       22.395       12.398        0.306      343.130       19.026      855.875
04/12/2013  15:51:00       10.630      -26.248        5.808       45.520       80.385       49.438     2072.076     6461.803     2444.163        0.591        0.549       28.319       35.690        1.588      343.643       19.899      855.881
04/12/2013  15:52:00       44.296      -79.139       15.560       47.511      115.627       67.025     2257.341    13369.676     4492.293        1.429        1.006       90.693       73.835        0.663      343.362       19.420      855.891
04/12/2013  15:53:00       18.191      -69.221      -14.103       48.602       40.337       25.226     2362.118     1627.053      636.355        0.497        0.231       71.572       17.006        0.056      343.232       19.199      855.911
04/12/2013  15:54:00      -17.227      -52.123      -20.802       46.535       38.437       20.426     2165.509     1477.381      417.226        0.375        0.203       54.896        5.318        0.009      343.376       19.444      855.909
04/12/2013  15:55:00       16.415      -41.265       -2.209       33.317       57.011       40.976     1110.015     3250.279     1679.002        0.401        0.302       44.410       39.107        0.775      343.521       19.691      855.915
04/12/2013  15:56:00      -11.719        5.451       35.646       28.077       42.592       36.223      788.344     1814.096     1312.098        0.268        0.196       12.925       29.285        5.134      344.145       20.756      855.901
04/12/2013  15:57:00     -104.782      -36.095       -1.129       79.722       47.682       39.512     6355.542     2273.585     1561.200        1.124        0.510      110.825       40.806        0.136      343.878       20.300      855.887
04/12/2013  15:58:00      -73.100      -31.498        0.684       61.880       41.390       31.860     3829.083     1713.107     1015.063        0.645        0.328       79.597       29.958        0.142      343.541       19.725      855.867
04/12/2013  15:59:00       -5.686       -3.757       10.146       48.183       43.495       28.266     2321.609     1891.803      798.952        0.258        0.251        6.816       15.165        4.951      343.484       19.628      855.859
04/12/2013  16:00:00      -12.793      -49.596       10.949       56.312       49.843       42.617     3171.050     2484.334     1816.195        0.511        0.374       51.219       32.892        0.412      343.385       19.459      855.835
04/12/2013  16:01:00      -73.907      -96.398      -16.312       54.795       64.565       35.453     3002.504     4168.605     1256.913        1.172        0.421      121.469       30.068        0.061      343.838       20.231      855.820
04/12/2013  16:02:00       -6.770     -101.374        8.921       62.821       67.318       58.527     3946.527     4531.718     3425.387        1.115        0.595      101.600       20.875        0.042      343.733       20.052      855.806
04/12/2013  16:03:00       20.022     -120.671      -18.752       53.831       73.993       31.886     2897.799     5474.931     1016.694        1.235        0.469      122.321       22.068        0.033      343.771       20.116      855.791
04/12/2013  16:04:00       -2.583      -37.917       16.604       40.322       41.900       30.970     1625.897     1755.569      959.160        0.303        0.217       38.005       14.444        0.144      343.965       20.449      855.776
04/12/2013  16:05:00        1.182        9.439       33.571       32.771       34.312       27.315     1073.933     1177.339      746.099        0.211        0.150        9.513       24.109        6.423      343.952       20.426      855.755
04/12/2013  16:06:00       23.366      -37.326       19.377       54.662      101.541       47.306     2987.916    10310.637     2237.847        0.892        0.777       44.037       50.043        1.291      343.691       19.980      855.740
04/12/2013  16:07:00      109.532        9.647       40.223       59.615       93.120       49.308     3553.968     8671.364     2431.238        1.418        0.733      109.956       44.981        0.167      343.373       19.439      855.740
04/12/2013  16:08:00      151.634       67.981       32.802       63.962       51.439       39.746     4091.150     2645.988     1579.742        1.850        0.416      166.176       32.387        0.038      343.471       19.604      855.740
04/12/2013  16:09:00      106.503       60.901       47.737       82.665       57.201       49.965     6833.473     3271.912     2496.521        1.496        0.630      122.686       44.484        0.131      343.433       19.539      855.732
04/12/2013  16:10:00      118.857       34.867       27.409       93.989       65.998       47.015     8833.910     4355.770     2210.419        1.574        0.770      123.866       44.493        0.129      343.488       19.635      855.722
04/12/2013  16:11:00      122.626       62.071       18.639       80.961       48.132       39.722     6554.648     2316.647     1577.842        1.484        0.522      137.441       27.962        0.041      343.538       19.720      855.711
04/12/2013  16:12:00       14.400        8.886       15.569       47.440       45.909       31.000     2250.545     2107.593      960.998        0.292        0.266       16.921       19.342        1.307      344.019       20.540      855.695
04/12/2013  16:13:00        0.782      -24.660       20.981       52.415       53.555       50.873     2747.328     2868.178     2588.094        0.462        0.410       24.672       30.408        1.519      343.752       20.085      855.687
04/12/2013  16:14:00       38.481       -1.299       51.287       48.360       69.718       43.978     2338.673     4860.649     1934.097        0.662        0.457       38.502       34.464        0.801      343.687       19.974      855.679
04/12/2013  16:15:00       88.510      -75.979       12.844       66.099       95.870       55.213     4369.035     9190.985     3048.517        1.519        0.830      116.648       64.684        0.307      343.615       19.851      855.668
04/12/2013  16:16:00       20.241      -29.397       36.658       45.755      107.455       43.615     2093.522    11546.503     1902.268        0.908        0.777       35.692       63.756        3.191      343.534       19.713      855.660
04/12/2013  16:17:00       24.135       34.145       40.572       36.391       33.752       26.166     1324.272     1139.189      684.680        0.327        0.157       41.813       17.817        0.182      343.394       19.474      855.627
04/12/2013  16:18:00       20.841        9.614       36.393       40.054       28.735       19.385     1604.342      825.694      375.795        0.233        0.140       22.952       18.690        0.663      343.548       19.738      855.591
04/12/2013  16:19:00       44.111       38.578        4.926       61.471       40.459       37.353     3778.671     1636.906     1395.251        0.513        0.341       58.601       25.504        0.189      343.502       19.658      855.568
04/12/2013  16:20:00       77.286       48.060        7.837       59.220       38.443       33.545     3507.048     1477.894     1125.259        0.723        0.306       91.011       24.194        0.071      343.511       19.674      855.559
04/12/2013  16:21:00       34.588      -16.562      -10.427       38.375       31.172       29.197     1472.671      971.678      852.438        0.244        0.165       38.348       23.652        0.380      343.449       19.569      855.564
04/12/2013  16:22:00       23.161       13.977       29.777       48.329       60.630       38.487     2335.684     3675.947     1481.275        0.455        0.375       27.052       20.479        0.573      343.243       19.219      855.546
04/12/2013  16:23:00       57.871     -105.971       14.728       58.109       89.784       49.540     3376.709     8061.155     2454.220        1.434        0.695      120.743       31.447        0.068      343.637       19.887      855.528
04/12/2013  16:24:00       54.128      -27.247       25.132       53.271       69.840       43.839     2837.817     4877.640     1921.815        0.697        0.482       60.598       43.356        0.512      343.467       19.600      855.518
04/12/2013  16:25:00       16.105      -64.589       13.325       48.379       71.466       45.511     2340.562     5107.354     2071.237        0.706        0.476       66.567       33.027        0.246      343.904       20.343      855.511
04/12/2013  16:26:00       58.983     -107.293       -4.338       60.247       68.635       38.170     3629.659     4710.730     1456.944        1.240        0.490      122.437       34.275        0.078      343.893       20.326      855.521
04/12/2013  16:27:00       55.311      -60.655       15.108       38.548       60.835       40.767     1485.943     3700.855     1661.961        0.691        0.342       82.087       13.896        0.029      343.262       19.251      855.523
04/12/2013  16:28:00       -6.478      -61.002        7.155       30.157       47.854       31.793      909.461     2290.023     1010.768        0.401        0.211       61.345       12.395        0.041      343.570       19.776      855.530
04/12/2013  16:29:00       87.118     -116.191      -16.311       41.660       37.762       32.681     1735.541     1425.934     1068.020        1.279        0.211      145.223       19.263        0.018      343.360       19.417      855.524
04/12/2013  16:30:00       72.226     -131.759       -5.853       56.004       48.774       38.948     3136.432     2378.924     1516.921        1.482        0.352      150.257       26.756        0.032      343.727       20.042      855.514
04/12/2013  16:31:00      112.088     -194.124      -31.107       54.190       69.746       31.437     2936.562     4864.493      988.282        3.000        0.439      224.161       34.817        0.024      343.482       19.622      855.506
04/12/2013  16:32:00       -6.256        4.955       30.094       32.673       46.373       28.226     1067.557     2150.429      796.694        0.249        0.201        7.981       23.047        8.340      343.611       19.844      855.517
04/12/2013  16:33:00       36.781       30.294        9.537       54.422       44.490       29.453     2961.806     1979.387      867.496        0.408        0.290       47.650       23.006        0.233      343.594       19.817      855.535
04/12/2013  16:34:00       33.048       75.916      -15.572       38.115       65.191       31.798     1452.750     4249.845     1011.127        0.690        0.336       82.797       31.826        0.148      343.617       19.855      855.539
04/12/2013  16:35:00       47.314       20.180       -6.526       44.076       40.144       27.374     1942.687     1611.522      749.330        0.350        0.215       51.438       23.530        0.209      343.518       19.685      855.523
04/12/2013  16:36:00        4.554      180.362      -26.346       29.653       52.129       19.816      879.272     2717.482      392.669        1.862        0.199      180.420       13.919        0.006      343.565       19.764      855.519
04/12/2013  16:37:00      -41.094      207.924      -28.327       38.976       55.767       24.116     1519.108     3109.903      581.567        2.547        0.261      211.946       23.698        0.013      343.474       19.607      855.510
04/12/2013  16:38:00     -142.946      123.927      -30.043       58.202       62.079       34.405     3387.508     3853.789     1183.705        2.256        0.421      189.187       27.992        0.022      343.864       20.273      855.495
04/12/2013  16:39:00      -89.107       54.841       -3.199       57.650       38.581       36.187     3323.564     1488.506     1309.469        0.854        0.306      104.631       28.367        0.074      343.992       20.494      855.505
04/12/2013  16:40:00      -35.926       88.663       -2.024       53.351       46.433       33.917     2846.374     2156.050     1150.336        0.765        0.308       95.665       28.366        0.088      343.880       20.304      855.512
04/12/2013  16:41:00      -43.242       74.000      -13.512       44.611       32.213       21.220     1990.114     1037.698      450.295        0.550        0.174       85.708       18.619        0.047      343.663       19.932      855.523
04/12/2013  16:42:00        2.579       47.451       14.052       16.746       28.915       16.940      280.435      836.080      286.948        0.193        0.070       47.521        6.365        0.018      343.721       20.032      855.522
04/12/2013  16:43:00       54.753       62.335        4.652       38.080       35.158       27.979     1450.072     1236.073      782.797        0.519        0.173       82.967       20.160        0.059      343.698       19.993      855.528
04/12/2013  16:44:00       19.646       44.310       23.630       39.857       44.488       33.495     1588.570     1979.170     1121.915        0.380        0.234       48.470       26.626        0.302      343.838       20.232      855.526
04/12/2013  16:45:00       58.526       63.789       18.327       48.098       36.941       29.380     2313.388     1364.643      863.180        0.618        0.227       86.569       18.120        0.044      343.767       20.110      855.521
04/12/2013  16:46:00       31.367       30.526        8.427       43.107       33.897       25.125     1858.239     1149.016      631.284        0.281        0.182       43.769       14.608        0.111      343.875       20.295      855.513
04/12/2013  16:47:00       50.029       38.496       19.191       66.254       44.378       46.949     4389.600     1969.447     2204.185        0.646        0.428       63.126       18.990        0.091      343.925       20.380      855.502
04/12/2013  16:48:00      120.556       62.492       23.839       54.002       45.667       40.030     2916.254     2085.518     1602.363        1.280        0.330      135.790       28.116        0.043      343.700       19.995      855.500
04/12/2013  16:49:00       75.838       67.613       40.875       47.916       37.939       39.480     2295.917     1439.380     1558.700        0.864        0.265      101.602       19.402        0.036      343.775       20.125      855.497
04/12/2013  16:50:00       76.332       80.985       54.358       59.750       82.623       56.140     3570.089     6826.616     3151.646        1.444        0.677      111.289       50.064        0.202      343.612       19.846      855.491
04/12/2013  16:51:00       45.595      -84.072        1.850       30.311       45.645       35.148      918.787     2083.490     1235.400        0.669        0.212       95.640       21.612        0.051      343.136       19.035      855.490
04/12/2013  16:52:00       78.119      -42.530       32.900       49.303       54.734       37.864     2430.738     2995.837     1433.677        0.793        0.343       88.946       33.347        0.141      343.062       18.909      855.475
04/12/2013  16:53:00       89.844        4.102       24.886       82.811       96.779       41.445     6857.601     9366.084     1717.711        1.332        0.897       89.938       42.066        0.219      343.628       19.873      855.456
04/12/2013  16:54:00      114.655       77.930       58.465       47.992       52.244       51.082     2303.261     2729.411     2609.333        1.514        0.382      138.632       35.688        0.066      343.601       19.828      855.454
04/12/2013  16:55:00      104.938       68.244       26.591       39.600       35.324       28.292     1568.134     1247.803      800.458        1.000        0.181      125.177       11.312        0.008      343.646       19.903      855.450
04/12/2013  16:56:00       71.455       43.158       -0.787       54.210       40.474       29.608     2938.774     1638.151      876.656        0.621        0.273       83.477       26.787        0.103      343.503       19.660      855.441
04/12/2013  16:57:00       56.772       54.250       35.313       58.965       33.229       27.423     3476.929     1104.149      752.010        0.637        0.267       78.525       16.595        0.045      343.572       19.779      855.431
04/12/2013  16:58:00       74.958       16.881       12.413       46.671       47.621       32.677     2178.217     2267.726     1067.771        0.578        0.276       76.835       30.577        0.158      343.712       20.016      855.417
04/12/2013  16:59:00        2.728        2.825       15.650       25.131       28.817       27.161      631.592      830.431      737.732        0.123        0.110        3.927       14.737       14.082      344.014       20.533      855.414
04/12/2013  17:00:00       22.523       23.787       -9.953       38.307       26.070       17.506     1467.405      679.663      306.450        0.181        0.123       32.758       14.461        0.195      343.907       20.350      855.408
04/12/2013  17:01:00       23.138       -5.802       -5.891       48.528       52.517       24.391     2355.010     2758.032      594.905        0.315        0.285       23.855        8.128        0.116      343.592       19.811      855.389
04/12/2013  17:02:00       19.569       18.809       26.770       34.097       34.403       23.151     1162.590     1183.574      535.977        0.217        0.144       27.142       14.640        0.291      343.720       20.030      855.363
04/12/2013  17:03:00       -5.083       41.030       58.062       47.788       39.778       46.978     2283.723     1582.269     2206.904        0.558        0.304       41.343       37.631        0.828      343.549       19.739      855.353
04/12/2013  17:04:00       47.311       26.301       27.224       38.918       24.719       34.280     1514.610      611.019     1175.104        0.349        0.165       54.130       15.229        0.079      343.320       19.348      855.352
04/12/2013  17:05:00       55.647       16.143       10.411       25.484       25.331       25.795      649.445      641.674      665.375        0.271        0.098       57.941       13.477        0.054      343.331       19.368      855.343
04/12/2013  17:06:00        4.167      -13.348        1.736       21.865       22.792       19.639      478.071      519.460      385.706        0.079        0.069       13.983        9.625        0.474      343.693       19.985      855.349
04/12/2013  17:07:00      -36.070      -15.817        1.348       49.719       27.389       22.581     2471.954      750.137      509.891        0.264        0.187       39.386       13.303        0.114      343.779       20.132      855.343
04/12/2013  17:08:00      -36.368       -6.290       12.337       50.428       32.044       26.240     2543.011     1026.812      688.520        0.289        0.213       36.908       21.005        0.324      343.977       20.470      855.352
04/12/2013  17:09:00      -96.243      -44.706      -19.063       24.206       33.527       24.650      585.930     1124.044      607.617        0.697        0.116      106.120       23.054        0.047      343.683       19.968      855.354
04/12/2013  17:10:00     -102.525      -61.280      -25.626       34.572       32.134       18.843     1195.232     1032.586      355.074        0.875        0.129      119.443       15.690        0.017      343.757       20.092      855.345
04/12/2013  17:11:00      -23.448      -13.435      -18.965       41.850       29.125       21.139     1751.411      848.269      446.867        0.207        0.152       27.025       13.792        0.260      343.921       20.375      855.331
04/12/2013  17:12:00       23.591        3.496       21.015       27.572       31.223       21.364      760.199      974.845      456.441        0.160        0.110       23.849       17.135        0.516      343.848       20.250      855.312
04/12/2013  17:13:00        9.213      -25.431        1.936       16.988       24.018       16.555      288.603      576.880      274.083        0.094        0.057       27.049       11.000        0.165      343.632       19.879      855.293
04/12/2013  17:14:00        1.937      -20.548       10.411       57.235       37.160       25.410     3275.880     1380.843      645.668        0.292        0.265       20.639       20.119        0.950      343.785       20.141      855.281
04/12/2013  17:15:00      -34.812      -31.591       14.105       87.927       49.283       33.040     7731.158     2428.774     1091.630        0.683        0.563       47.009       29.765        0.401      343.943       20.411      855.281
04/12/2013  17:16:00      -42.718      -42.179        7.489       73.813       48.603       36.628     5448.382     2362.251     1341.625        0.640        0.458       60.033       22.357        0.139      343.945       20.415      855.281
04/12/2013  17:17:00      -47.694      -23.047       -2.100       82.816       38.488       31.801     6858.528     1481.311     1011.304        0.608        0.468       52.970       26.465        0.250      344.030       20.561      855.288
04/12/2013  17:18:00      -58.171        5.603       10.530       43.569       31.606       22.073     1898.265      998.952      487.231        0.345        0.169       58.440       13.026        0.050      343.993       20.496      855.290
04/12/2013  17:19:00      -53.310      -37.228       -9.181       32.792       22.435       21.827     1075.311      503.330      476.400        0.318        0.103       65.022       15.470        0.057      344.123       20.718      855.283
04/12/2013  17:20:00      -28.889      -54.408       -8.812       54.393       31.779       33.227     2958.608     1009.904     1104.014        0.447        0.254       61.602       26.413        0.184      344.056       20.604      855.281
04/12/2013  17:21:00      -19.117      -21.302       -0.168       41.932       34.889       28.583     1758.320     1217.264      817.002        0.231        0.190       28.622       23.516        0.675      344.057       20.606      855.283
04/12/2013  17:22:00       30.383      -37.436        2.599       39.602       56.532       28.793     1568.318     3195.888      829.009        0.396        0.280       48.214       26.322        0.298      343.957       20.434      855.285
04/12/2013  17:23:00       71.956     -119.315      -12.267       61.092       87.701       42.317     3732.291     7691.453     1790.768        1.639        0.661      139.333       41.738        0.090      344.116       20.705      855.276
04/12/2013  17:24:00       74.872      -31.348       33.325       67.041       35.353       27.257     4494.494     1249.803      742.920        0.709        0.324       81.170       22.188        0.075      343.860       20.269      855.300
04/12/2013  17:25:00       38.467      -75.735        9.702       61.074       44.597       26.983     3730.072     1988.927      728.057        0.688        0.322       84.944       18.731        0.049      343.900       20.337      855.289
04/12/2013  17:26:00        4.926      -15.871       21.913       23.436       55.630       33.878      549.253     3094.663     1147.737        0.277        0.240       16.618       33.551        4.076      343.897       20.333      855.285
04/12/2013  17:27:00      -36.471      -56.778        2.686       31.503       48.270       36.666      992.454     2330.014     1344.361        0.461        0.233       67.482       11.524        0.029      344.119       20.712      855.271
04/12/2013  17:28:00      -13.702      -65.558       -0.467       38.621       40.748       29.918     1491.557     1660.413      895.103        0.427        0.202       66.975       17.289        0.067      344.300       21.020      855.271
04/12/2013  17:29:00       83.109     -144.800       -4.010       37.375       43.781       30.639     1396.908     1916.749      938.719        1.607        0.213      166.956       17.305        0.011      343.866       20.279      855.266
04/12/2013  17:30:00       71.306     -104.364      -17.307       54.035       57.542       51.453     2919.731     3311.112     2647.455        1.258        0.444      126.398       46.268        0.134      343.881       20.304      855.253
04/12/2013  17:31:00       44.478      -54.501        3.185       48.490       55.780       42.209     2351.267     3111.423     1781.604        0.610        0.362       70.347       36.487        0.269      343.837       20.230      855.253
04/12/2013  17:32:00       39.134      -44.657        8.958       45.687       49.753       30.197     2087.315     2475.374      911.841        0.454        0.274       59.378       28.832        0.236      343.818       20.198      855.239
04/12/2013  17:33:00       16.943       -9.995       37.317       36.021       72.769       31.856     1297.488     5295.334     1014.788        0.469        0.380       19.671       34.842        3.137      343.811       20.186      855.222
04/12/2013  17:34:00       -3.737     -116.717        2.023       56.547       67.814       45.468     3197.587     4598.711     2067.340        1.175        0.493      116.777       40.372        0.120      343.916       20.365      855.214
04/12/2013  17:35:00       17.204       -6.710       25.326       29.249       38.250       30.992      855.475     1463.036      960.505        0.213        0.164       18.466       20.261        1.204      343.787       20.145      855.217
04/12/2013  17:36:00       14.353       12.212       34.109       29.202       40.224       23.044      852.781     1617.965      531.015        0.226        0.150       18.846       21.983        1.361      343.555       19.749      855.201
04/12/2013  17:37:00       37.142      -71.995      -11.540       52.512       53.868       50.275     2757.543     2901.797     2527.555        0.744        0.409       81.011       37.195        0.211      343.643       19.900      855.191
04/12/2013  17:38:00       55.787      -87.031       -6.712       42.809       67.024       38.855     1832.650     4492.212     1509.681        0.928        0.392      103.376       41.157        0.159      343.836       20.228      855.192
04/12/2013  17:39:00       36.081      -57.731       14.483       47.562       73.059       40.033     2262.118     5337.618     1602.625        0.702        0.460       68.078       47.398        0.485      343.875       20.295      855.191
04/12/2013  17:40:00       36.033      -50.009       27.467       50.430       94.132       42.215     2543.235     8860.895     1782.094        0.887        0.659       61.638       43.496        0.498      343.952       20.426      855.192
04/12/2013  17:41:00        8.904     -117.654        8.193       40.469       80.459       51.396     1637.749     6473.603     2641.519        1.237        0.538      117.991       46.486        0.155      344.084       20.651      855.193
04/12/2013  17:42:00       74.883      -96.315       -2.735       60.017      108.470       48.017     3602.060    11765.778     2305.626        1.628        0.884      122.000       64.513        0.280      343.932       20.392      855.212
04/12/2013  17:43:00       72.392      -89.270        2.553       41.077       53.653       29.869     1687.282     2878.647      892.174        0.934        0.273      114.933       19.900        0.030      343.838       20.232      855.205
04/12/2013  17:44:00       15.140      -61.040       15.725       32.479       77.245       45.745     1054.866     5966.760     2092.585        0.666        0.456       62.890       51.942        0.682      344.043       20.581      855.189
04/12/2013  17:45:00      -59.874      -76.062        0.597       52.323       86.497       35.372     2737.653     7481.812     1251.211        1.042        0.574       96.800       41.760        0.186      344.227       20.894      855.179
04/12/2013  17:46:00      -23.108      -42.885        3.746       40.139       38.897       27.474     1611.133     1513.004      754.845        0.313        0.194       48.715       23.136        0.226      344.513       21.385      855.157
04/12/2013  17:47:00      -30.883      -34.112        7.126       40.997       32.706       27.302     1680.789     1069.712      745.418        0.283        0.175       46.015       24.500        0.283      344.404       21.199      855.138
04/12/2013  17:48:00       -6.802      -50.887        3.424       51.954       50.382       35.362     2699.222     2538.323     1250.448        0.457        0.324       51.340       31.717        0.382      344.304       21.027      855.128
04/12/2013  17:49:00      -20.105       12.557       31.074       36.954       38.765       31.378     1365.631     1502.751      984.584        0.269        0.193       23.705       22.677        0.915      344.221       20.886      855.104
04/12/2013  17:50:00        7.369      -61.971       18.324       44.797       63.155       40.569     2006.768     3988.603     1645.873        0.593        0.382       62.408       40.906        0.430      344.071       20.629      855.076
04/12/2013  17:51:00      -28.243      -97.474      -20.549       49.109       40.255       29.373     2411.711     1620.446      862.800        0.781        0.245      101.483       16.724        0.027      344.301       21.022      855.067
04/12/2013  17:52:00        8.699       52.985        5.401       40.471       28.472       30.361     1637.908      810.665      921.781        0.314        0.169       53.694       26.855        0.250      343.950       20.424      855.052
04/12/2013  17:53:00       69.879      -18.964       20.548       44.230       45.153       29.031     1956.278     2038.788      842.792        0.525        0.242       72.407       21.572        0.089      343.787       20.144      855.032
04/12/2013  17:54:00       31.543       10.958       46.186       39.947       34.715       23.354     1595.797     1205.124      545.403        0.330        0.167       33.392       16.419        0.242      343.452       19.574      855.016
04/12/2013  17:55:00       17.724       35.625       15.733       20.045       14.692       16.631      401.788      215.849      276.580        0.136        0.045       39.791       13.199        0.110      343.697       19.992      854.999
04/12/2013  17:56:00       64.195       30.834        3.670       47.133       26.649       19.833     2221.500      710.151      393.359        0.420        0.166       71.216       16.473        0.054      343.723       20.035      854.978
04/12/2013  17:57:00       31.482       13.783       -0.691       46.964       36.264       24.113     2205.578     1315.051      581.455        0.264        0.205       34.367       11.911        0.120      343.924       20.379      854.968
04/12/2013  17:58:00      -11.032      -19.833        4.872       32.478       36.414       17.623     1054.826     1325.992      310.586        0.161        0.135       22.695       13.286        0.343      344.197       20.846      854.973
04/12/2013  17:59:00       30.042      -63.017       -2.669       31.325       43.467       34.012      981.258     1889.373     1156.818        0.445        0.201       69.812       17.868        0.066      343.917       20.366      854.978
04/12/2013  18:00:00       22.198      -48.655        8.621       34.416       41.955       43.415     1184.427     1760.245     1884.844        0.388        0.241       53.480       24.174        0.204      343.993       20.497      854.992
04/12/2013  18:01:00      -11.968       23.942       48.043       17.294       35.044       28.204      299.076     1228.090      795.487        0.267        0.116       26.767       20.884        0.609      343.913       20.360      855.007
04/12/2013  18:02:00      -27.906      -27.158       -3.903       21.575       28.423       21.940      465.471      807.873      481.353        0.164        0.088       38.940        9.662        0.062      344.230       20.901      855.008
04/12/2013  18:03:00      -34.042      -13.233       -3.175       49.227       39.376       27.701     2423.326     1550.483      767.370        0.304        0.237       36.523       22.245        0.371      344.251       20.937      855.005
04/12/2013  18:04:00      -22.472       -3.340        5.972       36.313       29.783       19.934     1318.601      887.005      397.348        0.158        0.130       22.719       21.719        0.914      344.159       20.780      855.001
04/12/2013  18:05:00      -66.932      -52.710        5.133       77.105       48.618       43.058     5945.134     2363.744     1854.028        0.872        0.508       85.196       34.668        0.166      344.035       20.569      854.974
04/12/2013  18:06:00     -106.229      -42.177       -0.078       45.345       47.219       26.147     2056.193     2229.679      683.674        0.902        0.248      114.295       27.634        0.058      344.055       20.602      854.950
04/12/2013  18:07:00      -77.995       40.755        3.404       58.053       28.978       24.681     3370.140      839.703      609.150        0.629        0.241       88.001       27.937        0.101      344.065       20.618      854.920
04/12/2013  18:08:00      -11.898       18.767       -6.636       24.504       47.812       18.473      600.444     2285.962      341.262        0.188        0.161       22.221       15.464        0.484      344.215       20.876      854.905
04/12/2013  18:09:00      -74.566      -75.904       -8.066       61.990       66.039       28.313     3842.798     4361.173      801.646        1.019        0.450      106.402       28.633        0.072      344.112       20.698      854.902
04/12/2013  18:10:00      -70.934      -58.035       14.753       68.153       63.125       36.578     4644.790     3984.825     1337.974        0.929        0.498       91.650       37.304        0.166      344.140       20.747      854.913
04/12/2013  18:11:00      -91.083      -50.029       -5.922       32.345       50.944       20.755     1046.229     2595.295      430.771        0.745        0.204      103.919       17.339        0.028      344.014       20.532      854.933
04/12/2013  18:12:00      -34.462      -17.239       15.750       47.531       34.055       21.131     2259.192     1159.728      446.533        0.280        0.193       38.533       24.023        0.389      344.395       21.183      854.943
04/12/2013  18:13:00      -60.041      -52.319       -4.832       48.891       35.375       19.232     2390.348     1251.375      369.857        0.519        0.201       79.638       19.369        0.059      344.020       20.542      854.963
04/12/2013  18:14:00        3.695        6.257        9.727       11.045       14.899       11.647      121.990      221.969      135.652        0.031        0.024        7.266        9.742        1.797      344.129       20.727      854.972
04/12/2013  18:15:00       -6.847       10.009       16.158       23.504       13.917       12.586      552.438      193.671      158.411        0.066        0.045       12.127       12.377        1.042      344.032       20.563      854.965
04/12/2013  18:16:00      -35.576       12.299       12.413       42.276       19.334       17.394     1787.220      373.820      302.542        0.202        0.123       37.642       22.835        0.368      343.931       20.390      854.966
04/12/2013  18:17:00       12.918        4.972       28.517       34.307       22.837       18.483     1176.941      521.512      341.635        0.152        0.102       13.842       17.241        1.551      343.795       20.159      854.959
04/12/2013  18:18:00       11.875      -16.841        5.745       25.535       18.421       17.579      652.053      339.332      309.007        0.088        0.065       20.606        9.201        0.199      343.666       19.939      854.940
04/12/2013  18:19:00       39.935       -6.446       14.459       28.903       23.229       20.489      835.385      539.566      419.806        0.182        0.090       40.452       16.220        0.161      343.532       19.711      854.924
04/12/2013  18:20:00       51.141       -2.249       14.721       18.608       14.511       24.094      346.272      210.569      580.530        0.199        0.057       51.191       10.694        0.044      343.270       19.264      854.907
04/12/2013  18:21:00       37.923       -5.602        8.095       32.417       22.905       20.717     1050.838      524.628      429.193        0.177        0.100       38.334       11.243        0.086      343.199       19.143      854.899
04/12/2013  18:22:00       42.374      -28.516        9.952       30.423       37.860       25.784      925.564     1433.370      664.818        0.287        0.151       51.076       14.936        0.086      343.304       19.323      854.912
04/12/2013  18:23:00       27.727      -45.634        8.362       39.242       38.237       26.095     1539.897     1462.104      680.953        0.330        0.184       53.397       22.973        0.185      343.994       20.499      854.927
04/12/2013  18:24:00      -38.783      -52.891        0.136       33.728       34.613       21.257     1137.555     1198.049      451.845        0.354        0.139       65.587       15.550        0.056      344.231       20.903      854.958
04/12/2013  18:25:00      -24.987      -42.815       13.951       58.963       40.702       31.993     3476.638     1656.617     1023.557        0.440        0.308       49.573       34.305        0.479      344.274       20.977      854.970
04/12/2013  18:26:00     -101.195     -116.095        2.258       66.127       86.619       29.073     4372.831     7502.841      845.251        1.822        0.636      154.008       26.441        0.029      344.202       20.852      854.979
04/12/2013  18:27:00      -55.583     -207.736       -3.702       59.549       73.717       32.347     3546.112     5434.145     1046.334        2.814        0.501      215.043       25.494        0.014      344.160       20.780      854.984
04/12/2013  18:28:00      -35.827      -70.771       10.627       63.889       42.989       33.753     4081.836     1848.049     1139.267        0.674        0.353       79.323       31.203        0.155      344.355       21.114      854.967
04/12/2013  18:29:00      -76.202      -73.556        8.567       85.907       70.982       37.685     7380.061     5038.506     1420.176        1.256        0.692      105.912       14.764        0.019      344.145       20.756      854.942
04/12/2013  18:30:00      -40.598      -64.784        4.992       51.903       38.660       26.476     2693.874     1494.594      700.967        0.538        0.244       76.453       18.225        0.057      344.208       20.864      854.935
04/12/2013  18:31:00      -17.214      -16.286       -2.222       30.300       54.991       32.655      918.106     3023.956     1066.335        0.279        0.250       23.697       38.560        2.648      344.124       20.722      854.903
04/12/2013  18:32:00      -57.000      -51.716        3.711       89.790       74.925       27.170     8062.329     5613.774      738.184        1.017        0.721       76.965       23.125        0.090      344.019       20.540      854.883
04/12/2013  18:33:00     -212.480     -111.746        1.329       87.923       83.290       48.798     7730.538     6937.177     2381.274        3.734        0.852      240.073       47.726        0.040      344.067       20.619      854.878
04/12/2013  18:34:00     -256.945      -76.705      -14.348       55.078       63.205       34.826     3033.546     3994.843     1212.877        4.017        0.412      268.150       25.420        0.009      344.084       20.648      854.910
04/12/2013  18:35:00     -285.409     -194.187      -18.793      112.452       96.364       57.253    12645.388     9286.068     3277.889        7.236        1.260      345.206       46.591        0.018      344.091       20.661      854.949
04/12/2013  18:36:00     -232.122     -203.908        3.901      133.816      115.613       55.103    17906.675    13366.431     3036.299        6.489        1.715      308.965       50.602        0.027      344.070       20.624      854.942
04/12/2013  18:37:00     -376.234     -215.886      -13.005      225.732      175.879       72.288    50954.786    30933.415     5225.486       13.771        4.356      433.773       67.387        0.024      344.067       20.619      854.914
04/12/2013  18:38:00     -350.966       13.005      -13.011      147.935      142.648       78.860    21884.647    20348.507     6218.972        8.598        2.423      351.207       74.879        0.045      344.037       20.568      854.933
04/12/2013  18:39:00     -325.498      -63.933      -13.295      182.999      127.124       71.701    33488.704    16160.576     5140.998        8.249        2.740      331.718       80.752        0.059      344.058       20.605      854.929
04/12/2013  18:40:00     -351.543     -171.965      -20.849      146.824      135.585       78.816    21557.201    18383.335     6211.931        9.986        2.308      391.349       73.258        0.035      344.047       20.585      854.945
04/12/2013  18:41:00     -204.654      -98.737       14.227      183.471      134.629       69.404    33661.546    18125.017     4816.862        5.421        2.830      227.227       86.282        0.144      344.004       20.513      854.918
04/12/2013  18:42:00     -283.094     -104.835       -3.821      194.042      154.473       83.454    37652.111    23862.011     6964.608        7.980        3.424      301.882       96.818        0.103      344.005       20.513      854.912
04/12/2013  18:43:00     -371.109     -116.467      -17.941      162.605      152.255       79.093    26440.302    23181.496     6255.643       10.373        2.794      388.955       88.280        0.052      343.972       20.457      854.897
04/12/2013  18:44:00     -382.699     -107.378      -13.994      176.741      122.523       74.087    31237.545    15011.870     5488.922       10.495        2.587      397.478       88.995        0.050      343.939       20.401      854.906
04/12/2013  18:45:00     -345.516     -134.464      -16.768      178.455      151.524       74.691    31846.010    22959.546     5578.733        9.905        3.019      370.758       73.528        0.039      343.887       20.313      854.911
04/12/2013  18:46:00     -379.136     -126.622      -16.829      265.862      182.426       76.298    70682.758    33279.255     5821.369       13.490        5.489      399.722      105.975        0.070      343.827       20.209      854.907
04/12/2013  18:47:00     -393.594     -165.597      -25.130      158.806      132.791       68.112    25219.367    17633.543     4639.306       11.522        2.375      427.011       68.816        0.026      343.794       20.153      854.910
04/12/2013  18:48:00     -237.606      -75.045      -20.281      214.329      123.732       77.342    45936.736    15309.525     5981.849        6.485        3.361      249.175       97.734        0.154      343.817       20.194      854.892
04/12/2013  18:49:00     -395.169     -131.553      -20.320      154.092      134.803       72.621    23744.483    18171.811     5273.878       11.053        2.360      416.491       78.575        0.036      343.754       20.085      854.888
04/12/2013  18:50:00     -406.167     -166.837       -7.185      148.383      140.564       79.283    22017.598    19758.224     6285.854       12.045        2.403      439.097       78.427        0.032      343.733       20.048      854.894
04/12/2013  18:51:00     -318.112      -80.058       -1.176      176.447      120.545       74.353    31133.380    14531.121     5528.441        7.939        2.560      328.031       75.462        0.053      343.744       20.068      854.911
04/12/2013  18:52:00     -474.995     -147.925       -5.832      230.276      170.984       82.124    53026.880    29235.434     6744.378       16.826        4.450      497.496       93.592        0.035      343.687       19.971      854.903
04/12/2013  18:53:00     -253.625     -186.319        2.814      165.369      135.633       73.719    27346.765    18396.307     5434.509        7.510        2.559      314.707       81.303        0.067      343.720       20.026      854.914
04/12/2013  18:54:00     -272.886     -216.699       26.596      223.224      169.428       99.885    49828.792    28705.927     9976.919       10.531        4.426      348.461      114.875        0.109      343.679       19.956      854.904
04/12/2013  18:55:00     -269.884     -188.404        7.372      184.157      166.609       81.866    33913.936    27758.588     6702.119        8.837        3.419      329.140      103.322        0.099      343.703       19.996      854.905
04/12/2013  18:56:00     -359.051     -207.307      -18.282      162.520      145.991       73.029    26412.795    21313.306     5333.268       11.263        2.653      414.601       75.732        0.033      343.687       19.970      854.904
04/12/2013  18:57:00     -285.493     -130.340       -0.867      153.549      142.203       71.111    23577.423    20221.717     5056.776        7.367        2.443      313.839       75.098        0.057      343.662       19.927      854.924
04/12/2013  18:58:00     -364.806     -118.828       -5.549      144.601      164.241       77.875    20909.457    26975.183     6064.563       10.058        2.697      383.672       73.415        0.037      343.626       19.866      854.936
04/12/2013  18:59:00     -293.541      -53.689       -2.566      175.790      147.120       82.428    30902.160    21644.201     6794.435        7.419        2.967      298.411       83.329        0.078      343.585       19.798      854.932
04/12/2013  19:00:00     -366.604     -104.155       -9.951      229.131      161.883       89.214    52501.174    26206.023     7959.109       11.599        4.333      381.112      108.045        0.080      343.588       19.803      854.907
04/12/2013  19:01:00     -395.048     -128.392      -29.348      173.152      135.428       69.321    29981.500    18340.699     4805.388       11.326        2.656      415.389       68.508        0.027      343.562       19.757      854.917
04/12/2013  19:02:00     -370.336     -161.645       -7.324      182.924      123.490       77.441    33461.302    15249.835     5997.092       10.901        2.735      404.077       83.140        0.042      343.528       19.700      854.910
04/12/2013  19:03:00     -286.291      -67.966      -11.608      138.153      132.159       62.413    19086.345    17466.056     3895.419        6.358        2.022      294.248       67.707        0.053      343.515       19.679      854.904
04/12/2013  19:04:00     -282.102     -146.669        1.106      184.235      147.769       97.274    33942.628    21835.550     9462.273        8.316        3.262      317.952      101.952        0.103      343.465       19.592      854.894
04/12/2013  19:05:00     -221.915     -112.081       -5.260      209.670      122.924       79.805    43961.405    15110.398     6368.770        6.363        3.272      248.613       79.126        0.101      343.481       19.621      854.883
04/12/2013  19:06:00     -371.542     -218.257      -23.818      155.267      149.020       72.732    24107.816    22206.859     5289.951       11.892        2.580      430.906       69.931        0.026      343.442       19.553      854.880
04/12/2013  19:07:00     -277.209     -128.500       -8.094      173.670      119.874       70.683    30161.393    14369.831     4996.068        7.147        2.476      305.543       77.397        0.064      343.441       19.553      854.896
04/12/2013  19:08:00     -259.995     -138.336       -7.735      193.195      121.459       71.564    37324.361    14752.373     5121.399        7.199        2.860      294.506       84.349        0.082      343.425       19.525      854.910
04/12/2013  19:09:00     -254.499     -176.694      -12.021      133.524      148.259       75.335    17828.730    21980.754     5675.365        7.080        2.274      309.824       79.902        0.067      343.420       19.515      854.919
04/12/2013  19:10:00     -267.262     -214.800        5.368      187.118      142.022       82.002    35013.332    20170.139     6724.389        8.974        3.095      342.882       85.422        0.062      343.350       19.397      854.909
04/12/2013  19:11:00     -274.721     -179.516       14.143      221.757      149.209       84.892    49175.988    22263.207     7206.732        9.326        3.932      328.173       91.612        0.078      343.321       19.347      854.922
04/12/2013  19:12:00     -480.355     -310.249      -21.344      212.090      163.054       94.527    44982.043    26586.646     8935.333       20.396        4.025      571.835      103.108        0.033      343.289       19.292      854.918
04/12/2013  19:13:00     -368.884     -237.432      -15.403      191.639      153.065       86.410    36725.572    23429.007     7466.754       13.014        3.381      438.690       98.094        0.050      343.289       19.294      854.931
04/12/2013  19:14:00     -343.194     -147.988       -2.728      204.210      136.000       84.252    41701.728    18495.982     7098.323       10.348        3.365      373.741      104.019        0.077      343.280       19.278      854.949
04/12/2013  19:15:00     -355.404     -154.032       -5.614      149.933      125.011       66.323    22479.909    15627.731     4398.753        9.628        2.125      387.347       68.346        0.031      343.268       19.255      854.949
04/12/2013  19:16:00     -404.261     -124.989       -3.851      163.374      166.571       88.675    26690.969    27745.766     7863.286       12.067        3.115      423.142       81.765        0.037      343.231       19.192      854.960
04/12/2013  19:17:00     -325.163     -196.859       -7.408      220.536      185.794       81.043    48636.132    34519.342     6568.027       11.712        4.486      380.111      100.107        0.069      343.191       19.126      854.971
04/12/2013  19:18:00     -292.895     -219.777      -15.156      160.313      142.213       77.830    25700.347    20224.574     6057.519        9.314        2.599      366.182       85.853        0.055      343.174       19.097      854.988
04/12/2013  19:19:00     -436.851     -235.809      -13.013      188.982      149.566       95.274    35714.329    22369.865     9077.132       15.688        3.358      496.432       90.022        0.033      343.136       19.031      854.984
04/12/2013  19:20:00     -352.866     -246.094      -15.311      150.636      122.376       82.073    22691.261    14975.772     6735.904       11.485        2.220      430.206       82.945        0.037      343.111       18.990      855.005
04/12/2013  19:21:00     -333.093     -266.325       -7.537      255.890      176.392      111.563    65479.654    31113.998    12446.286       14.547        5.452      426.474      137.632        0.104      343.086       18.946      855.002
04/12/2013  19:22:00     -482.526     -318.488      -18.112      207.820      178.693      109.997    43189.335    31931.347    12099.237       21.089        4.361      578.158      109.337        0.036      343.040       18.869      855.002
04/12/2013  19:23:00     -466.179     -205.353      -10.024      200.038      137.829       80.063    40015.102    18996.961     6410.137       16.250        3.271      509.404       92.765        0.033      343.034       18.856      855.033
04/12/2013  19:24:00     -454.506     -185.975        7.822      214.815      219.483       99.141    46145.498    48172.936     9829.024       17.267        5.207      491.083      114.910        0.055      343.005       18.809      855.032
04/12/2013  19:25:00     -259.514     -120.536       11.362      222.457      124.891       88.409    49486.931    15597.658     7816.204        7.744        3.645      286.141      101.205        0.125      342.996       18.794      855.051
04/12/2013  19:26:00     -278.869     -223.820       -3.396      204.800      163.314       92.691    41942.972    26671.361     8591.702       10.253        3.860      357.579      100.804        0.079      342.978       18.762      855.075
04/12/2013  19:27:00     -383.449     -170.280       -3.271      214.694      166.816       99.321    46093.439    27827.525     9864.728       12.990        4.189      419.557      104.142        0.062      342.939       18.695      855.070
04/12/2013  19:28:00     -279.299      -85.816       22.948      216.749      160.633       96.899    46980.273    25803.027     9389.411        8.402        4.109      292.186      120.501        0.170      342.954       18.722      855.050
04/12/2013  19:29:00     -366.546     -224.264      -31.842      168.890      147.996       84.556    28523.796    21902.682     7149.715       12.161        2.879      429.709       87.292        0.041      342.925       18.673      855.093
04/12/2013  19:30:00     -236.647     -210.878       14.001      208.849      166.055       96.458    43617.834    27574.223     9304.228        9.057        4.025      316.972      115.078        0.132      342.891       18.615      855.107
04/12/2013  19:31:00     -273.716      -68.642       -2.106      189.268      145.430       79.572    35822.296    21150.027     6331.683        7.146        3.165      282.192       98.066        0.121      342.880       18.597      855.132
04/12/2013  19:32:00     -373.045     -193.985       -8.065      236.505      231.955       98.429    55934.791    53803.296     9688.255       14.812        5.971      420.467      118.640        0.080      342.843       18.534      855.138
04/12/2013  19:33:00     -373.093     -267.831      -23.789      174.603      168.579       84.186    30486.306    28418.850     7087.271       13.873        3.300      459.273       98.058        0.046      342.804       18.467      855.163
04/12/2013  19:34:00     -261.024     -182.302        5.754      252.279      190.368      107.190    63644.635    36240.039    11489.721       10.637        5.569      318.383      124.649        0.153      342.782       18.430      855.183
04/12/2013  19:35:00     -391.013      -85.034      -22.484      185.210      135.498       79.973    34302.849    18359.751     6395.727       10.983        2.953      400.152       92.213        0.053      342.774       18.415      855.235
04/12/2013  19:36:00     -390.920     -217.748      -14.912      165.590      132.126       80.112    27419.929    17457.285     6417.882       12.587        2.565      447.474       73.357        0.027      342.742       18.361      855.264
04/12/2013  19:37:00     -279.741      -62.060       -6.889      206.155      182.793       93.662    42500.043    33413.363     8772.658        8.341        4.234      286.543      104.439        0.133      342.729       18.340      855.290
04/12/2013  19:38:00     -290.543     -115.093       13.309      197.557      153.245       76.914    39028.875    23483.888     5915.804        8.312        3.421      312.509       90.746        0.084      342.697       18.285      855.324
04/12/2013  19:39:00     -257.227      -67.624        8.458      180.599      136.200       81.650    32616.129    18550.361     6666.762        6.431        2.892      265.968       97.190        0.134      342.704       18.297      855.343
04/12/2013  19:40:00     -306.963     -106.019      -12.217      169.812      139.111       77.707    28835.966    19351.935     6038.302        7.991        2.711      324.756       83.607        0.066      342.669       18.238      855.354
04/12/2013  19:41:00     -413.843     -160.607      -12.193      181.356      151.510       77.900    32890.045    22955.212     6068.408       12.955        3.096      443.915       75.351        0.029      342.632       18.174      855.372
04/12/2013  19:42:00     -422.973     -124.012       -8.751      199.925      171.899       81.474    39969.961    29549.338     6638.034       13.525        3.808      440.778       87.355        0.039      342.607       18.131      855.359
04/12/2013  19:43:00     -423.034     -106.301       -8.256      165.595      144.286       71.260    27421.621    20818.424     5077.922       12.181        2.666      436.185       75.052        0.030      342.596       18.113      855.386
04/12/2013  19:44:00     -250.004      -30.669       15.566      271.967      113.872      101.872    73965.934    12966.908    10377.934        8.048        4.866      251.878      111.929        0.197      342.555       18.044      855.367
04/12/2013  19:45:00     -253.738      -36.404        4.144      166.834      122.219       73.085    27833.458    14937.442     5341.471        5.691        2.406      256.336       77.443        0.091      342.533       18.006      855.385
04/12/2013  19:46:00     -296.680      -70.668        0.550      177.865      120.386       78.521    31635.788    14492.892     6165.532        7.265        2.615      304.981       89.757        0.087      342.518       17.982      855.388
04/12/2013  19:47:00     -539.515      -88.590      -39.227      198.136      202.291       91.884    39257.843    40921.734     8442.588       19.453        4.431      546.740       90.926        0.028      342.483       17.920      855.386
04/12/2013  19:48:00     -363.804      -76.299       -3.352      206.389      158.269       92.696    42596.291    25049.216     8592.508       10.720        3.812      371.719      110.645        0.089      342.483       17.921      855.363
04/12/2013  19:49:00     -445.274      -94.727       -2.397      215.102      158.023       93.189    46268.693    24971.284     8684.248       14.357        3.996      455.239       96.226        0.045      342.459       17.879      855.378
04/12/2013  19:50:00     -328.831      -80.083        2.709      222.073      166.527       87.560    49316.572    27731.150     7666.733        9.962        4.236      338.442      106.175        0.098      342.441       17.850      855.384
04/12/2013  19:51:00     -291.466       18.931       12.425      274.661      167.627      105.183    75438.739    28098.690    11063.456       10.001        5.730      292.080      136.126        0.217      342.379       17.746      855.367
04/12/2013  19:52:00     -271.064      -65.812      -15.786      193.290      118.286       66.609    37360.966    13991.519     4436.725        6.691        2.789      278.938       78.294        0.079      342.415       17.807      855.378
04/12/2013  19:53:00     -241.554      -75.779        4.912      163.109      138.078       82.659    26604.659    19065.508     6832.569        5.830        2.625      253.162       80.716        0.102      342.400       17.782      855.349
04/12/2013  19:54:00     -404.395     -106.792      -29.625      145.780      189.082       70.981    21251.764    35752.145     5038.257       11.892        3.102      418.258       65.659        0.025      342.377       17.740      855.351
04/12/2013  19:55:00     -345.936     -185.132      -23.999      177.195      150.827       69.558    31398.029    22748.666     4838.333       10.674        2.949      392.359       88.301        0.051      342.370       17.729      855.346
04/12/2013  19:56:00     -321.920     -116.090        3.846      185.255      112.147       72.216    34319.532    12577.035     5215.128        8.461        2.606      342.212       78.590        0.053      342.355       17.703      855.376
04/12/2013  19:57:00     -262.636     -105.077        9.706      185.724      169.681       88.528    34493.235    28791.552     7837.237        7.561        3.556      282.876       98.941        0.122      342.345       17.687      855.400
04/12/2013  19:58:00     -370.421     -186.580       -9.843      232.749      176.173       84.982    54172.112    31036.843     7221.875       13.226        4.622      414.758       93.392        0.051      342.333       17.667      855.396
04/12/2013  19:59:00     -316.347     -195.678        2.790      191.468      180.631      103.170    36659.867    32627.422    10643.998       10.914        3.997      371.974      120.505        0.105      342.313       17.632      855.404
04/12/2013  20:00:00     -183.181     -106.551       -0.083      202.911      141.083       82.069    41173.048    19904.413     6735.393        5.635        3.391      211.916       95.587        0.203      342.284       17.584      855.419
04/12/2013  20:01:00     -381.806     -134.049      -16.988      160.950      139.392       80.107    25905.022    19430.256     6417.104       10.788        2.588      404.654       87.751        0.047      342.277       17.572      855.428
04/12/2013  20:02:00     -222.655      -58.555       -7.702      164.969      113.602       67.307    27214.750    12905.304     4530.279        4.885        2.233      230.226       74.642        0.105      342.288       17.591      855.414
04/12/2013  20:03:00     -203.888     -174.100        7.610      178.927      132.437       90.721    32014.833    17539.585     8230.369        6.485        2.889      268.107      100.385        0.140      342.226       17.485      855.391
04/12/2013  20:04:00     -375.502     -176.437      -18.820      213.831      171.235       74.719    45723.888    29321.448     5582.882       12.654        4.031      414.887       91.506        0.049      342.243       17.512      855.410
04/12/2013  20:05:00     -337.350     -257.611      -13.216      219.553      174.878       96.245    48203.666    30582.342     9263.040       13.418        4.402      424.462      108.105        0.065      342.230       17.492      855.405
04/12/2013  20:06:00     -232.258     -112.354        2.552      144.267      108.635       69.695    20812.931    11801.630     4857.422        5.202        1.874      258.006       74.766        0.084      342.221       17.476      855.413
04/12/2013  20:07:00     -111.072      -38.056       14.578      127.967      117.218       83.655    16375.648    13740.156     6998.126        2.555        1.856      117.411       67.011        0.326      342.243       17.515      855.417
04/12/2013  20:08:00     -166.768      -60.933       16.145      184.591      111.032       82.653    34073.910    12328.047     6831.488        4.250        2.662      177.551       93.694        0.278      342.222       17.479      855.429
04/12/2013  20:09:00     -295.996      -59.464        6.847      188.371      140.752       81.108    35483.787    19811.088     6578.451        7.652        3.094      301.910       91.363        0.092      342.198       17.437      855.419
04/12/2013  20:10:00     -283.243     -162.386      -14.133      147.680      126.056       78.912    21809.449    15890.236     6227.037        7.535        2.196      326.490       81.171        0.062      342.219       17.474      855.435
04/12/2013  20:11:00     -401.209     -236.466      -11.024      181.809      148.355       81.021    33054.684    22009.192     6564.394       13.931        3.081      465.709       88.114        0.036      342.237       17.504      855.417
04/12/2013  20:12:00     -236.681     -134.215        6.658      170.366      132.569       80.720    29024.588    17574.418     6515.692        6.359        2.656      272.087       81.103        0.089      342.255       17.534      855.430
04/12/2013  20:13:00     -434.596     -109.621      -25.440      222.913      122.833       69.303    49690.188    15087.932     4802.860       13.555        3.479      448.208      100.547        0.050      342.195       17.431      855.452
04/12/2013  20:14:00     -350.321      -93.062      -21.865      193.272      177.981       88.064    37353.939    31677.297     7755.301       10.431        3.839      362.471       98.620        0.074      342.162       17.375      855.465
04/12/2013  20:15:00     -364.943       25.011      -22.521      252.830      190.102       76.904    63923.216    36138.855     5914.226       12.013        5.299      365.799       91.800        0.063      342.124       17.312      855.474
04/12/2013  20:16:00     -516.502     -108.674      -16.895      206.750      206.379       99.934    42745.433    42592.186     9986.876       18.708        4.766      527.811       99.685        0.036      342.091       17.254      855.497
04/12/2013  20:17:00     -344.235      -87.155       -5.524      272.272      161.670       90.261    74132.187    26137.125     8147.098       11.725        5.421      355.097      118.870        0.112      342.069       17.218      855.488
04/12/2013  20:18:00     -134.418      -24.484       13.863      151.448      119.500       71.337    22936.506    14280.159     5089.010        3.058        2.115      136.629       63.692        0.217      342.090       17.255      855.483
04/12/2013  20:19:00     -324.492      -53.148       -9.336      222.322      128.092       81.474    49427.180    16407.605     6637.957        9.033        3.624      328.815       88.369        0.072      342.066       17.214      855.492
04/12/2013  20:20:00     -537.478      -91.830      -42.658      151.949      128.145       91.680    23088.455    16421.125     8405.257       17.352        2.396      545.266       85.608        0.025      342.061       17.202      855.488
04/12/2013  20:21:00     -398.959     -121.557      -11.091      199.415      130.383       86.528    39766.154    16999.598     7487.112       11.915        3.213      417.066       98.292        0.056      342.055       17.193      855.480
04/12/2013  20:22:00     -401.748     -119.536       -1.844      249.177      169.735       94.192    62089.129    28809.943     8872.208       13.772        4.989      419.155      116.640        0.077      342.073       17.226      855.498
04/12/2013  20:23:00     -287.905      -37.249        5.591      190.168      169.166       81.782    36163.768    28616.978     6688.259        7.788        3.573      290.304       96.951        0.112      342.082       17.240      855.508
04/12/2013  20:24:00     -373.800     -124.099      -13.632      217.732      152.588       87.379    47407.051    23283.238     7635.017       11.681        3.916      393.861      111.306        0.080      342.072       17.223      855.526
04/12/2013  20:25:00     -323.305     -166.197      -16.907      155.962      152.235       71.278    24324.080    23175.352     5080.516        9.250        2.629      363.521       71.608        0.039      342.064       17.209      855.553
04/12/2013  20:26:00     -513.682       36.496      -37.978      194.331      121.451       79.779    37764.522    14750.426     6364.752       16.275        2.944      514.977       86.251        0.028      342.060       17.202      855.558
04/12/2013  20:27:00     -374.764      -42.615      -25.911      166.273      133.567       79.200    27646.672    17840.075     6272.617        9.734        2.588      377.180       81.803        0.047      342.054       17.191      855.577
04/12/2013  20:28:00     -297.663      -85.231        7.749      222.054      154.905      100.008    49308.108    23995.530    10001.663        8.960        4.165      309.625      100.171        0.105      342.034       17.157      855.591
04/12/2013  20:29:00     -432.707      -73.216      -14.373      202.109      164.962       78.505    40848.079    27212.562     6163.101       13.350        3.711      438.857       87.116        0.039      342.006       17.109      855.631
04/12/2013  20:30:00     -327.822      -61.706        1.498      196.479      160.759       87.403    38604.159    25843.589     7639.233        9.167        3.604      333.579       97.719        0.086      341.922       16.968      855.663
04/12/2013  20:31:00     -428.063      -42.244      -33.568      182.234      131.203       73.757    33209.313    17214.335     5440.103       12.100        2.793      430.143       83.923        0.038      341.905       16.939      855.676
04/12/2013  20:32:00     -433.229      -63.759      -23.561      170.274      151.988       73.947    28993.380    23100.323     5468.172       12.493        2.878      437.896       73.616        0.028      341.876       16.888      855.706
04/12/2013  20:33:00     -209.098       -1.001       11.525      136.390      113.579       66.492    18602.345    12900.202     4421.162        3.988        1.796      209.100       69.722        0.111      341.789       16.742      855.731
04/12/2013  20:34:00     -322.728      -70.749      -16.549      127.789      103.748       61.269    16329.999    10763.726     3753.914        7.013        1.542      330.392       64.145        0.038      341.834       16.819      855.736
04/12/2013  20:35:00     -459.323      -69.171      -26.710      172.205      135.535       81.466    29654.470    18369.820     6636.734       13.556        2.733      464.502       85.745        0.034      341.810       16.775      855.755
04/12/2013  20:36:00     -372.628      -45.509       -8.817      203.983      163.310       75.612    41608.930    26670.167     5717.105       10.749        3.700      375.396       89.409        0.057      341.770       16.710      855.766
04/12/2013  20:37:00     -293.850     -143.840      -12.668      203.026      160.478       88.687    41219.518    25753.173     7865.357        9.101        3.742      327.166       91.626        0.078      341.778       16.722      855.774
04/12/2013  20:38:00     -403.409     -108.392        2.534      179.953      147.895       75.854    32383.126    21873.070     5753.817       11.724        3.001      417.717       91.429        0.048      341.767       16.702      855.793
04/12/2013  20:39:00     -282.707      -88.575      -13.419      114.272      114.151       64.003    13058.016    13030.517     4096.371        5.906        1.509      296.258       60.439        0.042      341.768       16.705      855.789
04/12/2013  20:40:00     -440.386     -127.581      -12.420      231.163      148.267       86.173    53436.153    21983.235     7425.740       14.659        4.142      458.494       83.331        0.033      341.735       16.651      855.776
04/12/2013  20:41:00     -462.486     -106.728       -6.668      169.486      147.370       85.999    28725.627    21717.897     7395.844       14.157        2.892      474.641       91.446        0.037      341.719       16.623      855.773
04/12/2013  20:42:00     -447.244      -30.609      -18.566      174.579      147.613       83.117    30477.663    21789.467     6908.392       13.023        2.959      448.290       82.082        0.034      341.729       16.640      855.770
04/12/2013  20:43:00     -315.574      -86.097        3.041      190.734      175.015       81.594    36379.550    30630.249     6657.557        9.033        3.683      327.108       89.345        0.075      341.695       16.582      855.776
04/12/2013  20:44:00     -302.792     -131.001      -20.826      156.489      109.527       75.181    24488.859    11996.229     5652.248        7.570        2.107      329.915       76.396        0.054      341.702       16.596      855.771
04/12/2013  20:45:00     -461.065        4.156      -30.306      183.528      119.311       72.031    33682.510    14235.190     5188.509       13.330        2.655      461.083       84.022        0.033      341.693       16.580      855.787
04/12/2013  20:46:00     -463.715     -107.628      -33.912      188.001      165.605       82.973    35344.310    27425.047     6884.438       14.870        3.483      476.041       86.404        0.033      341.688       16.571      855.783
04/12/2013  20:47:00     -523.557     -192.187      -25.576      195.422      160.784       87.721    38189.796    25851.481     7694.951       19.171        3.587      557.717       95.354        0.029      341.696       16.584      855.790
04/12/2013  20:48:00     -499.408      -36.944      -29.326      186.926      118.718       73.644    34941.446    14093.879     5423.365       15.304        2.723      500.773       73.708        0.022      341.697       16.586      855.813
04/12/2013  20:49:00     -469.960     -111.004      -19.637      163.851      122.481       81.321    26847.206    15001.687     6613.107       14.101        2.423      482.891       83.125        0.030      341.676       16.553      855.831
04/12/2013  20:50:00     -379.130      -58.286      -25.458      183.871      124.694       74.362    33808.686    15548.540     5529.689       10.133        2.744      383.584       87.774        0.052      341.666       16.534      855.848
04/12/2013  20:51:00     -270.675     -107.496       -3.679      209.057      150.363       81.922    43704.760    22608.961     6711.230        7.892        3.651      291.239       99.094        0.116      341.652       16.511      855.848
04/12/2013  20:52:00     -363.490      -87.796      -21.067      158.028      127.664       60.592    24972.939    16298.019     3671.388        9.260        2.247      373.942       68.593        0.034      341.650       16.509      855.838
04/12/2013  20:53:00     -322.364     -172.753      -10.846      174.744      116.721       77.795    30535.591    13623.855     6052.124        9.204        2.511      365.735       82.492        0.051      341.623       16.461      855.838
04/12/2013  20:54:00      -77.291      -91.249       11.599      141.813      102.321       77.833    20110.834    10469.618     6057.923        2.553        1.832      119.584       77.690        0.422      341.556       16.349      855.842
04/12/2013  20:55:00     -259.791     -100.716       -3.791      195.766      156.997       66.531    38324.449    24648.205     4426.319        7.251        3.370      278.631       82.163        0.087      341.595       16.414      855.875
04/12/2013  20:56:00     -399.171      -61.781       -7.885      166.018      180.281       73.379    27562.030    32501.358     5384.462       11.432        3.272      403.923       75.486        0.035      341.568       16.370      855.876
04/12/2013  20:57:00     -247.355      -30.169       -0.713      140.164      139.532       79.234    19646.005    19469.201     6278.077        5.374        2.270      249.188       76.741        0.095      341.553       16.342      855.884
04/12/2013  20:58:00     -333.226      -51.143      -11.935      156.951      142.310       71.225    24633.741    20252.139     5073.021        8.187        2.498      337.127       74.405        0.049      341.557       16.348      855.912
04/12/2013  20:59:00     -391.107     -189.340      -16.775      209.444      170.158       88.475    43866.880    28953.720     7827.815       13.486        4.032      434.528       78.942        0.033      341.569       16.369      855.924
04/12/2013  21:00:00     -288.432      -89.741       -8.212      159.946      141.283       78.099    25582.851    19960.798     6099.489        7.147        2.582      302.070       85.372        0.080      341.534       16.311      855.935
04/12/2013  21:01:00     -293.220      -90.042      -11.941      164.366      142.741       73.495    27016.320    20375.060     5401.511        7.350        2.640      306.733       86.476        0.079      341.519       16.284      855.954
04/12/2013  21:02:00     -186.414      -96.545        3.000      145.907      145.424       76.835    21288.853    21148.222     5903.600        4.620        2.417      209.932       71.513        0.116      341.511       16.273      855.982
04/12/2013  21:03:00     -421.171      -36.129      -17.123      229.956      150.929       75.878    52879.609    22779.699     5757.424       13.019        4.071      422.718       64.557        0.023      341.543       16.325      856.009
04/12/2013  21:04:00     -540.558        6.779      -40.131      175.272      126.454       73.561    30720.203    15990.719     5411.255       17.298        2.606      540.600       79.586        0.022      341.545       16.329      856.043
04/12/2013  21:05:00     -431.699     -102.670      -22.511      131.218      135.101       75.133    17218.050    18252.268     5644.902       11.926        2.056      443.740       63.662        0.021      341.547       16.332      856.057
04/12/2013  21:06:00     -366.994      -13.345      -30.687      175.371      149.038       70.379    30755.090    22212.404     4953.256        9.685        2.896      367.237       79.122        0.046      341.529       16.301      856.063
04/12/2013  21:07:00     -466.548      -71.556      -13.076      172.376      142.148       79.804    29713.606    20206.005     6368.708       13.961        2.814      472.004       73.821        0.024      341.523       16.291      856.082
04/12/2013  21:08:00     -391.781      -36.447      -10.798      158.688      129.082       74.437    25181.897    16662.259     5540.912       10.115        2.369      393.473       67.457        0.029      341.517       16.281      856.125
04/12/2013  21:09:00     -517.122      -51.906      -28.477      175.359      180.861       89.204    30750.604    32710.610     7957.269       17.116        3.571      519.721       75.903        0.021      341.531       16.305      856.163
04/12/2013  21:10:00     -318.223      -46.572        1.581      180.415      110.473       78.467    32549.731    12204.357     6157.023        7.717        2.546      321.613       87.118        0.073      341.491       16.237      856.180
04/12/2013  21:11:00     -365.197     -111.068       -6.059      198.744      141.001       79.151    39499.045    19881.347     6264.937       10.568        3.282      381.713       90.700        0.056      341.486       16.228      856.241
04/12/2013  21:12:00     -341.152     -138.870      -18.502      155.774      127.151       70.765    24265.469    16167.432     5007.651        9.072        2.272      368.333       77.122        0.044      341.495       16.243      856.261
04/12/2013  21:13:00     -335.773      -82.549      -22.180      148.190      112.052       67.158    21960.277    12555.721     4510.153        7.953        1.951      345.771       79.413        0.053      341.471       16.204      856.303
04/12/2013  21:14:00     -417.191     -107.020      -20.800      163.874      125.786       73.623    26854.763    15822.133     5420.294       11.701        2.405      430.699       76.741        0.032      341.471       16.202      856.306
04/12/2013  21:15:00     -468.302      -63.139      -20.999      155.199      124.764       76.924    24086.700    15566.087     5917.357       13.464        2.279      472.540       80.236        0.029      341.460       16.185      856.335
04/12/2013  21:16:00     -473.384     -184.904       -2.870      200.839      129.366       82.541    40336.442    16735.686     6813.065       16.108        3.194      508.214      100.607        0.039      341.456       16.177      856.360
04/12/2013  21:17:00     -494.760     -107.205      -25.999      187.339      147.262       86.952    35095.961    21686.188     7560.697       16.064        3.217      506.241       94.476        0.035      341.467       16.195      856.338
04/12/2013  21:18:00     -441.926      -93.593      -16.654      159.887      135.673       74.048    25563.999    18407.186     5483.077       12.689        2.473      451.728       80.847        0.032      341.429       16.131      856.333
04/12/2013  21:19:00     -430.386      -92.166      -21.661      177.362      133.198       74.517    31457.388    17741.740     5552.739       12.446        2.738      440.144       80.464        0.033      341.416       16.110      856.291
04/12/2013  21:20:00     -337.799      -73.024      -14.469      216.081      108.003       75.025    46691.128    11664.735     5628.714        9.181        3.199      345.602      100.293        0.084      341.394       16.073      856.268
04/12/2013  21:21:00     -363.190      -50.538       -1.735      164.254       99.203       68.257    26979.310     9841.172     4659.067        8.796        2.074      366.689       80.217        0.048      341.393       16.071      856.259
04/12/2013  21:22:00     -289.014      -77.866        6.724      159.102      104.418       64.259    25313.482    10903.172     4129.200        6.498        2.017      299.320       68.946        0.053      341.397       16.078      856.249
04/12/2013  21:23:00     -220.515       12.066        2.226      162.623      131.823       67.309    26446.090    17377.311     4530.440        4.856        2.418      220.845       69.460        0.099      341.380       16.049      856.256
04/12/2013  21:24:00     -381.073      -94.053      -15.220      228.128      124.160       70.141    52042.213    15415.772     4919.792       11.332        3.619      392.508       51.063        0.017      341.422       16.119      856.269
04/12/2013  21:25:00     -401.634      -79.361       -2.951      186.555      115.227       78.227    34802.641    13277.268     6119.402       11.090        2.710      409.399       86.889        0.045      341.386       16.060      856.283
04/12/2013  21:26:00     -495.512     -137.177      -16.740      153.852      136.635       76.675    23670.406    18669.119     5879.068       15.642        2.411      514.149       62.257        0.015      341.390       16.064      856.299
04/12/2013  21:27:00     -598.426      -75.603      -21.811      201.649      157.224       90.139    40662.209    24719.513     8125.102       21.889        3.675      603.182      102.310        0.029      341.404       16.089      856.313
04/12/2013  21:28:00     -366.580      -20.368       -8.816      138.951      136.315       72.455    19307.290    18581.823     5249.678        8.900        2.157      367.146       75.672        0.042      341.359       16.013      856.312
04/12/2013  21:29:00     -326.920      -69.411      -23.863      147.035      119.642       65.558    21619.178    14314.119     4297.801        7.624        2.012      334.208       67.723        0.041      341.363       16.020      856.318
04/12/2013  21:30:00     -226.266     -133.145        1.998      165.312      111.814       75.336    27328.031    12502.294     5675.477        5.721        2.275      262.534       81.334        0.096      341.346       15.992      856.300
04/12/2013  21:31:00     -476.519      -65.495      -25.510      221.968      163.015       88.995    49269.760    26574.052     7920.033       15.787        4.188      480.999       92.465        0.037      341.379       16.047      856.317
04/12/2013  21:32:00     -258.150      -80.519      -10.318      184.029      126.882       74.341    33866.500    16099.025     5526.601        6.435        2.775      270.416       73.790        0.074      341.361       16.017      856.333
04/12/2013  21:33:00     -416.468     -112.656      -10.394      187.240      130.611       81.252    35058.705    17059.352     6601.811       12.247        2.936      431.436       89.841        0.043      341.349       15.996      856.371
04/12/2013  21:34:00     -520.035     -114.891      -25.479      219.603      173.150       87.968    48225.400    29980.884     7738.442       18.510        4.297      532.575       91.153        0.029      341.373       16.037      856.369
04/12/2013  21:35:00     -477.066      -79.785      -13.810      178.413      137.134       72.495    31831.216    18805.738     5255.473       14.501        2.795      483.691       85.957        0.032      341.379       16.048      856.395
04/12/2013  21:36:00     -500.326     -104.697      -11.335      198.978      192.601       97.100    39592.125    37095.052     9428.425       17.375        4.306      511.163      104.193        0.042      341.393       16.071      856.417
04/12/2013  21:37:00     -421.809     -110.169       -6.029      213.713      160.441       92.128    45673.189    25741.172     8487.486       13.499        3.995      435.959       88.658        0.041      341.348       15.996      856.422
04/12/2013  21:38:00     -417.263      -44.294       -1.004      225.018      186.943       97.916    50633.265    34947.676     9587.532       13.560        4.758      419.607      104.661        0.062      341.336       15.975      856.448
04/12/2013  21:39:00     -395.344      -48.313       -3.343      271.898      176.554      104.200    73928.456    31171.385    10857.640       13.728        5.798      398.285      127.344        0.102      341.332       15.970      856.457
04/12/2013  21:40:00     -372.630      -94.815      -12.419      212.929      129.422       85.850    45338.847    16750.172     7370.299       10.872        3.473      384.503      105.813        0.076      341.291       15.900      856.490
04/12/2013  21:41:00     -569.050     -139.052      -43.140      232.740      176.435       92.006    54168.086    31129.350     8465.192       21.937        4.688      585.793      105.334        0.032      341.329       15.964      856.507
04/12/2013  21:42:00     -574.182     -200.948      -11.513      225.022      168.001       95.778    50634.994    28224.425     9173.438       22.910        4.402      608.330      107.408        0.031      341.369       16.031      856.511
04/12/2013  21:43:00     -566.591     -111.451      -34.952      216.900      203.270       96.601    47045.631    41318.857     9331.828       21.617        4.885      577.448      104.140        0.033      341.376       16.041      856.521
04/12/2013  21:44:00     -348.074      -35.206        2.200      181.707      152.032       83.882    33017.568    23113.581     7036.186        9.277        3.158      349.850       89.426        0.065      341.345       15.991      856.573
04/12/2013  21:45:00     -268.830      -48.964       22.609      175.931      141.446       80.347    30951.773    20007.050     6455.714        6.629        2.871      273.253       93.664        0.117      341.330       15.966      856.585
04/12/2013  21:46:00     -293.085      -48.028      -29.938      197.580      122.185       71.304    39038.040    14929.231     5084.222        7.407        2.953      296.995       61.701        0.043      341.332       15.970      856.590
04/12/2013  21:47:00     -347.386      -72.355      -16.183      206.886      141.575       73.340    42801.885    20043.371     5378.696        9.719        3.411      354.841       84.616        0.057      341.281       15.881      856.606
04/12/2013  21:48:00     -457.521      -91.583      -16.725      168.006      161.852       81.748    28226.144    26196.116     6682.713       13.954        3.055      466.597       82.990        0.032      341.261       15.847      856.565
04/12/2013  21:49:00     -401.029      -57.063      -28.354      166.557      118.116       75.646    27741.258    13951.293     5722.245       10.614        2.371      405.068       76.481        0.036      341.240       15.812      856.567
04/12/2013  21:50:00     -351.223     -108.899       -6.483      176.555      117.076       67.440    31171.675    13706.762     4548.089        9.233        2.471      367.719       77.841        0.045      341.225       15.787      856.544
04/12/2013  21:51:00     -479.474     -143.237      -14.173      154.688      160.746       84.947    23928.312    25839.186     7215.912       15.379        2.849      500.412       80.911        0.026      341.227       15.790      856.523
04/12/2013  21:52:00     -546.085     -121.752      -43.389      201.687      184.885       91.065    40677.578    34182.334     8292.906       19.902        4.158      559.493       91.275        0.027      341.237       15.808      856.500
04/12/2013  21:53:00     -542.760     -170.500      -24.491      222.793      201.160      111.675    49636.688    40465.428    12471.209       21.340        5.129      568.910      120.055        0.045      341.270       15.862      856.501
04/12/2013  21:54:00     -482.046     -106.072      -16.447      193.502      170.182       86.721    37443.130    28961.968     7520.554       15.890        3.696      493.578       91.863        0.035      341.232       15.798      856.542
04/12/2013  21:55:00     -415.809     -117.148      -22.497      182.460      159.638       74.116    33291.686    25484.318     5493.166       12.569        3.213      431.996       80.645        0.035      341.199       15.743      856.555
04/12/2013  21:56:00     -391.886      -67.835       -5.572      191.539      129.193       82.757    36687.226    16690.897     6848.651       10.921        3.011      397.714       79.472        0.040      341.178       15.708      856.546
04/12/2013  21:57:00     -516.861      -51.467      -18.163      217.404      173.998       97.312    47264.618    30275.213     9469.546       17.855        4.350      519.417      105.381        0.041      341.179       15.710      856.553
04/12/2013  21:58:00     -441.378      -83.493      -17.154      194.199      187.735       95.593    37713.235    35244.363     9138.095       14.207        4.105      449.206       97.874        0.047      341.149       15.657      856.571
04/12/2013  21:59:00     -454.331      -52.335      -15.775      194.643      124.854       86.262    37886.052    15588.602     7441.069       13.515        3.046      457.335       86.206        0.036      341.156       15.669      856.576
04/12/2013  22:00:00     -485.045      -49.238      -26.833      224.837      191.086       91.147    50551.751    36513.739     8307.721       16.688        4.769      487.538       98.378        0.041      341.178       15.707      856.579
04/12/2013  22:01:00     -316.760      -62.182        2.872      190.898      142.446       89.389    36442.103    20290.890     7990.348        8.446        3.236      322.806       97.663        0.092      341.159       15.674      856.568
04/12/2013  22:02:00     -572.423     -132.137      -12.538      234.010      179.878       87.017    54760.830    32355.978     7571.943       21.997        4.734      587.476       94.286        0.026      341.179       15.710      856.564
04/12/2013  22:03:00     -473.803     -177.613       -9.867      236.487      190.491      101.228    55926.209    36286.809    10247.122       17.928        5.123      505.999      103.446        0.042      341.158       15.673      856.543
04/12/2013  22:04:00     -448.165     -181.984      -13.027      205.026      154.285       90.391    42035.785    23803.860     8170.504       15.406        3.701      483.704      106.654        0.049      341.124       15.616      856.561
04/12/2013  22:05:00     -506.003      -42.029      -24.836      198.543      122.335       83.453    39419.293    14965.848     6964.336       15.988        3.067      507.745      105.271        0.043      341.117       15.603      856.569
04/12/2013  22:06:00     -509.225     -111.594      -15.836      138.582      135.251       82.811    19205.002    18292.850     6857.711       15.818        2.218      521.310       78.451        0.023      341.107       15.586      856.591
04/12/2013  22:07:00     -551.582     -140.855      -17.320      172.468      181.416       87.634    29745.339    32911.789     7679.773       19.735        3.517      569.283       85.198        0.022      341.099       15.572      856.583
04/12/2013  22:08:00     -566.955      -85.283      -31.068      189.621      140.888       93.955    35955.965    19849.399     8827.611       19.714        3.232      573.333       82.298        0.021      341.096       15.566      856.572
04/12/2013  22:09:00     -394.366     -103.073      -10.425      149.041      127.774       77.796    22213.286    16326.141     6052.196       10.542        2.230      407.613       79.013        0.038      341.060       15.508      856.618
04/12/2013  22:10:00     -371.568     -102.400      -32.171      171.557      105.447       76.902    29431.904    11118.989     5913.889        9.802        2.323      385.420       67.717        0.031      341.076       15.534      856.599
04/12/2013  22:11:00     -385.371     -123.152      -29.292      121.652      115.490       67.732    14799.298    13338.032     4587.592        9.862        1.636      404.571       62.679        0.024      341.039       15.473      856.614
04/12/2013  22:12:00     -441.441     -101.929      -26.400      159.469      119.600       73.593    25430.212    14304.142     5415.873       12.555        2.258      453.056       69.351        0.023      341.033       15.462      856.635
04/12/2013  22:13:00     -513.374      -41.047      -36.646      186.157      167.261       80.215    34654.295    27976.191     6434.377       16.781        3.453      515.013       82.928        0.026      341.076       15.535      856.603
04/12/2013  22:14:00     -448.444     -140.284      -11.117      157.456      149.396       82.277    24792.350    22319.236     6769.572       13.738        2.694      469.874       81.668        0.030      341.051       15.491      856.591
04/12/2013  22:15:00     -293.283     -129.474       -4.722      152.420      147.782       66.270    23231.874    21839.664     4391.744        7.612        2.473      320.591       64.594        0.041      340.979       15.370      856.610
04/12/2013  22:16:00     -308.551      -65.230      -14.109      127.739      153.242       72.625    16317.294    23482.996     5274.403        7.236        2.254      315.371       55.329        0.031      340.986       15.383      856.602
04/12/2013  22:17:00     -242.045      -93.894       -2.834      154.575      127.701       64.742    23893.562    16307.626     4191.564        5.589        2.220      259.619       69.093        0.071      340.951       15.325      856.598
04/12/2013  22:18:00     -453.576     -144.692      -13.909      172.375      164.755       79.287    29713.012    27144.363     6286.395       14.499        3.157      476.096       75.808        0.025      341.010       15.422      856.587
04/12/2013  22:19:00     -443.806      -72.887      -33.841      199.705      138.496       79.605    39881.905    19181.129     6336.996       13.440        3.270      449.752       99.453        0.049      340.989       15.388      856.587
04/12/2013  22:20:00     -259.042      -81.429       -0.810      172.704      126.116       81.003    29826.646    15905.174     6561.443        6.300        2.615      271.539       77.480        0.081      340.992       15.393      856.579
04/12/2013  22:21:00     -470.648       33.228      -41.447      143.831      126.334       68.160    20687.474    15960.336     4645.823       13.281        2.065      471.819       57.696        0.015      341.025       15.447      856.586
04/12/2013  22:22:00     -463.785      -64.169      -42.723      142.652      176.495       83.484    20349.561    31150.585     6969.548       13.974        2.923      468.204       77.624        0.027      341.031       15.458      856.575
04/12/2013  22:23:00     -390.345      -13.924      -35.484      152.176      113.034       69.704    23157.540    12776.784     4858.590        9.730        2.040      390.593       67.750        0.030      340.996       15.399      856.578
04/12/2013  22:24:00     -338.156     -137.207      -36.015      223.256      125.978       65.298    49843.103    15870.411     4263.861       10.221        3.499      364.932       73.607        0.041      340.981       15.375      856.568
04/12/2013  22:25:00     -467.090     -121.873      -26.985      192.553      154.086       85.526    37076.705    23742.414     7314.665       15.093        3.407      482.727       80.745        0.028      341.012       15.425      856.561
04/12/2013  22:26:00     -340.021     -107.749       -5.261      177.627      113.737       72.658    31551.216    12936.103     5279.170        8.850        2.488      356.685       75.981        0.045      340.991       15.390      856.555
04/12/2013  22:27:00     -367.081     -104.057      -15.832      141.402      195.693       82.290    19994.472    38295.589     6771.700       10.543        3.253      381.545       69.534        0.033      341.025       15.449      856.530
04/12/2013  22:28:00     -369.451       -8.328      -20.964      180.541      159.305       91.829    32595.152    25378.019     8432.582       10.169        3.320      369.545       97.887        0.070      340.994       15.396      856.537
04/12/2013  22:29:00     -488.262      -83.002      -29.884      204.351      162.994       78.787    41759.341    26567.104     6207.398       16.035        3.727      495.267       88.134        0.032      341.029       15.455      856.520
04/12/2013  22:30:00     -338.398      -66.537      -23.145      166.926      132.407       64.529    27864.390    17531.700     4164.005        8.451        2.478      344.877       75.653        0.048      341.026       15.451      856.513
04/12/2013  22:31:00     -410.028      -17.526      -13.365      171.217      129.845       79.147    29315.301    16859.763     6264.241       11.052        2.622      410.403       93.872        0.052      341.005       15.416      856.526
04/12/2013  22:32:00     -465.697      -47.181      -17.194      173.566      121.489       85.892    30125.257    14759.535     7377.394       13.582        2.613      468.081       95.404        0.042      340.995       15.397      856.517
04/12/2013  22:33:00     -454.015      -87.512      -22.441      186.290      103.945       74.805    34704.033    10804.607     5595.737       13.269        2.555      462.372       81.937        0.031      341.016       15.433      856.512
04/12/2013  22:34:00     -507.504      -49.262      -44.797      210.364      161.267       83.316    44252.957    26007.156     6941.621       16.959        3.860      509.890       82.239        0.026      341.044       15.480      856.490
04/12/2013  22:35:00     -423.180      -81.063      -20.833      177.670      141.864       70.862    31566.795    20125.425     5021.392       12.139        2.836      430.874       73.372        0.029      341.010       15.423      856.483
04/12/2013  22:36:00     -334.072      -45.769        2.196      178.893      159.636       96.725    32002.833    25483.770     9355.692        9.026        3.342      337.193       97.861        0.084      340.995       15.397      856.491
04/12/2013  22:37:00     -444.805     -115.518      -18.938      243.134      138.311       91.662    59114.028    19129.833     8401.843       14.909        4.332      459.561      117.250        0.065      341.020       15.440      856.472
04/12/2013  22:38:00     -432.511      -92.511      -15.459      182.742      158.764       85.226    33394.572    25206.159     7263.503       13.085        3.293      442.295       91.784        0.043      341.019       15.438      856.491
04/12/2013  22:39:00     -364.066      -78.753      -20.359      179.479      111.026       76.489    32212.595    12326.737     5850.551        9.477        2.519      372.486       85.738        0.053      341.001       15.409      856.492
04/12/2013  22:40:00     -473.448     -141.824      -15.340      245.408      205.616       92.381    60224.922    42278.129     8534.160       17.775        5.552      494.234      102.166        0.043      341.054       15.498      856.478
04/12/2013  22:41:00     -441.035     -152.594       -8.586      218.905      183.922      100.862    47919.336    33827.253    10173.150       15.488        4.596      466.687      109.161        0.055      341.111       15.592      856.489
04/12/2013  22:42:00     -321.437     -234.042      -11.057      222.211      172.577      111.588    49377.684    29782.941    12451.879       12.490        4.581      397.615      103.732        0.068      341.098       15.572      856.516
04/12/2013  22:43:00     -515.029      -75.214      -25.459      235.671      144.244       84.507    55540.827    20806.369     7141.455       17.751        4.174      520.492      107.189        0.042      341.082       15.543      856.545
04/12/2013  22:44:00     -460.235      -63.510      -16.936      215.939      171.364       99.561    46629.777    29365.630     9912.377       15.101        4.295      464.597      108.402        0.054      341.102       15.578      856.541
04/12/2013  22:45:00     -343.654     -108.791      -14.779      130.890      119.351       68.515    17132.156    14244.761     4694.262        8.311        1.804      360.463       59.799        0.028      341.040       15.474      856.568
04/12/2013  22:46:00     -392.633      -67.713       -2.481      159.259      139.594       82.754    25363.429    19486.494     6848.196       10.522        2.585      398.429       81.164        0.041      341.017       15.436      856.595
04/12/2013  22:47:00     -477.366     -103.845       -8.498      168.483      160.190       85.992    28386.602    25660.701     7394.574       15.008        3.072      488.530       91.927        0.035      341.008       15.420      856.575
04/12/2013  22:48:00     -358.555      -74.604        1.566      165.036      153.967       75.155    27236.789    23705.882     5648.230        9.535        2.830      366.234       84.641        0.053      340.961       15.340      856.606
04/12/2013  22:49:00     -464.781      -29.035      -25.653      144.567      142.226       76.206    20899.505    20228.373     5807.340       13.222        2.347      465.687       75.305        0.026      340.950       15.322      856.627
04/12/2013  22:50:00     -403.794      -56.477      -30.126      133.456      121.089       70.018    17810.566    14662.509     4902.481       10.226        1.869      407.725       67.070        0.027      340.930       15.288      856.644
04/12/2013  22:51:00     -476.528      -40.852      -40.550      192.522      131.369       76.638    37064.908    17257.931     5873.451       14.528        3.010      478.276       91.052        0.036      340.915       15.262      856.656
04/12/2013  22:52:00     -413.658      -93.947       -9.867      185.978      145.260       82.649    34587.778    21100.505     6830.803       12.127        3.126      424.192       92.810        0.048      340.873       15.189      856.659
04/12/2013  22:53:00     -502.484     -143.345      -15.457      155.591      166.744       76.787    24208.602    27803.571     5896.205       16.558        2.895      522.530       68.517        0.017      340.894       15.226      856.668
04/12/2013  22:54:00     -356.602      -98.296       -7.302      138.087      120.761       74.012    19068.133    14583.156     5477.798        8.800        1.956      369.902       67.291        0.033      340.870       15.185      856.682
04/12/2013  22:55:00     -443.495     -140.689      -13.936      152.636      131.325       70.828    23297.601    17246.220     5016.570       13.111        2.278      465.275       79.362        0.029      340.862       15.171      856.668
04/12/2013  22:56:00     -442.212     -141.559      -10.472      168.473      121.262       71.100    28383.316    14704.530     5055.258       13.191        2.407      464.317       75.928        0.027      340.831       15.120      856.674
04/12/2013  22:57:00     -496.724      -23.025      -17.532      192.449      167.806       95.290    37036.525    28158.711     9080.159       16.091        3.714      497.258       99.096        0.040      340.862       15.173      856.661
04/12/2013  22:58:00     -361.973     -155.667       -9.183      193.268      144.166       80.298    37352.557    20783.730     6447.848       10.995        3.229      394.026       91.196        0.054      340.846       15.146      856.666
04/12/2013  22:59:00     -498.564     -129.616      -38.487      156.552      177.886       60.178    24508.399    31643.453     3621.417       16.330        2.989      515.137       52.255        0.010      340.900       15.237      856.660
04/12/2013  23:00:00     -280.890     -157.703      -16.015      170.102      100.364       66.758    28934.784    10073.011     4456.627        7.374        2.173      322.132       68.744        0.046      340.829       15.117      856.660
04/12/2013  23:01:00     -422.243     -132.020      -27.984      140.832      126.369       57.579    19833.632    15969.209     3315.300       11.780        1.956      442.400       61.034        0.019      340.820       15.099      856.646
04/12/2013  23:02:00     -369.277     -104.633      -11.420      166.610      148.928       70.819    27758.826    22179.438     5015.315       10.119        2.748      383.815       68.979        0.032      340.824       15.109      856.630
04/12/2013  23:03:00     -495.786      -65.699      -25.250      171.955      144.632       81.070    29568.430    20918.534     6572.314       15.390        2.853      500.120       81.363        0.026      340.827       15.114      856.644
04/12/2013  23:04:00     -349.390     -136.231      -15.985      175.146      115.459       82.088    30676.143    13330.816     6738.494        9.581        2.537      375.010       75.953        0.041      340.797       15.063      856.644
04/12/2013  23:05:00     -332.221     -142.332       -7.308      145.060      117.241       64.788    21042.521    13745.541     4197.492        8.483        1.949      361.427       56.867        0.025      340.802       15.071      856.647
04/12/2013  23:06:00     -389.948      -90.101      -13.999      124.230      119.709       63.380    15433.214    14330.198     4016.989        9.707        1.689      400.222       63.940        0.026      340.770       15.017      856.653
04/12/2013  23:07:00     -463.666      -83.252      -21.106      138.673      136.617       62.382    19230.111    18664.237     3891.563       13.207        2.089      471.081       70.392        0.022      340.800       15.069      856.643
04/12/2013  23:08:00     -398.971     -106.439      -26.061      140.934      114.984       74.879    19862.322    13221.431     5606.827       10.493        1.935      412.925       65.768        0.025      340.777       15.029      856.646
04/12/2013  23:09:00     -502.710      -34.167      -35.594      187.395      135.672       77.231    35116.938    18406.874     5964.627       15.731        2.974      503.869       91.352        0.033      340.842       15.138      856.650
04/12/2013  23:10:00     -511.593      -29.125      -58.644      171.958      142.967       61.128    29569.531    20439.693     3736.593       15.987        2.687      512.422       49.625        0.009      340.813       15.089      856.656
04/12/2013  23:11:00     -329.476      -93.806      -41.824      142.257      104.570       59.400    20237.111    10934.895     3528.341        7.690        1.735      342.570       55.717        0.026      340.792       15.055      856.643
04/12/2013  23:12:00     -348.885      -75.700      -29.897      106.847      110.367       52.418    11416.296    12180.894     2747.641        7.734        1.317      357.003       47.055        0.017      340.755       14.991      856.645
04/12/2013  23:13:00     -291.311      -81.294      -25.652       87.531      110.440       46.615     7661.738    12196.957     2172.930        5.708        1.102      302.441       36.955        0.015      340.733       14.954      856.648
04/12/2013  23:14:00     -441.831      -31.794      -35.735      153.205      129.811       66.811    23471.722    16850.864     4463.718       12.114        2.239      442.973       68.736        0.024      340.720       14.932      856.639
04/12/2013  23:15:00     -337.102      -61.473      -24.025      167.225      102.612       65.552    27964.083    10529.296     4297.004        8.039        2.140      342.662       72.470        0.045      340.696       14.892      856.630
04/12/2013  23:16:00     -349.933     -103.725      -17.306       99.447      117.363       65.542     9889.732    13774.010     4295.733        8.073        1.398      364.982       56.752        0.024      340.699       14.897      856.618
04/12/2013  23:17:00     -392.093      -35.364      -39.664      162.239      118.040       71.294    26321.580    13933.331     5082.795       10.094        2.267      393.685       81.859        0.043      340.709       14.915      856.608
04/12/2013  23:18:00     -402.635      -77.832      -36.221      139.455      146.707       74.093    19447.623    21523.052     5489.728       10.796        2.323      410.089       68.124        0.028      340.686       14.875      856.610
04/12/2013  23:19:00     -299.088      -63.099      -14.141      153.913      113.998       75.653    23689.137    12995.626     5723.446        6.801        2.120      305.672       64.937        0.045      340.692       14.885      856.600
04/12/2013  23:20:00     -348.654       25.738      -41.491      113.339      111.300       51.241    12845.836    12387.752     2625.619        7.590        1.393      349.602       48.706        0.019      340.715       14.924      856.589
04/12/2013  23:21:00     -260.205      -52.013      -55.894       90.672       77.325       41.469     8221.351     5979.179     1719.692        4.473        0.796      265.353       23.544        0.008      340.716       14.926      856.579
04/12/2013  23:22:00     -283.345     -105.681      -16.563      119.470      114.996       60.789    14272.964    13224.052     3695.317        6.145        1.560      302.411       58.542        0.037      340.691       14.883      856.577
04/12/2013  23:23:00     -306.422      -90.434      -21.968      135.991       93.502       67.215    18493.635     8742.673     4517.791        6.715        1.588      319.488       74.700        0.055      340.678       14.861      856.580
04/12/2013  23:24:00     -449.661     -166.371      -31.726      158.096      147.278       72.991    24994.293    21690.859     5327.617       14.144        2.601      479.452       72.866        0.023      340.755       14.992      856.547
04/12/2013  23:25:00     -409.483     -108.497      -25.812      188.257      116.548       73.214    35440.685    13583.491     5360.334       11.724        2.719      423.613       74.800        0.031      340.705       14.907      856.536
04/12/2013  23:26:00     -371.911      -63.868       -2.772      156.917      111.218       69.768    24622.951    12369.493     4867.612        9.213        2.093      377.355       75.090        0.040      340.655       14.823      856.529
04/12/2013  23:27:00     -355.870       -0.415      -19.041      141.578      106.187       63.953    20044.221    11275.755     4090.007        8.120        1.770      355.870       76.763        0.047      340.658       14.827      856.514
04/12/2013  23:28:00     -471.574      -21.144      -52.455      170.164      132.040       59.972    28955.863    17434.654     3596.604       13.778        2.499      472.047       53.992        0.013      340.737       14.962      856.495
04/12/2013  23:29:00     -321.554     -117.325      -19.033      144.912       94.719       69.493    20999.624     8971.668     4829.294        7.616        1.740      342.289       56.869        0.028      340.716       14.925      856.484
04/12/2013  23:30:00     -306.962      -79.537      -41.944      135.037       83.351       61.093    18235.025     6947.337     3732.320        6.561        1.446      317.099       62.644        0.039      340.667       14.842      856.492
04/12/2013  23:31:00     -263.495      -36.816      -33.904      130.130      138.556       68.597    16933.692    19197.799     4705.607        5.638        2.042      266.054       50.677        0.036      340.709       14.914      856.503
04/12/2013  23:32:00     -362.849      -64.113      -34.344      121.764      129.201       61.003    14826.381    16692.900     3721.320        8.609        1.762      368.470       46.735        0.016      340.730       14.949      856.501
04/12/2013  23:33:00     -408.966      -45.975      -35.964      160.813      122.152       71.336    25860.929    14921.116     5088.826       10.826        2.294      411.542       72.094        0.031      340.752       14.988      856.527
04/12/2013  23:34:00     -287.334     -143.898       -9.989      123.132       80.269       57.927    15161.417     6443.160     3355.591        6.416        1.248      321.352       58.444        0.033      340.709       14.912      856.530
04/12/2013  23:35:00     -273.408      -83.536      -17.732      152.681       85.196       63.230    23311.501     7258.385     3998.093        5.830        1.728      285.885       61.756        0.047      340.711       14.917      856.537
04/12/2013  23:36:00     -426.251      -58.644      -40.939       94.163       84.761       49.554     8866.693     7184.429     2455.631       10.265        0.925      430.266       44.787        0.011      340.675       14.856      856.545
04/12/2013  23:37:00     -328.473      -78.662      -35.167       80.607       94.271       50.283     6497.408     8886.986     2528.365        6.661        0.896      337.760       43.361        0.016      340.652       14.815      856.565
04/12/2013  23:38:00     -345.591      -83.073      -35.676      109.409       76.621       56.070    11970.289     5870.776     3143.847        7.429        1.049      355.436       51.624        0.021      340.685       14.873      856.558
04/12/2013  23:39:00     -263.862      -84.093      -14.039      110.123      127.729       65.208    12127.075    16314.801     4252.102        5.479        1.635      276.938       38.491        0.019      340.640       14.794      856.547
04/12/2013  23:40:00     -333.488      -63.472      -20.685       98.604       84.488       53.154     9722.717     7138.163     2825.373        6.768        0.984      339.475       39.910        0.014      340.706       14.907      856.554
04/12/2013  23:41:00     -349.251     -144.690      -15.072      189.561      112.605       78.114    35933.382    12679.868     6101.727        9.892        2.736      378.036       92.053        0.059      340.738       14.963      856.537
04/12/2013  23:42:00     -263.714      -70.836      -26.212       70.730       71.541       49.967     5002.741     5118.089     2496.720        4.393        0.631      273.061       42.962        0.025      340.638       14.791      856.557
04/12/2013  23:43:00     -211.689      -54.709      -11.364      103.608      122.195       59.544    10734.643    14931.699     3545.444        3.857        1.461      218.644       61.378        0.079      340.630       14.780      856.565
04/12/2013  23:44:00     -253.121      -72.037      -20.576      107.085       77.800       56.040    11467.278     6052.875     3140.475        4.517        1.033      263.172       56.214        0.046      340.643       14.801      856.544
04/12/2013  23:45:00     -302.804        1.037      -35.063      104.572      100.944       59.359    10935.394    10189.743     3523.464        5.878        1.232      302.806       63.905        0.045      340.630       14.779      856.560
04/12/2013  23:46:00     -212.875      -70.041      -25.855      139.083      104.149       68.306    19344.201    10846.915     4665.674        4.287        1.743      224.101       58.380        0.068      340.626       14.772      856.574
04/12/2013  23:47:00     -260.185      -78.817      -29.011      101.659       91.178       47.823    10334.590     8313.512     2287.015        4.784        1.047      271.861       41.218        0.023      340.586       14.705      856.594
04/12/2013  23:48:00     -227.629     -137.602      -20.236      102.968       72.912       48.690    10602.341     5316.162     2370.672        4.472        0.914      265.987       50.307        0.036      340.535       14.620      856.581
04/12/2013  23:49:00     -242.828      -96.524      -27.413       92.060       75.529       57.063     8475.119     5704.663     3256.210        4.323        0.872      261.309       49.944        0.037      340.566       14.672      856.570
04/12/2013  23:50:00     -204.843      -62.590      -15.469       98.502       84.182       56.960     9702.570     7086.533     3244.402        3.307        1.002      214.192       52.692        0.061      340.541       14.628      856.554
04/12/2013  23:51:00     -303.765      -56.994      -36.524      131.106       81.198       45.778    17188.799     6593.055     2095.593        6.136        1.294      309.065       45.584        0.022      340.582       14.698      856.561
04/12/2013  23:52:00     -216.466      -29.481      -16.704       94.249       77.778       54.645     8882.780     6049.356     2986.109        3.296        0.896      218.464       24.134        0.012      340.525       14.603      856.559
04/12/2013  23:53:00     -161.221      -71.885      -11.394      122.209       85.655       51.230    14935.136     7336.831     2624.482        2.809        1.245      176.521       46.444        0.069      340.474       14.518      856.549
04/12/2013  23:54:00     -303.763       21.628      -43.565      101.906       95.629       44.521    10384.886     9144.927     1982.083        5.807        1.076      304.532       37.786        0.015      340.492       14.545      856.554
04/12/2013  23:55:00     -137.371      -67.539       -8.985      148.550       85.247       55.585    22067.230     7266.980     3089.712        2.796        1.621      153.076       64.454        0.177      340.433       14.448      856.535
04/12/2013  23:56:00     -244.340      -75.649      -21.110       98.606      105.967       51.107     9723.123    11229.016     2611.947        4.471        1.178      255.783       40.176        0.025      340.455       14.484      856.531
04/12/2013  23:57:00     -139.697      -48.000       -8.965      144.983       85.693       59.921    21020.051     7343.331     3590.574        2.692        1.598      147.714       38.487        0.068      340.406       14.402      856.519
04/12/2013  23:58:00     -315.727     -107.362      -22.104      107.176       89.746       58.128    11486.697     8054.298     3378.881        6.731        1.146      333.482       49.243        0.022      340.456       14.485      856.528
04/12/2013  23:59:00     -248.123      -79.468      -13.401      109.942       73.177       48.130    12087.216     5354.856     2316.463        4.391        0.988      260.539       38.559        0.022      340.494       14.550      856.527
